[[{"header":{"parameterUnit":"m.s-1","parameterCategory":1,"la1":30.6,"la2":29.2853,"lo1":-89.7004,"lo2":-87.6739,"dy":0.0162,"dx":0.0183,"nx":112,"ny":82,"refTime":"2026-04-05T00:00:00:Z","depth":0,"parameterNumber":2,"parameterNumberName":"U-component_of_WINDS"},"data":[0.0,0.0,0.0,0.0,0.0,0.0,0.0,0.0,0.0,0.0,0.0,0.0,0.0,0.0,0.0,0.0,0.0,0.0,0.0,0.0,0.0,0.0,0.0,0.0,0.0,0.0,0.0,0.0,0.0,0.0,0.0,0.0,0.0,0.0,0.0,0.0,0.0,0.0,0.0,0.0,0.0,0.0,0.0,0.0,0.0,0.0,0.0,0.0,0.0,0.0,0.0,0.0,0.0,0.0,0.0,0.0,0.0,0.0,0.0,0.0,0.0,0.0,0.0,0.0,0.0,0.0,0.0,0.0,0.0,0.0,0.0,0.0,0.0,0.0,0.0,0.0,0.0,0.0,0.0,0.0,0.0,0.0,0.0,0.0,0.0,0.0,0.0,0.0,0.0,0.0,0.0,-3.6115,-4.1066,-4.3835,-4.3162,-4.195,-3.8834,-3.3256,0.0,0.0,0.0,0.0,0.0,0.0,0.0,0.0,0.0,0.0,0.0,0.0,0.0,0.0,0.0,0.0,0.0,0.0,0.0,0.0,0.0,0.0,0.0,0.0,0.0,0.0,0.0,0.0,0.0,0.0,0.0,0.0,0.0,0.0,0.0,0.0,0.0,0.0,0.0,0.0,0.0,0.0,0.0,0.0,0.0,0.0,0.0,0.0,0.0,0.0,0.0,0.0,0.0,0.0,0.0,0.0,0.0,0.0,0.0,0.0,0.0,0.0,0.0,0.0,0.0,0.0,0.0,0.0,0.0,0.0,0.0,0.0,0.0,0.0,0.0,0.0,0.0,0.0,0.0,0.0,0.0,0.0,0.0,0.0,0.0,0.0,0.0,0.0,0.0,0.0,0.0,0.0,0.0,0.0,0.0,0.0,0.0,0.0,0.0,0.0,0.0,0.0,0.0,0.0,-3.3231,-4.0115,-4.2316,-4.3239,-4.3104,-4.0315,-3.6949,-3.3141,0.0,0.0,0.0,0.0,0.0,0.0,0.0,0.0,0.0,0.0,0.0,0.0,0.0,0.0,0.0,0.0,0.0,0.0,0.0,0.0,0.0,0.0,0.0,0.0,0.0,0.0,0.0,0.0,0.0,0.0,0.0,0.0,0.0,0.0,0.0,0.0,0.0,0.0,0.0,0.0,0.0,0.0,0.0,0.0,0.0,0.0,0.0,0.0,0.0,0.0,0.0,0.0,0.0,0.0,0.0,0.0,0.0,0.0,0.0,0.0,0.0,0.0,0.0,0.0,0.0,0.0,0.0,0.0,0.0,0.0,0.0,0.0,0.0,0.0,0.0,0.0,0.0,0.0,0.0,0.0,0.0,0.0,0.0,0.0,0.0,0.0,0.0,0.0,0.0,0.0,0.0,0.0,0.0,0.0,0.0,0.0,0.0,0.0,0.0,0.0,0.0,0.0,0.0,-3.2577,-3.6038,-4.1873,-4.3258,-4.3566,-4.3143,-4.0392,-3.7046,-3.3141,-3.0467,0.0,0.0,0.0,0.0,0.0,0.0,0.0,0.0,0.0,0.0,0.0,0.0,0.0,0.0,0.0,0.0,0.0,0.0,0.0,0.0,0.0,0.0,0.0,0.0,0.0,0.0,0.0,0.0,0.0,0.0,0.0,0.0,0.0,0.0,0.0,0.0,0.0,0.0,0.0,0.0,0.0,0.0,0.0,0.0,0.0,0.0,0.0,0.0,0.0,0.0,0.0,0.0,0.0,0.0,0.0,0.0,0.0,0.0,0.0,0.0,0.0,0.0,0.0,0.0,0.0,0.0,0.0,0.0,0.0,0.0,0.0,0.0,0.0,0.0,0.0,0.0,0.0,0.0,0.0,0.0,0.0,0.0,0.0,0.0,0.0,0.0,0.0,0.0,0.0,0.0,0.0,0.0,0.0,0.0,0.0,0.0,0.0,0.0,0.0,0.0,0.0,0.0,-3.6469,-3.8931,-4.2412,-4.3528,-4.3682,-4.2854,-4.0104,-3.6834,-3.3122,-2.9374,0.0,0.0,0.0,0.0,0.0,0.0,0.0,0.0,0.0,0.0,0.0,0.0,0.0,0.0,0.0,0.0,0.0,0.0,0.0,0.0,0.0,0.0,0.0,0.0,0.0,0.0,0.0,0.0,0.0,0.0,0.0,0.0,0.0,0.0,0.0,0.0,0.0,0.0,0.0,0.0,0.0,0.0,0.0,0.0,0.0,0.0,0.0,0.0,0.0,0.0,0.0,0.0,0.0,0.0,0.0,0.0,0.0,0.0,0.0,0.0,0.0,0.0,0.0,0.0,0.0,0.0,0.0,0.0,0.0,0.0,0.0,0.0,0.0,0.0,0.0,0.0,0.0,0.0,0.0,0.0,0.0,0.0,0.0,0.0,0.0,0.0,0.0,0.0,0.0,0.0,0.0,0.0,0.0,0.0,0.0,0.0,0.0,0.0,0.0,0.0,0.0,0.0,-3.7257,-4.0662,-4.1769,-4.2662,-4.2835,-4.1962,-3.8135,-3.4942,-3.3026,-2.828,0.0,0.0,0.0,0.0,0.0,0.0,0.0,0.0,0.0,0.0,0.0,0.0,0.0,0.0,0.0,0.0,0.0,0.0,0.0,0.0,0.0,0.0,0.0,0.0,0.0,0.0,0.0,0.0,0.0,0.0,0.0,0.0,0.0,0.0,0.0,0.0,0.0,0.0,0.0,0.0,0.0,0.0,0.0,0.0,0.0,0.0,0.0,0.0,0.0,0.0,0.0,0.0,0.0,0.0,0.0,0.0,0.0,0.0,0.0,0.0,0.0,0.0,0.0,0.0,0.0,0.0,0.0,0.0,0.0,0.0,0.0,0.0,0.0,0.0,0.0,0.0,0.0,0.0,0.0,0.0,0.0,0.0,0.0,0.0,0.0,0.0,0.0,0.0,0.0,0.0,0.0,0.0,0.0,0.0,0.0,0.0,0.0,0.0,0.0,0.0,0.0,0.0,-3.5968,-3.9065,0.0,-4.2085,-4.2162,-4.1827,-3.8892,-3.5872,-3.3083,0.0,0.0,0.0,0.0,0.0,0.0,0.0,0.0,0.0,0.0,0.0,0.0,0.0,0.0,0.0,0.0,0.0,0.0,0.0,0.0,0.0,0.0,0.0,0.0,0.0,0.0,0.0,0.0,0.0,0.0,0.0,0.0,0.0,0.0,0.0,0.0,0.0,0.0,0.0,0.0,0.0,0.0,0.0,0.0,0.0,0.0,0.0,0.0,0.0,0.0,0.0,0.0,0.0,0.0,0.0,0.0,0.0,0.0,0.0,0.0,0.0,0.0,0.0,0.0,0.0,0.0,0.0,0.0,0.0,0.0,0.0,0.0,0.0,0.0,0.0,0.0,0.0,0.0,0.0,0.0,0.0,0.0,0.0,0.0,0.0,0.0,0.0,0.0,0.0,0.0,0.0,0.0,0.0,0.0,0.0,0.0,0.0,0.0,0.0,0.0,0.0,0.0,-3.2314,-3.5603,-3.8527,0.0,-4.1643,-4.1577,-4.1046,-3.8411,-3.5565,-3.2699,0.0,0.0,0.0,0.0,0.0,0.0,0.0,0.0,0.0,0.0,0.0,0.0,0.0,0.0,0.0,0.0,0.0,0.0,0.0,0.0,0.0,0.0,0.0,0.0,0.0,0.0,0.0,0.0,0.0,0.0,0.0,0.0,0.0,0.0,0.0,0.0,0.0,0.0,0.0,0.0,0.0,0.0,0.0,0.0,0.0,0.0,0.0,0.0,0.0,0.0,0.0,0.0,0.0,0.0,0.0,0.0,0.0,0.0,0.0,0.0,0.0,0.0,0.0,0.0,0.0,0.0,0.0,0.0,0.0,0.0,0.0,0.0,0.0,0.0,0.0,0.0,0.0,0.0,0.0,0.0,0.0,0.0,0.0,0.0,0.0,0.0,0.0,0.0,0.0,0.0,0.0,0.0,0.0,0.0,0.0,0.0,0.0,0.0,0.0,0.0,0.0,0.0,-3.2468,-3.6642,-3.9611,-4.0419,-4.1277,-4.1104,-3.9438,-3.6187,-3.3506,0.0,0.0,0.0,0.0,0.0,0.0,0.0,0.0,0.0,0.0,0.0,0.0,0.0,0.0,0.0,0.0,0.0,0.0,0.0,0.0,0.0,0.0,0.0,0.0,0.0,0.0,0.0,0.0,0.0,0.0,0.0,0.0,0.0,0.0,0.0,0.0,0.0,0.0,0.0,0.0,0.0,0.0,0.0,0.0,0.0,0.0,0.0,0.0,0.0,0.0,0.0,0.0,0.0,0.0,0.0,0.0,0.0,0.0,0.0,0.0,0.0,0.0,0.0,0.0,0.0,0.0,0.0,0.0,0.0,0.0,0.0,0.0,0.0,0.0,0.0,0.0,0.0,0.0,0.0,0.0,0.0,0.0,0.0,0.0,0.0,0.0,0.0,0.0,0.0,0.0,0.0,0.0,0.0,0.0,0.0,0.0,0.0,0.0,0.0,0.0,0.0,0.0,0.0,-3.2468,-3.6103,-3.8931,-4.0342,-4.0727,-4.045,-3.94,-3.7257,-3.4737,-3.1891,0.0,0.0,0.0,0.0,0.0,0.0,0.0,0.0,0.0,0.0,0.0,0.0,0.0,0.0,0.0,0.0,0.0,0.0,0.0,0.0,0.0,0.0,0.0,0.0,0.0,0.0,0.0,0.0,0.0,0.0,0.0,0.0,0.0,0.0,0.0,0.0,0.0,0.0,0.0,0.0,0.0,0.0,0.0,0.0,0.0,0.0,0.0,0.0,0.0,0.0,0.0,0.0,0.0,0.0,0.0,0.0,0.0,0.0,0.0,0.0,0.0,0.0,0.0,0.0,0.0,0.0,0.0,0.0,0.0,0.0,0.0,0.0,0.0,0.0,0.0,0.0,0.0,0.0,0.0,0.0,0.0,0.0,0.0,0.0,0.0,0.0,0.0,0.0,0.0,0.0,0.0,0.0,0.0,0.0,0.0,0.0,0.0,0.0,0.0,0.0,0.0,0.0,-3.2468,-3.5892,-3.8642,-4.0323,-4.0496,-4.0035,-3.8873,-3.7219,-3.4769,-3.1385,0.0,0.0,0.0,0.0,0.0,0.0,0.0,0.0,0.0,0.0,0.0,0.0,0.0,0.0,0.0,0.0,0.0,0.0,0.0,0.0,0.0,0.0,0.0,0.0,0.0,0.0,0.0,0.0,0.0,0.0,0.0,0.0,0.0,0.0,0.0,0.0,0.0,0.0,0.0,0.0,0.0,0.0,0.0,0.0,0.0,0.0,0.0,0.0,0.0,0.0,0.0,0.0,0.0,0.0,0.0,0.0,0.0,0.0,0.0,0.0,0.0,0.0,0.0,0.0,0.0,0.0,0.0,0.0,0.0,0.0,0.0,0.0,0.0,0.0,0.0,0.0,0.0,0.0,0.0,0.0,0.0,0.0,0.0,0.0,0.0,0.0,0.0,0.0,0.0,0.0,0.0,0.0,0.0,0.0,0.0,0.0,0.0,0.0,0.0,0.0,0.0,0.0,-3.2468,-3.5892,-3.8642,-4.0323,-4.0496,-3.9823,-3.8142,-3.6519,-3.4154,-3.0731,0.0,0.0,0.0,0.0,0.0,0.0,0.0,0.0,0.0,0.0,0.0,0.0,0.0,0.0,0.0,0.0,0.0,0.0,0.0,0.0,0.0,0.0,0.0,0.0,0.0,0.0,0.0,0.0,0.0,0.0,0.0,0.0,0.0,0.0,0.0,0.0,0.0,0.0,0.0,0.0,0.0,0.0,0.0,0.0,0.0,0.0,0.0,0.0,0.0,0.0,0.0,0.0,0.0,0.0,0.0,0.0,0.0,0.0,0.0,0.0,-3.0205,0.0,0.0,0.0,0.0,0.0,0.0,0.0,0.0,0.0,0.0,0.0,0.0,0.0,0.0,0.0,0.0,0.0,0.0,0.0,0.0,0.0,0.0,0.0,0.0,0.0,0.0,0.0,0.0,0.0,0.0,0.0,0.0,0.0,0.0,0.0,0.0,0.0,0.0,0.0,0.0,0.0,-3.2468,-3.5892,-3.8642,-4.0323,-4.0496,-3.9823,-3.8142,-3.7046,-3.5,-3.1641,-2.8212,0.0,0.0,0.0,0.0,0.0,0.0,0.0,0.0,0.0,0.0,0.0,0.0,0.0,0.0,0.0,0.0,0.0,0.0,0.0,0.0,0.0,0.0,0.0,0.0,0.0,0.0,0.0,0.0,0.0,0.0,0.0,0.0,0.0,0.0,0.0,0.0,0.0,0.0,0.0,0.0,0.0,0.0,0.0,0.0,0.0,0.0,0.0,0.0,0.0,0.0,0.0,0.0,0.0,0.0,0.0,0.0,0.0,0.0,0.0,0.0,-3.2012,0.0,0.0,0.0,0.0,0.0,0.0,0.0,0.0,0.0,0.0,0.0,0.0,0.0,0.0,0.0,0.0,0.0,0.0,0.0,0.0,0.0,0.0,0.0,0.0,0.0,0.0,0.0,0.0,0.0,0.0,0.0,0.0,0.0,0.0,0.0,0.0,0.0,0.0,0.0,0.0,-3.2526,-3.5885,-3.8635,-4.0323,-4.0496,-3.9823,-3.8142,-3.7199,-3.5423,-3.2468,-2.9467,0.0,0.0,0.0,0.0,0.0,0.0,0.0,0.0,0.0,0.0,0.0,0.0,0.0,0.0,0.0,0.0,0.0,0.0,0.0,0.0,0.0,0.0,0.0,0.0,0.0,0.0,0.0,0.0,0.0,0.0,0.0,0.0,0.0,0.0,0.0,0.0,0.0,0.0,0.0,0.0,0.0,0.0,0.0,0.0,0.0,0.0,0.0,0.0,0.0,0.0,0.0,0.0,0.0,-3.8527,-3.97,-4.0419,-4.1093,-4.1854,-4.2442,-3.8238,-3.6776,-3.7142,0.0,0.0,0.0,0.0,0.0,0.0,0.0,0.0,0.0,0.0,0.0,0.0,0.0,0.0,0.0,0.0,0.0,0.0,0.0,0.0,0.0,0.0,0.0,0.0,0.0,-3.5853,-3.518,0.0,0.0,0.0,0.0,0.0,0.0,0.0,0.0,0.0,0.0,0.0,0.0,-3.2807,-3.6103,-3.8815,-4.0342,-4.0496,-3.9823,-3.8142,-3.7334,-3.5834,-3.3295,-3.0877,-2.8544,0.0,0.0,0.0,0.0,0.0,0.0,0.0,0.0,0.0,0.0,0.0,0.0,0.0,0.0,0.0,0.0,0.0,0.0,0.0,0.0,0.0,0.0,0.0,0.0,0.0,0.0,0.0,0.0,0.0,0.0,0.0,0.0,-2.4731,-2.4942,0.0,0.0,0.0,0.0,0.0,0.0,0.0,0.0,0.0,0.0,0.0,0.0,0.0,-3.5577,-3.7142,-3.9585,-4.1239,-4.2124,-4.3797,-4.4671,-4.4767,-4.4883,-4.5393,-4.6192,-4.5528,0.0,-3.9861,-3.795,0.0,0.0,0.0,0.0,0.0,0.0,0.0,0.0,0.0,0.0,0.0,0.0,0.0,0.0,0.0,0.0,0.0,0.0,0.0,0.0,0.0,0.0,-3.9534,-3.965,-3.9765,-3.9477,0.0,-3.391,-3.0,-2.8703,-2.7448,0.0,0.0,0.0,0.0,0.0,0.0,0.0,-3.3692,-3.7004,-3.9472,-4.04,-4.0496,-3.9823,-3.8142,-3.7892,-3.6738,-3.4186,-3.2352,-3.0871,-2.9769,-2.6106,0.0,0.0,0.0,0.0,0.0,0.0,0.0,0.0,0.0,0.0,0.0,0.0,0.0,0.0,0.0,0.0,0.0,0.0,0.0,0.0,0.0,0.0,0.0,0.0,0.0,0.0,0.0,0.0,0.0,-2.4274,-2.6096,-2.624,-2.7288,-2.7698,0.0,0.0,0.0,0.0,0.0,0.0,0.0,0.0,0.0,-3.643,-3.8161,-3.9854,-4.1527,-4.3624,-4.4855,-4.5259,-4.6932,-4.774,-4.774,-4.8249,-4.8673,-4.9009,-4.8529,-4.724,-4.5259,-4.2143,-3.9623,-3.7534,0.0,0.0,0.0,0.0,-3.5238,-3.5565,-3.7834,-3.8315,0.0,-3.7784,0.0,0.0,0.0,0.0,0.0,0.0,0.0,0.0,0.0,0.0,0.0,-4.2305,-4.2277,-4.1997,-4.2093,-3.9311,-3.5989,0.0,-3.2095,-3.0467,-2.6856,0.0,0.0,0.0,0.0,0.0,-3.4719,-3.749,-3.9604,-4.0419,-4.0496,-3.9815,-3.8135,-3.7988,-3.713,-3.5064,-3.3776,-3.2506,-3.1192,-2.889,-2.6736,0.0,0.0,0.0,0.0,0.0,0.0,0.0,0.0,0.0,0.0,0.0,0.0,0.0,0.0,0.0,0.0,0.0,0.0,0.0,0.0,0.0,0.0,0.0,0.0,0.0,0.0,0.0,0.0,-2.6101,-2.7558,-2.7547,-2.9231,-2.9813,0.0,0.0,0.0,0.0,0.0,0.0,-3.5706,-3.6642,-3.8277,-4.0823,-4.2335,-4.3912,-4.5586,-4.6894,-4.7644,-4.7894,-4.9144,-4.9721,-4.974,-5.0404,-5.0712,-5.0654,-5.001,-4.9721,-4.9433,-4.5643,-4.3181,-4.1593,-3.9469,-3.8154,-3.7615,-3.9084,-3.9604,-4.0008,-4.2777,-4.3316,-4.2701,-4.2277,0.0,-3.8615,-3.6726,0.0,0.0,0.0,0.0,-3.7364,-3.9923,-4.1016,-4.2016,-4.4124,-4.4182,-4.3902,-4.4506,-4.3476,-4.1328,0.0,-3.6425,-3.4795,-3.0562,0.0,0.0,0.0,0.0,-3.5159,-3.6029,-3.8171,-3.9838,-4.0439,-4.0496,-3.9815,-3.8131,-3.8,-3.7284,-3.5615,-3.4673,-3.3538,-3.2064,-3.0962,-2.9,-2.6019,0.0,0.0,0.0,0.0,0.0,0.0,0.0,0.0,0.0,0.0,0.0,0.0,0.0,0.0,0.0,0.0,0.0,0.0,0.0,0.0,0.0,0.0,0.0,0.0,0.0,0.0,0.0,0.0,0.0,-2.9088,-3.1916,0.0,0.0,0.0,0.0,-3.5115,-3.5288,-3.6738,-4.0015,-4.1008,-4.2643,-4.521,-4.6163,-4.7451,-4.9125,-4.9221,-4.9683,-5.0519,-5.0596,-5.0635,-5.0635,-5.0673,-5.0712,-5.0712,-5.0654,-5.0635,-5.0442,-4.7798,-4.6163,-4.5248,-4.4278,-4.3431,-4.2816,-4.3662,-4.397,-4.4124,-4.5133,-4.546,-4.5537,-4.6317,-4.4318,-4.1574,-4.1456,-3.9117,0.0,0.0,-4.0213,-4.0846,-4.3385,-4.4075,-4.4355,-4.5306,-4.5498,-4.5498,-4.5537,-4.4827,-4.3395,0.0,-3.8957,-3.7291,-3.5438,0.0,-3.397,-3.3842,-3.5391,-3.6885,-3.7767,-3.9383,-4.0458,-4.0496,-4.0496,-3.9819,-3.8139,-3.8004,-3.7276,-3.5615,-3.4684,-3.3781,-3.2872,-3.1269,-2.9577,-2.7794,-2.513,0.0,0.0,0.0,0.0,0.0,0.0,0.0,0.0,0.0,0.0,0.0,0.0,0.0,0.0,0.0,0.0,0.0,0.0,0.0,0.0,0.0,0.0,0.0,0.0,0.0,0.0,0.0,0.0,-3.4944,-3.5821,0.0,-3.728,-3.7144,-3.7719,-3.9423,-4.0058,-4.1623,-4.447,-4.4913,-4.599,-4.7971,-4.8355,-4.9067,-5.0231,-5.025,-5.0385,-5.0712,-5.0712,-5.0712,-5.0712,-5.0712,-5.0712,-5.0673,-5.0106,-5.0183,-5.0596,-4.9106,-4.8336,-4.7952,-4.7086,-4.6567,-4.6355,-4.6644,-4.7105,-4.7625,-4.7932,-4.8048,-4.7913,-4.7145,-4.6077,-4.4979,-4.4425,-4.3398,-4.2733,-4.4198,-4.4626,-4.4947,-4.6383,-4.6364,-4.6047,-4.6355,-4.6009,-4.5594,-4.5594,-4.5355,-4.4874,-4.3959,-4.1975,-3.9733,-3.7485,-3.7317,-3.6939,-3.5292,-3.6946,-3.8478,-3.8794,-3.9805,-4.0496,-4.0496,-4.0496,-3.9819,-3.8132,-3.8007,-3.7048,-3.4807,-3.437,-3.3581,-3.2198,-3.1546,-3.0181,-2.7951,-2.6395,-2.4046,0.0,0.0,0.0,0.0,0.0,0.0,0.0,0.0,0.0,0.0,0.0,0.0,0.0,0.0,0.0,0.0,0.0,0.0,0.0,0.0,0.0,0.0,0.0,0.0,0.0,0.0,-3.3909,-3.7653,-3.8969,-3.9954,-4.0854,-4.1224,-4.2008,-4.3423,-4.4066,-4.5374,-4.7625,-4.774,-4.8394,-4.9779,-4.9837,-5.0106,-5.0693,-5.0712,-5.0712,-5.0712,-5.0712,-5.0712,-5.0712,-5.0712,-5.0712,-5.0673,-5.0087,-5.0173,-5.0654,-5.0067,-4.9837,-4.9779,-4.9202,-4.8971,-4.8971,-4.8971,-4.9336,-4.9837,-4.9837,-4.9837,-4.9606,-4.8193,-4.775,-4.7585,-4.6712,-4.6433,-4.6549,-4.7144,-4.7299,-4.7424,-4.7962,-4.75,-4.6904,-4.6903,-4.6229,-4.5594,-4.5594,-4.5594,-4.5594,-4.5594,-4.4004,-4.2106,-4.0425,-4.0138,-3.9562,-3.7874,-3.8808,-3.9708,-3.9709,-4.0173,-4.0496,-4.0496,-4.0496,-3.9819,-3.8132,-3.7726,-3.6727,-3.4768,-3.4083,-3.3262,-3.2153,-3.1565,-3.02,-2.7934,-2.642,-2.4337,-2.1657,0.0,0.0,0.0,0.0,0.0,0.0,0.0,0.0,0.0,0.0,0.0,0.0,0.0,0.0,0.0,0.0,0.0,0.0,0.0,0.0,0.0,0.0,0.0,-3.0257,-3.4135,-3.6788,-3.6923,-4.1354,-4.3758,-4.2154,-4.4201,-4.599,-4.6865,-4.6904,-4.7625,-4.926,-4.9394,-4.9779,-5.0635,-5.0693,-5.0712,-5.0712,-5.0712,-5.0712,-5.0712,-5.0712,-5.0712,-5.0712,-5.0712,-5.0712,-5.0712,-5.0712,-5.0712,-5.0712,-5.0712,-5.0712,-5.0712,-5.0712,-5.0712,-5.0712,-5.0712,-5.0712,-5.0712,-5.0712,-5.0712,-5.0548,-4.9721,-4.9442,-4.9279,-4.8443,-4.8193,-4.8193,-4.8193,-4.8193,-4.8193,-4.8193,-4.7588,-4.6962,-4.694,-4.6266,-4.5633,-4.5614,-4.5594,-4.5594,-4.5594,-4.4914,-4.432,-4.4301,-4.294,-4.1863,-4.1805,-4.107,0.0,-4.0496,-4.0496,-4.0496,-4.0496,-4.0496,-3.9819,-3.817,-3.7231,-3.6374,-3.5507,-3.3853,-3.2877,-3.2814,-3.125,-2.9604,-2.7909,-2.5244,-2.3346,-2.2233,0.0,0.0,0.0,0.0,0.0,0.0,0.0,0.0,0.0,0.0,0.0,0.0,0.0,0.0,0.0,0.0,0.0,0.0,0.0,0.0,0.0,0.0,-3.3384,-3.4019,-3.6145,-3.8777,-4.1854,-4.472,-4.6451,-4.6374,-4.6471,-4.6874,-4.7721,-4.7231,-4.7355,-4.8394,-4.9067,-4.951,-4.974,-5.0366,-5.0712,-5.0712,-5.0712,-5.0712,-5.0712,-5.0712,-5.0712,-5.0712,-5.0712,-5.0712,-5.0712,-5.0712,-5.0712,-5.0712,-5.0712,-5.0712,-5.0712,-5.0712,-5.0712,-5.0712,-5.0712,-5.0712,-5.0712,-5.0712,-5.0712,-5.0673,-5.0414,-5.0337,-5.0288,-5.0058,-4.999,-4.999,-4.999,-4.999,-4.999,-4.999,-4.9346,-4.8548,-4.7914,-4.7144,-4.6362,-4.5729,-4.5594,-4.5594,-4.5594,-4.5413,-4.5038,-4.4406,-4.3915,-4.3201,-4.1971,-4.1605,0.0,-4.0573,-4.0496,-4.0496,-4.0496,-4.0496,-4.0077,-3.9027,-3.8145,-3.6761,-3.4693,-3.3506,-3.2359,-3.1135,-3.0635,-2.9549,-2.7714,-2.6314,-2.4771,0.0,0.0,0.0,0.0,0.0,0.0,0.0,0.0,0.0,0.0,0.0,0.0,0.0,0.0,0.0,0.0,0.0,0.0,0.0,0.0,0.0,0.0,-3.4975,-3.7308,-3.85,-3.9811,-4.1695,-4.4509,-4.6826,-4.8163,-4.8105,-4.8009,-4.799,-4.8086,-4.8009,-4.8144,-4.8625,-4.9471,-4.9933,-4.9933,-5.0442,-5.0712,-5.0712,-5.0712,-5.0712,-5.0712,-5.0712,-5.0712,-5.0712,-5.0712,-5.0712,0.0,-5.0712,-5.0712,-5.0712,-5.0712,-5.0712,0.0,0.0,0.0,0.0,0.0,-5.0712,-5.0712,-5.0712,-5.0712,-5.0712,-5.0712,-5.0712,-5.0712,-5.0712,-5.0712,-5.0712,-5.0712,-5.0433,-5.0154,-5.0154,-4.926,-4.8231,-4.7713,-4.6962,-4.6228,-4.571,-4.5594,-4.5594,-4.5594,-4.5594,0.0,-4.4934,-4.454,-4.3964,-4.2997,-4.2252,-4.1624,-4.1108,-4.0735,-4.0496,-4.0496,-4.0496,-4.0181,-3.9362,-3.8166,0.0,0.0,0.0,-3.2102,-3.0312,-2.9806,0.0,0.0,0.0,0.0,0.0,0.0,0.0,0.0,-2.3726,-2.3227,0.0,0.0,0.0,0.0,0.0,0.0,0.0,0.0,0.0,0.0,0.0,0.0,0.0,0.0,0.0,0.0,-3.7969,-4.0212,-4.2854,-4.4028,-4.4874,-4.5652,-4.7817,-4.8952,-4.8182,-4.8721,-4.8798,-4.8029,-4.8682,-4.9125,-4.9125,0.0,0.0,0.0,0.0,-5.0712,-5.0712,-5.0712,-5.0712,-5.0712,-5.0712,-5.0712,-5.0712,-5.0712,-5.0712,-5.0712,-5.0712,-5.0712,-5.0712,-5.0712,-5.0712,-5.0712,-5.0712,-5.0712,-5.0712,-5.0712,-5.0712,-5.0712,-5.0712,0.0,0.0,-5.0596,-5.0558,-5.0539,-5.0442,-5.0423,-5.0404,-5.0404,-4.9846,-4.925,-4.925,-4.8155,-4.7021,-4.6916,-4.6319,-4.571,-4.5614,-4.5594,-4.5594,-4.5594,-4.5594,-4.5594,-4.5594,-4.4962,-4.4406,-4.4301,-4.3036,-4.2009,-4.1825,-4.1108,-4.0612,-4.0516,0.0,0.0,-3.9504,-3.7932,-3.6903,-3.6701,-3.4321,-3.2112,-3.0348,-2.9361,-2.855,-2.7856,-2.8452,-2.8724,-2.861,-2.9944,-3.0154,-2.9186,-2.5818,-2.4804,0.0,0.0,0.0,0.0,0.0,0.0,0.0,0.0,0.0,0.0,0.0,0.0,0.0,0.0,0.0,-4.0174,-4.1663,-4.2701,-4.3893,-4.5413,-4.6471,-4.6624,-4.7663,-4.8298,-4.8125,-4.7682,-4.7317,-4.7135,-4.7298,-4.7375,-4.7375,-4.8836,0.0,-4.9644,-5.0327,-5.0712,-5.0712,-5.0712,-5.0712,-5.0712,0.0,0.0,-5.0712,-5.0712,-5.0712,-5.0712,-5.0712,-5.0712,-5.0712,-5.0712,-5.0712,-5.0712,-5.0712,-5.0712,-5.0712,-5.0712,-5.0712,-5.0712,-5.0712,-5.0712,-5.0577,-4.9894,-4.9644,-4.9519,-4.8826,-4.8606,0.0,-4.8605,-4.848,-4.8346,-4.8346,-4.8116,-4.7694,-4.7048,-4.6767,-4.6467,-4.5748,-4.5594,-4.5594,-4.5594,-4.5594,-4.5594,-4.5594,-4.5451,-4.5115,-4.4406,-4.4021,-4.3335,-4.1971,-4.1644,-4.1289,-4.0573,-4.0496,-4.0439,-4.0277,-3.9362,-3.8197,-3.6785,-3.4307,-3.2627,-3.2041,-3.1825,-3.1175,-3.0027,-3.0742,-3.0727,-2.9857,-3.0777,-3.1115,-3.0901,-2.9551,-2.8692,0.0,0.0,0.0,0.0,0.0,0.0,0.0,0.0,0.0,0.0,0.0,-2.7729,-3.1418,0.0,-3.7719,-4.1967,-4.3245,-4.3989,-4.4816,-4.6413,-4.7355,-4.6942,-4.7605,-4.7952,-4.7548,-4.7135,-4.6904,-4.6904,-4.7269,-4.7702,-4.8125,-4.9356,-5.0048,-5.0048,-5.0481,-5.0712,-5.0712,-5.0712,-5.0712,-5.0712,-5.0712,-5.0712,-5.0712,-5.0712,-5.0712,-5.0712,-5.0712,-5.0712,-5.0712,-5.0712,-5.0712,-5.0712,-5.0712,-5.0712,-5.0712,-5.0712,-5.0712,-5.0635,-5.0212,-5.0048,-4.9913,-4.9029,-4.8759,-4.8672,-4.8239,-4.8105,-4.8105,-4.8105,-4.7817,-4.751,-4.751,-4.7174,-4.676,-4.6334,-4.6247,-4.6131,-4.5691,-4.5594,-4.5594,-4.5594,-4.5594,-4.5594,-4.5594,-4.5594,-4.5451,-4.5019,-4.4579,-4.4002,-4.3162,-4.2329,-4.1624,-4.1212,-4.0754,-4.0496,-4.0496,-3.9762,-3.8742,-3.7425,-3.5249,-3.3879,-3.3604,-3.2664,-3.1851,-3.1209,-3.1851,-3.1991,-3.1602,-3.2268,-3.2596,-3.259,-3.2193,-3.1342,0.0,0.0,0.0,0.0,0.0,0.0,0.0,0.0,-2.4873,-2.6454,-2.8165,-3.0759,-3.5311,-3.7428,-3.9558,-4.2816,-4.4008,-4.4797,-4.5498,-4.6759,-4.7375,-4.6721,-4.7509,-4.7778,-4.6981,-4.6759,-4.6644,-4.6644,-4.7548,-4.8413,-4.9106,-5.0125,-5.0712,-5.0712,-5.0712,-5.0712,-5.0712,-5.0712,-5.0712,-5.0712,-5.0712,-5.0712,-5.0712,-5.0712,-5.0712,-5.0712,-5.0712,-5.0712,-5.0712,-5.0712,-5.0712,-5.0712,-5.0712,-5.0712,-5.0712,-5.0712,-5.0712,-5.0596,-4.9894,-4.9644,-4.9471,-4.8442,-4.8105,-4.8037,-4.771,-4.7613,-4.7604,-4.7605,-4.7145,-4.6655,-4.6655,-4.6135,-4.5594,-4.5594,-4.5594,-4.5594,-4.5594,-4.5594,-4.5594,-4.5594,-4.5594,-4.5594,-4.5594,-4.5594,-4.5594,-4.5594,-4.5,-4.4475,-4.4239,-4.2889,-4.1873,-4.1626,-4.0841,-4.0329,-4.0328,-3.958,-3.8832,-3.8204,-3.6477,-3.5397,-3.5191,-3.3597,-3.2721,-3.2669,-3.311,-3.3429,-3.3641,-3.4068,-3.4293,-3.4283,-3.4283,-3.3418,-2.5486,-2.4659,-2.4491,-2.607,-2.5879,-2.6097,0.0,0.0,-2.8307,-3.1404,-3.344,-3.5427,-3.7954,-4.1031,-4.3376,-4.4055,-4.4902,-4.5498,-4.5594,-4.5768,-4.5845,-4.5768,-4.7144,-4.7778,-4.6981,-4.6201,-4.5748,-4.5748,-4.7201,-4.8144,-4.824,-4.9798,-5.0712,-5.0712,-5.0712,-5.0712,-5.0712,-5.0712,-5.0712,-5.0712,-5.0712,-5.0712,-5.0712,-5.0712,-5.0712,-5.0712,-5.0712,-5.0712,-5.0712,-5.0712,-5.0712,-5.0712,-5.0712,-5.0712,-5.0712,-5.0712,-5.0712,-5.0693,-5.0596,-5.0558,-5.0289,-4.8625,-4.8105,-4.7817,-4.6326,-4.5883,-4.5883,-4.5883,-4.5797,-4.574,-4.574,-4.5663,-4.5594,-4.5594,-4.5594,-4.5594,-4.5594,-4.5594,-4.5594,-4.5594,-4.5594,-4.5594,-4.5594,-4.5594,-4.5594,-4.5594,-4.5518,-4.5074,-4.3991,-4.3072,-4.2105,-4.1035,-4.0194,-3.97,-3.97,-3.8915,-3.8505,-3.8696,-3.7549,-3.6861,-3.6837,-3.6379,-3.6027,-3.579,-3.5858,-3.5887,-3.5929,-3.5979,-3.6021,-3.6019,-3.6019,-3.5132,-2.8024,-2.7674,-2.7715,-2.8922,-2.8895,-2.9185,-3.1577,-3.143,-3.2051,-3.6423,-3.7899,-3.9092,-4.1343,-4.2937,-4.4157,0.0,-4.5364,-4.5594,-4.5594,-4.6028,-4.6355,-4.6355,-4.699,-4.7067,-4.622,-4.5806,-4.5806,-4.6317,-4.7451,-4.8317,-4.8836,-5.0029,-5.0712,-5.0712,-5.0712,-5.0712,-5.0712,-5.0712,-5.0712,-5.0712,-5.0712,-5.0712,-5.0712,-5.0712,-5.0712,-5.0712,-5.0712,-5.0712,-5.0712,-5.0712,-5.0712,-5.0712,-5.0712,-5.0712,-5.0712,-5.0712,-5.0712,-5.0635,-5.0106,-4.9933,-4.974,-4.8509,-4.7778,-4.7278,-4.6567,-4.599,-4.5559,-4.5362,-4.532,-4.526,-4.5059,-4.5011,-4.5024,-4.5026,-4.5023,-4.5008,-4.5025,-4.5167,-4.5298,-4.5298,-4.5467,-4.5594,-4.5594,-4.5594,-4.5594,-4.5594,-4.5594,-4.5361,-4.4654,-4.3808,-4.2655,-4.0979,-4.0083,-3.9608,-3.9602,-3.9262,-3.9119,-3.9258,-3.8346,-3.7722,-3.7573,-3.7012,-3.6584,-3.6319,-3.6305,-3.6305,-3.6291,-3.6291,-3.6302,-3.6305,-3.6288,-3.5913,-2.9297,-2.959,-3.0117,-3.0742,-3.1505,-3.2412,-3.3617,-3.4455,-3.6037,-3.9738,-4.0496,-4.1097,-4.3071,-4.3371,-4.3737,-4.5037,-4.5248,-4.5325,-4.5575,-4.6144,-4.6547,-4.6547,-4.6547,-4.6297,-4.5671,-4.5594,-4.5864,-4.649,-4.7509,-4.8375,-4.9009,-5.0087,-5.0712,-5.0712,-5.0712,-5.0712,-5.0712,-5.0712,-5.0712,-5.0712,-5.0712,-5.0712,-5.0712,-5.0712,-5.0712,-5.0712,-5.0712,-5.0712,-5.0712,-5.0712,-5.0712,-5.0712,-5.0712,-5.0712,-5.0712,-5.0712,-5.0712,-5.0616,-4.9971,-4.976,-4.9606,-4.874,-4.7894,-4.7192,-4.6962,-4.6297,-4.5522,-4.5201,-4.5109,-4.503,-4.4687,-4.461,-4.4604,-4.4587,-4.4594,-4.4611,-4.4612,-4.4789,-4.4955,-4.4955,-4.5164,-4.5313,-4.5313,-4.5313,-4.5313,-4.5313,-4.5313,-4.5241,-4.4991,-4.3857,-4.2411,-4.0723,-3.9823,-3.9342,-3.9337,-3.9359,-3.9373,-3.9457,-3.8796,-3.8365,-3.8236,-3.7602,-3.7161,-3.6963,-3.6963,-3.6952,-3.6964,-3.6964,-3.6963,-3.6962,-3.6963,-3.6963,-2.8554,-2.957,-3.0879,-3.0898,-3.3296,-3.5636,-3.5624,-3.803,-4.0308,-4.0466,-4.0496,-4.0862,-4.2035,-4.2047,-4.2412,-4.4066,-4.4335,-4.4624,-4.5479,-4.5614,-4.5633,-4.5633,-4.5633,-4.5633,0.0,-4.5594,-4.5614,-4.5633,-4.7163,-4.8105,-4.8144,-4.976,-5.0712,-5.0712,-5.0712,-5.0712,-5.0712,-5.0712,-5.0712,-5.0712,-5.0712,-5.0712,-5.0712,-5.0712,-5.0712,-5.0712,-5.0712,-5.0712,-5.0712,-5.0712,-5.0712,-5.0712,-5.0712,-5.0712,-5.0712,-5.0712,-5.0712,-5.0712,-5.0673,-5.0654,-5.0519,-4.9644,-4.8779,-4.7932,-4.7135,-4.6297,-4.5522,-4.5201,-4.5096,-4.5023,-4.4683,-4.4602,-4.4602,-4.4604,-4.4597,-4.4606,-4.4593,-4.4612,-4.4624,-4.4624,-4.4618,-4.4618,-4.4618,-4.4618,-4.4618,-4.4618,-4.4618,-4.4637,-4.4624,-4.2608,-4.0855,-4.0025,-3.9209,-3.8726,-3.8723,-3.8723,-3.8848,-3.9099,-3.8851,-3.8792,-3.9048,-3.8785,-3.8634,-3.8634,-3.8634,-3.8634,-3.8634,-3.8634,-3.8634,-3.8634,-3.8634,-3.8634,-2.9765,-3.1699,-3.3554,-3.4087,-3.6153,-3.8039,-3.7904,-3.9239,-4.0292,-3.9527,-3.9546,-3.9823,-4.0208,-4.065,-4.1489,-4.322,-4.3951,-4.4605,-4.5479,-4.6105,-4.624,-4.5671,-4.6105,0.0,0.0,0.0,0.0,-4.5594,-4.7144,-4.8105,-4.8105,-4.974,-5.0712,-5.0712,-5.0712,-5.0712,-5.0712,-5.0712,-5.0712,-5.0712,-5.0712,-5.0712,-5.0712,-5.0712,-5.0712,-5.0712,-5.0712,-5.0712,-5.0712,-5.0712,-5.0712,-5.0712,-5.0712,-5.0712,-5.0712,-5.0712,-5.0712,-5.0712,-5.0712,-5.0712,-5.0654,-5.0366,-4.9663,-4.8798,-4.7952,-4.6935,-4.588,-4.5005,-4.4574,-4.4294,-4.3961,-4.3862,-4.3873,-4.3886,-4.3878,-4.3868,-4.3868,-4.4031,-4.419,-4.419,-4.4419,-4.4593,-4.4593,-4.4593,-4.4606,-4.4592,-4.4361,-4.4195,-4.4205,-4.2847,-4.1779,-4.1523,-4.0302,-3.9502,-3.9496,-3.9019,-3.875,-3.8829,-3.8747,-3.875,-3.8829,-3.8747,-3.8707,-3.8707,-3.8707,-3.8707,-3.8707,-3.8707,-3.8707,-3.8707,-3.8707,-3.8707,-3.1243,-3.349,-3.5749,-3.6557,-3.8015,-3.9321,-3.9497,-3.9804,-3.9785,-3.8731,-3.845,-3.8277,-3.8007,-3.8354,-3.9469,-4.1797,-4.2604,-4.3662,-4.5759,-4.6278,-4.6336,-4.6086,-4.6278,-4.622,0.0,0.0,0.0,-4.5594,-4.7144,-4.8105,-4.8105,-4.974,-5.0712,-5.0712,-5.0712,-5.0712,-5.0712,-5.0712,-5.0712,-5.0712,-5.0712,-5.0712,-5.0712,-5.0712,-5.0712,-5.0712,-5.0712,-5.0712,-5.0712,-5.0712,-5.0712,-5.0712,-5.0712,-5.0712,-5.0712,-5.0712,-5.0614,-5.0523,-5.0653,-5.0712,-5.0712,-5.0712,-5.0106,-4.924,-4.8355,-4.7357,-4.6252,-4.4947,-4.4401,-4.4106,-4.3612,-4.3515,-4.3515,-4.3515,-4.3515,-4.3515,-4.3515,-4.3679,-4.3836,-4.3836,-4.4035,-4.4213,-4.4213,-4.4213,-4.4214,-4.4218,-4.4002,-4.3856,-4.3978,-4.3005,-4.2293,-4.2301,-4.1132,-4.0201,-3.9918,-3.9423,-3.9019,-3.8726,-3.8707,-3.8707,-3.8707,-3.8707,-3.8707,-3.8707,-3.8707,-3.8707,-3.8707,-3.8707,-3.8707,-3.8707,-3.8707,-3.8707,-3.2819,-3.4895,-3.7381,-3.8151,-3.8874,-3.9576,-4.0273,-3.9772,-3.8911,-3.8046,-3.7142,-3.6269,0.0,0.0,-3.6526,-3.99,-4.0516,-4.2047,-4.6297,-4.6182,-4.597,0.0,0.0,0.0,0.0,0.0,0.0,-4.5671,0.0,-4.8105,-4.8105,-4.974,-5.0712,-5.0712,-5.0712,-5.0712,-5.0712,-5.0712,-5.0712,-5.0712,-5.0712,-5.0712,-5.0712,-5.0712,-5.0712,-5.0712,-5.0712,-5.0712,-5.0712,-5.0712,-5.0712,-5.0712,-5.0712,-5.0712,-5.0712,-5.0712,-5.0462,-5.0159,-5.0544,-5.0673,-5.0673,-5.0673,-5.0115,-4.9298,-4.8432,-4.7596,-4.6618,-4.5085,-4.4617,-4.4406,-4.3679,-4.3515,-4.3515,-4.3515,-4.3515,-4.3515,-4.3515,-4.3515,-4.3515,-4.3515,-4.3515,-4.3515,-4.3515,-4.3515,-4.3515,-4.3515,-4.3515,-4.3625,-4.3938,-4.3026,-4.2366,-4.2361,-4.1631,-4.0861,-4.0084,-3.9937,-3.957,-3.8817,-3.8726,-3.8707,-3.8707,-3.8707,-3.8707,-3.8707,-3.8707,-3.8707,-3.8707,-3.8707,-3.8707,-3.8707,-3.8707,-3.8707,-3.3854,-3.6265,-3.8602,-3.903,-3.9262,-3.9435,-3.9578,-3.8448,-3.7142,-3.6308,-3.493,-3.3814,0.0,0.0,0.0,-3.9053,-4.0642,0.0,-4.6385,-4.6721,0.0,-4.6865,0.0,-4.6317,-4.5671,-4.5594,0.0,0.0,-4.7528,-4.8105,-4.8105,-4.974,-5.0712,-5.0712,-5.0712,-5.0712,-5.0712,-5.0712,-5.0712,-5.0712,-5.0712,-5.0712,-5.0712,-5.0712,-5.0712,-5.0712,-5.0712,-5.0712,-5.0712,-5.0712,-5.0712,-5.0712,-5.0712,-5.0712,-5.0712,-5.0712,-5.0462,-5.0104,-5.0225,-5.0249,-5.0249,-5.0249,-5.0308,-5.0212,-4.9336,-4.8306,-4.7155,-4.5855,-4.4843,-4.4046,-4.3614,-4.3515,-4.3515,-4.3515,-4.3515,-4.3515,-4.3515,-4.3515,-4.3515,-4.3515,-4.3515,-4.3515,-4.3515,-4.3515,-4.3515,-4.3515,-4.3515,-4.3529,-4.3625,-4.3381,-4.3187,-4.3185,-4.2471,-4.1902,-4.1717,-4.0579,-3.9808,-3.9606,-3.9038,-3.8707,-3.8707,-3.8707,-3.8707,-3.8707,-3.8707,-3.8707,-3.8707,-3.8707,-3.8707,-3.8707,-3.8707,-3.8707,-3.5934,-3.8018,-3.9776,-3.9868,-3.9625,-3.9148,-3.8344,-3.6834,-3.5161,-3.3596,-3.2179,-3.1121,-3.0775,-3.1718,0.0,0.0,0.0,0.0,-4.5797,-4.6663,-4.6904,0.0,-4.6904,0.0,-4.5691,-4.5476,-4.5803,0.0,-4.7663,-4.8279,-4.8644,-4.9952,-5.0712,-5.0712,-5.0712,-5.0712,-5.0712,-5.0712,-5.0712,-5.0712,-5.0712,-5.0712,-5.0712,-5.0712,-5.0712,-5.0712,0.0,-5.0712,-5.0712,-5.0712,-5.0712,-5.0712,-5.0712,-5.0712,-5.0673,-5.0493,-5.0183,-4.9813,-4.9631,-4.9575,-4.9603,-4.9773,-4.9987,-5.0042,-4.9343,-4.8537,-4.7562,-4.6188,-4.5185,-4.4355,-4.3672,-4.3515,-4.3515,-4.3515,-4.3515,-4.3515,-4.3515,-4.3515,-4.3515,-4.3515,-4.3515,-4.3515,-4.3515,-4.3515,-4.3515,-4.3515,-4.3515,-4.3515,-4.3515,-4.3515,-4.3515,-4.3515,-4.3094,-4.2671,-4.2323,-4.146,-4.0799,-4.0451,-4.001,-3.9753,-3.9753,-3.9405,-3.9239,-3.9239,-3.8891,-3.8707,-3.8707,-3.8707,-3.8707,-3.8707,-3.8707,-3.8707,-3.8248,-3.9661,-4.0606,-4.0342,-3.9611,-3.8488,-3.6757,-3.4988,-3.3045,-3.0712,-2.9448,-2.8626,-2.8145,-2.9256,-3.1423,-3.5077,0.0,-4.065,-4.4998,-4.6144,-4.6644,-4.6865,-4.6797,-4.6432,-4.5671,-4.5302,-4.5623,-4.6877,-4.7578,-4.8346,-4.9259,-5.0104,-5.0565,-5.0614,-5.0673,-5.0712,-5.0712,-5.0712,-5.0712,-5.0712,-5.0712,-5.0712,-5.0712,-5.0712,-5.0712,-5.0712,0.0,0.0,-5.0712,-5.0712,-5.0712,-5.0712,-5.0712,-5.0673,-5.0584,-5.0237,-4.9813,-4.9371,-4.9011,-4.8863,-4.888,-4.9295,-4.946,-4.9429,-4.9024,-4.8566,-4.7872,-4.6331,-4.5554,-4.4931,-4.3801,-4.3515,-4.3515,-4.3515,-4.3515,-4.3515,-4.3515,-4.3515,-4.3515,-4.3515,-4.3515,-4.3515,-4.3515,-4.3515,-4.3515,-4.3515,-4.3515,-4.3515,-4.3515,-4.3515,-4.3515,-4.3515,-4.3515,-4.3222,-4.2525,-4.2359,-4.2011,-4.1297,-4.115,-4.1095,-4.1095,-4.0432,-4.0065,-4.0065,-3.9368,-3.9019,-3.9019,-3.9019,-3.9019,-3.9019,-3.9019,-3.9016,-3.8913,-3.9797,-4.0295,-3.9333,-3.8115,-3.6719,-3.5026,-3.2776,0.0,-2.9563,-2.8102,-2.7409,-2.8665,-2.9127,-3.0891,-3.5712,-3.7469,-3.995,-4.4902,-4.5105,-4.5297,0.0,-4.6259,-4.5768,-4.5614,0.0,0.0,0.0,0.0,-4.7694,-4.8835,-4.941,-4.9853,-5.0183,-5.0534,-5.0712,-5.0712,-5.0712,-5.0712,-5.0712,-5.0712,-5.0712,-5.0712,-5.0712,-5.0712,-5.0712,-5.0712,0.0,-5.0712,-5.0712,-5.0712,-5.0712,-5.0712,-5.0493,-5.0214,-5.0135,-4.9631,-4.8978,-4.893,-4.8675,-4.8477,-4.8863,-4.9234,-4.9485,-4.9405,-4.8829,-4.7961,-4.6727,-4.5811,-4.4931,-4.3801,-4.3515,-4.3515,-4.3515,-4.3515,-4.3515,-4.3515,-4.3515,-4.3515,-4.3515,-4.3515,-4.3515,-4.3515,-4.3515,-4.3515,-4.3515,-4.3515,-4.3515,-4.3515,-4.3515,-4.3515,-4.3515,-4.3515,-4.3441,-4.3313,-4.2671,-4.2249,-4.2103,-4.1462,-4.1095,-4.1095,-4.0967,-4.0875,-4.0875,-4.0747,-4.0673,-4.0673,-4.0673,-4.0687,-4.068,-4.068,-4.0688,-3.9707,-4.0367,-4.0159,-3.874,-3.7531,-3.6019,-3.3487,0.0,0.0,-2.7486,-2.6481,-2.6173,-2.6967,-2.7852,0.0,-3.2885,-3.4872,-3.7642,-4.2285,-4.3374,0.0,-4.6028,-4.6071,-4.587,0.0,0.0,0.0,0.0,0.0,-4.7532,-4.937,-4.9895,-5.0123,-5.0092,-5.0493,-5.0712,-5.0712,-5.0712,-5.0712,-5.0712,-5.0712,-5.0712,-5.0683,-5.0483,-5.0493,-5.0683,-5.0483,0.0,-5.0712,-5.0712,-5.0712,-5.0712,-5.0712,-5.0442,-5.0068,-4.9853,-4.9416,-4.8863,-4.8657,-4.8477,-4.8326,-4.8532,-4.8728,-4.8913,-4.9123,-4.8747,-4.8083,-4.7348,-4.6366,-4.5337,-4.4376,-4.3809,-4.3515,-4.3515,-4.3515,-4.3515,-4.3515,-4.3515,-4.3515,-4.3515,-4.3515,-4.3515,-4.3515,-4.3515,-4.3515,-4.3515,-4.3515,-4.3515,-4.3515,-4.3515,-4.3515,-4.3515,-4.3515,-4.3515,-4.3515,-4.3149,-4.291,-4.291,-4.2561,-4.2359,-4.2359,-4.1954,-4.1717,-4.1724,-4.1317,-4.1113,-4.1099,-4.1113,-4.1091,-4.1101,-4.1105,-4.1103,-4.0193,-4.082,-4.0062,-3.8271,-3.712,-3.5558,-3.2192,-3.0083,-2.8165,-2.5788,-2.5308,-2.5365,-2.5538,-2.6697,-2.8294,0.0,-3.2506,-3.5398,-3.965,-4.172,-4.3431,0.0,-4.5802,0.0,0.0,0.0,0.0,0.0,0.0,0.0,-4.986,-5.0272,-5.0336,-5.0104,-5.041,-5.0614,-5.0712,-5.0712,-5.0712,-5.0712,-5.0712,-5.0712,-5.0683,-5.0272,-5.0272,-5.0554,-5.0237,0.0,0.0,-5.0565,-5.0614,-5.0683,-5.0504,-5.0249,-4.9924,-4.9518,-4.9108,-4.8728,-4.8402,-4.8306,-4.8306,-4.8306,-4.8306,-4.8364,-4.8675,-4.855,-4.8198,-4.771,-4.6758,-4.5718,-4.4911,-4.4103,-4.3515,-4.3515,-4.3515,-4.3515,-4.3515,-4.3515,-4.3515,-4.3515,-4.3515,-4.3515,-4.3515,-4.3515,-4.3515,-4.3515,-4.3515,-4.3515,-4.3515,-4.3515,-4.3515,-4.3515,-4.3515,-4.3515,-4.3515,-4.3515,-4.3515,-4.3515,-4.3515,-4.3515,-4.3515,-4.2889,-4.2561,-4.2551,-4.1941,-4.1609,-4.1595,-4.1609,-4.1605,-4.1618,-4.1605,-4.1625,-3.9983,-4.0715,-3.9984,-3.7815,-3.6435,-3.4712,-3.1308,0.0,-2.7486,-2.5673,-2.5308,-2.5538,-2.6327,-2.6621,0.0,0.0,-3.2391,-3.4526,-3.8803,-4.0854,-4.2547,-4.422,0.0,0.0,0.0,0.0,0.0,0.0,0.0,0.0,-4.9509,-4.9575,-4.976,-5.008,-5.0147,-5.0336,-5.0702,-5.0712,-5.0712,-5.0712,-5.0712,-5.0712,-5.0683,-5.0272,-5.0123,-5.0159,-5.0123,0.0,0.0,-5.0159,-5.0358,-5.0624,-4.9898,-4.9594,-4.9504,-4.9092,-4.871,-4.8345,-4.8325,-4.8306,-4.8306,-4.8306,-4.8306,-4.8306,-4.8345,-4.8344,-4.8141,-4.7371,-4.6563,-4.5718,-4.4911,-4.4103,-4.3515,-4.3515,-4.3515,-4.3515,-4.3515,-4.3515,-4.3515,-4.3515,-4.3515,-4.3515,-4.3515,-4.3515,-4.3515,-4.3515,-4.3515,-4.3515,-4.3515,-4.3515,-4.3515,-4.3515,-4.3515,-4.3515,-4.3515,-4.3515,-4.3515,-4.3515,-4.3515,-4.3515,-4.3515,-4.3423,-4.3404,-4.3387,-4.3314,-4.3277,-4.3277,-4.3277,-4.3294,-4.3276,-4.3294,-4.3277,-3.8702,-3.8963,-3.8197,-3.6575,-3.5435,-3.3968,-3.1058,-2.9102,-2.7409,-2.5654,-2.5308,-2.5404,-2.575,-2.5827,-2.6423,-2.8313,-2.8909,-3.0583,-3.4853,-3.6469,-3.8604,-4.2354,0.0,0.0,0.0,0.0,0.0,0.0,0.0,0.0,-4.9099,-4.9825,-5.0183,-5.0092,-5.0336,-5.0544,-5.0712,-5.0712,-5.0712,-5.0712,-5.0712,-5.0565,-5.0325,-4.9924,-4.9746,-4.9746,-4.9746,0.0,0.0,-5.0092,-5.0195,-5.0272,-4.9719,-4.9356,-4.9123,-4.8963,-4.8639,-4.8306,-4.8306,-4.8306,-4.8306,-4.8306,-4.8306,-4.8306,-4.8306,-4.8306,-4.8233,-4.7901,-4.6893,-4.5828,-4.5516,-4.447,-4.3515,-4.3515,-4.3515,-4.3515,-4.3515,-4.3515,-4.3515,-4.3515,-4.3515,-4.3515,-4.3515,-4.3515,-4.3515,-4.3515,-4.3515,-4.3515,-4.3515,-4.3515,-4.3515,-4.3515,-4.3515,-4.3515,-4.3515,-4.3515,-4.3515,-4.3515,-4.3515,-4.3515,-4.3515,-4.3515,-4.3515,-4.3515,-4.3515,-4.3515,-4.3515,-4.3515,-4.3515,-4.3515,-4.3515,-4.3515,-3.6624,-3.6944,-3.656,-3.5714,-3.4647,-3.3141,-3.0602,-2.8717,-2.7082,-2.5615,-2.5308,-2.5308,-2.5308,-2.5308,-2.5596,-2.6467,-2.7024,-2.864,-3.2372,-3.4083,-3.6449,0.0,0.0,0.0,0.0,0.0,0.0,0.0,0.0,0.0,0.0,-4.9264,-4.9944,-5.0272,-5.0432,-5.0575,-5.0712,-5.0712,-5.0712,-5.0712,-5.0575,-5.0369,-5.008,-4.9561,-4.9326,-4.9326,0.0,0.0,0.0,-4.98,-4.9898,-5.0043,-4.9401,-4.9027,-4.888,-4.8761,-4.8532,-4.8306,-4.8306,-4.8306,-4.8306,-4.8306,-4.8306,-4.8306,-4.8306,-4.8306,-4.8306,-4.8306,-4.7315,-4.6159,-4.5681,-4.4709,-4.3791,-4.357,-4.3515,-4.3515,-4.3515,-4.3515,-4.3515,-4.3515,-4.3515,-4.3515,-4.3515,-4.3515,-4.3515,-4.3515,-4.3515,-4.3515,-4.3515,-4.3515,-4.3515,-4.3515,-4.3515,-4.3515,-4.3515,-4.3515,-4.3515,-4.3515,-4.3515,-4.3515,-4.3515,-4.3515,-4.3515,-4.3515,-4.3515,-4.3515,-4.3515,-4.3515,-4.3515,-4.3515,-4.3515,-4.3515,-3.3664,-3.4913,-3.5516,-3.5509,-3.4192,-3.2256,-2.9684,-2.7813,-2.6365,-2.5481,-2.5308,-2.5308,-2.5308,-2.5308,-2.5596,-2.6467,-2.7986,-2.9973,-3.2545,-3.5084,0.0,0.0,0.0,0.0,0.0,0.0,0.0,0.0,0.0,0.0,0.0,-4.7414,-4.8564,-5.0625,-5.0325,-5.0302,-5.0702,-5.0712,-5.0712,-5.0702,-5.0302,-5.0092,-5.0068,-4.9261,-4.8913,0.0,0.0,0.0,0.0,-4.9075,-4.9367,-4.9974,-4.8779,-4.855,-4.8846,-4.8458,-4.8306,-4.8306,-4.8306,-4.8306,-4.8306,-4.8306,-4.8306,-4.8306,-4.8306,-4.8306,-4.8306,-4.8306,-4.77,-4.6727,-4.5131,-4.4691,-4.4488,-4.3681,-4.3515,-4.3515,-4.3515,-4.3515,-4.3515,-4.3515,-4.3515,-4.3515,-4.3515,-4.3515,-4.3515,-4.3515,-4.3515,-4.3515,-4.3515,-4.3515,-4.3515,-4.3515,-4.3515,-4.3515,-4.3515,-4.3515,-4.3515,-4.3515,-4.3515,-4.3515,-4.3515,-4.3515,-4.3515,-4.3515,-4.3515,-4.3515,-4.3515,-4.3515,-4.3515,-4.3515,-4.3515,-4.3515,-3.0453,-3.1437,-3.2072,-3.2023,-3.116,-2.9954,-2.8588,-2.7409,-2.6346,-2.5481,-2.5308,-2.5308,-2.5308,-2.5308,-2.5788,-2.7255,-2.7934,-2.9165,0.0,0.0,0.0,0.0,0.0,0.0,0.0,0.0,0.0,0.0,0.0,0.0,0.0,-4.6711,-4.8012,-4.9769,-4.97,-4.9969,-5.0693,-5.0712,-5.0554,-5.0283,-5.0159,-4.9813,-4.9261,-4.9011,0.0,0.0,0.0,0.0,0.0,-4.8963,-4.9043,-4.9199,-4.8568,-4.8383,-4.8458,-4.8345,-4.8306,-4.8306,-4.8306,-4.8306,-4.8306,-4.8306,-4.8306,-4.8306,-4.8306,-4.8306,-4.8196,-4.7626,-4.7296,-4.6727,-4.5113,-4.4691,-4.4507,-4.3681,-4.3515,-4.3515,-4.3515,-4.3515,-4.3515,-4.3515,-4.3515,-4.3515,-4.3515,-4.3515,-4.3515,-4.3515,-4.3515,-4.3515,-4.3515,-4.3515,-4.3515,-4.3515,-4.3515,-4.3515,-4.3515,-4.3515,-4.3515,-4.3515,-4.3515,-4.3515,-4.3515,-4.3515,-4.3515,-4.3515,-4.3515,-4.3515,-4.3515,-4.3515,-4.3515,-4.3515,-4.3515,-4.3515,-2.8394,-2.9322,-2.9965,-2.9919,-2.9275,-2.8434,-2.7601,-2.6736,-2.5962,-2.5404,-2.5308,-2.5308,-2.5308,-2.5308,-2.5654,-2.6736,-2.7467,0.0,0.0,0.0,0.0,0.0,0.0,0.0,0.0,0.0,0.0,0.0,0.0,0.0,0.0,-4.5632,-4.6758,-4.819,-4.8673,-4.9163,-4.9702,-4.9891,-4.9715,-4.917,-4.9174,-4.8761,-4.8,-4.7834,0.0,0.0,0.0,0.0,0.0,-4.8745,-4.8761,-4.8863,-4.8458,-4.8306,-4.8306,-4.8306,-4.8306,-4.8306,-4.8306,-4.8306,-4.8306,-4.8306,-4.8306,-4.8306,-4.8306,-4.8306,-4.8214,-4.7681,-4.7553,-4.7168,-4.5571,-4.5149,-4.4874,-4.3772,-4.3515,-4.3515,-4.3515,-4.3515,-4.3515,-4.3515,-4.3515,-4.3515,-4.3515,-4.3515,-4.3515,-4.3515,-4.3515,-4.3515,-4.3515,-4.3515,-4.3515,-4.3515,-4.3515,-4.3515,-4.3515,-4.3515,-4.3515,-4.3515,-4.3515,-4.3515,-4.3515,-4.3515,-4.3515,-4.3515,-4.3515,-4.3515,-4.3515,-4.3515,-4.3515,-4.3515,-4.3515,-4.3515,0.0,-2.8165,-2.8838,-2.8838,-2.828,-2.7505,-2.6697,-2.5885,0.0,-2.5308,-2.5308,-2.5327,-2.5385,-2.5346,-2.5365,-2.5538,-2.6986,0.0,0.0,0.0,0.0,0.0,0.0,0.0,0.0,0.0,0.0,0.0,0.0,0.0,0.0,-4.4332,-4.506,-4.6142,-4.7298,-4.7952,-4.8105,-4.8512,-4.8326,-4.7564,-4.7604,-4.7201,-4.644,-4.6061,0.0,0.0,0.0,0.0,0.0,-4.8366,-4.8458,-4.883,-4.8458,-4.8306,-4.8306,-4.8306,-4.8306,-4.8306,-4.8306,-4.8306,-4.8306,-4.8306,-4.8306,-4.8306,-4.8306,-4.8306,-4.8306,-4.8306,-4.825,-4.7865,-4.6305,-4.5847,-4.5424,-4.3882,-4.3515,-4.3515,-4.3515,-4.3515,-4.3515,-4.3515,-4.3515,-4.3515,-4.3515,-4.3515,-4.3515,-4.3515,-4.3515,-4.3515,-4.3515,-4.3515,-4.3515,-4.3515,-4.3515,-4.3515,-4.3515,-4.3515,-4.3515,-4.3515,-4.3515,-4.3515,-4.3515,-4.3515,-4.3515,-4.3515,-4.3515,-4.3515,-4.3515,-4.3515,-4.3515,-4.3515,-4.3515,-4.3515,-2.3894,0.0,-2.6192,-2.6192,-2.6058,-2.5865,0.0,-2.5442,-2.5308,-2.5308,-2.5308,-2.55,-2.6173,-2.575,-2.5942,-2.789,0.0,0.0,0.0,0.0,0.0,0.0,0.0,0.0,0.0,0.0,0.0,0.0,0.0,0.0,0.0,-4.3958,-4.4393,-4.4991,-4.5529,-4.6549,-4.8077,-4.796,-4.7622,-4.7148,-4.6889,-4.6515,-4.6044,-4.5938,0.0,0.0,0.0,0.0,-4.7519,-4.7426,-4.7794,-4.8439,-4.8344,-4.8306,-4.8306,-4.8306,-4.8306,-4.8306,-4.8306,-4.8306,-4.8306,-4.8306,-4.8306,-4.8306,-4.8306,-4.8306,-4.8306,-4.8306,-4.7863,-4.7145,-4.6155,-4.5443,-4.4729,-4.3754,-4.3515,-4.3515,-4.3515,-4.3515,-4.3515,-4.3515,-4.3515,-4.3515,-4.3515,-4.3515,-4.3515,-4.3515,-4.3515,-4.3515,-4.3515,-4.3515,-4.3515,-4.3515,-4.3515,-4.3515,-4.3515,-4.3515,-4.3515,-4.3515,-4.3515,-4.3515,-4.3515,-4.3515,-4.3515,-4.3515,-4.3515,-4.3515,-4.3515,-4.3515,-4.3515,-4.3515,-4.3515,-4.3515,-2.2797,-2.3755,-2.4755,-2.4755,-2.5019,-2.5308,-2.5308,-2.5308,-2.5308,-2.5308,-2.5308,-2.5422,-2.5811,-2.5887,-2.6446,0.0,-2.9523,0.0,0.0,0.0,0.0,0.0,0.0,0.0,0.0,0.0,0.0,0.0,0.0,0.0,0.0,-4.382,-4.4087,-4.4304,-4.4682,-4.5546,-4.6951,-4.6835,-4.6474,-4.59,-4.5746,-4.5357,-4.48,-4.48,-4.5002,0.0,0.0,0.0,-4.6543,-4.6543,-4.68,-4.7203,-4.7201,-4.7423,-4.7756,-4.7735,-4.7992,-4.8306,-4.8306,-4.8306,-4.8306,-4.8306,-4.8306,-4.8306,-4.8306,-4.8306,-4.8213,-4.7845,-4.7439,-4.6814,-4.5661,-4.5022,-4.451,-4.3682,-4.3515,-4.3515,-4.3515,-4.3515,-4.3515,-4.3515,-4.3515,-4.3515,-4.3515,-4.3515,-4.3515,-4.3515,-4.3515,-4.3515,-4.3515,-4.3515,-4.3515,-4.3515,-4.3515,-4.3515,-4.3515,-4.3515,-4.3515,-4.3515,-4.3515,-4.3515,-4.3515,-4.3515,-4.3515,-4.3515,-4.3515,-4.3515,-4.3515,-4.3515,-4.3515,-4.3515,-4.3515,-4.3515,-2.2566,-2.3336,-2.411,-2.411,-2.4697,-2.5308,-2.5308,-2.5308,-2.5284,-2.5264,-2.5274,-2.532,-2.5323,-2.6148,0.0,0.0,0.0,0.0,0.0,0.0,0.0,0.0,0.0,0.0,0.0,0.0,0.0,0.0,0.0,0.0,0.0,-4.3756,-4.394,-4.4001,-4.4318,-4.4818,-4.5438,-4.5495,-4.5184,-4.4519,-4.451,-4.4158,-4.3515,-4.3515,-4.3864,0.0,0.0,0.0,-4.5718,-4.5718,-4.5773,-4.5901,-4.5899,-4.6396,-4.7095,-4.711,-4.7605,-4.8306,-4.8306,-4.8306,-4.8306,-4.8306,-4.8306,-4.8306,-4.8306,-4.8306,-4.814,-4.7329,-4.7091,-4.6763,-4.5279,-4.4784,-4.4509,-4.3699,-4.3515,-4.3515,-4.3515,-4.3515,-4.3515,-4.3515,-4.3515,-4.3515,-4.3515,-4.3515,-4.3515,-4.3515,-4.3515,-4.3515,-4.3515,-4.3515,-4.3515,-4.3515,-4.3515,-4.3515,-4.3515,-4.3515,-4.3515,-4.3515,-4.3515,-4.3515,-4.3515,-4.3515,-4.3515,-4.3515,-4.3515,-4.3515,-4.3515,-4.3515,-4.3515,-4.3515,-4.3515,-4.3515,-2.1504,-2.2874,-2.411,-2.411,-2.4697,-2.5308,-2.5308,-2.5308,-2.5259,-2.5088,-2.5173,-2.5628,-2.6668,-2.7313,-2.8299,0.0,0.0,0.0,0.0,0.0,0.0,0.0,0.0,0.0,0.0,0.0,0.0,0.0,0.0,0.0,0.0,0.0,-4.371,-4.4001,-4.4058,-4.4304,-4.4745,-4.4435,-4.4218,-4.4106,-4.3806,-4.3608,-4.3515,-4.3515,-4.357,0.0,0.0,-4.4141,-4.4893,-4.489,-4.5276,-4.5902,-4.5902,-4.6379,-4.7114,-4.7111,-4.7605,-4.8306,-4.8306,-4.8306,-4.8306,-4.8306,-4.8306,-4.8306,-4.8306,-4.8306,-4.814,-4.7329,-4.7095,-4.6905,-4.5967,-4.5198,-4.4503,-4.3697,-4.3515,-4.3515,-4.3515,-4.3515,-4.3515,-4.3515,-4.3515,-4.3515,-4.3515,-4.3515,-4.3515,-4.3515,-4.3515,-4.3515,-4.3515,-4.3515,-4.3515,-4.3515,-4.3515,-4.3515,-4.3515,-4.3515,-4.3515,-4.3515,-4.3515,-4.3515,-4.3515,-4.3515,-4.3515,-4.3515,-4.3515,-4.3515,-4.3515,-4.3515,-4.3515,-4.3515,-4.3515,-4.3515,-2.075,-2.21,-2.3394,-2.3394,-2.5063,-2.6582,-2.6115,-2.6244,-2.6494,-2.6562,-2.6525,-2.6619,-2.71,0.0,-3.0018,-3.3052,0.0,0.0,0.0,0.0,0.0,0.0,0.0,0.0,0.0,0.0,0.0,0.0,0.0,0.0,0.0,0.0,-4.3563,-4.3726,-4.3726,-4.382,-4.3989,-4.382,-4.3836,-4.4001,-4.3662,-4.3515,-4.3515,-4.3515,-4.3515,-4.3515,0.0,-4.3699,-4.4066,-4.4045,-4.4266,-4.4599,-4.4599,-4.5092,-4.5917,-4.6781,-4.7605,-4.8306,-4.8306,-4.8306,-4.8306,-4.8306,-4.8306,-4.8306,-4.8306,-4.8306,-4.8213,-4.7845,-4.7444,-4.682,-4.5572,-4.4965,-4.45,-4.3697,-4.3515,-4.3515,-4.3515,-4.3515,-4.3515,-4.3515,-4.3515,-4.3515,-4.3515,-4.3515,-4.3515,-4.3515,-4.3515,-4.3515,-4.3515,-4.3515,-4.3515,-4.3515,-4.3515,-4.3515,-4.3515,-4.3515,-4.3515,-4.3515,-4.3515,-4.3515,-4.3515,-4.3515,-4.3515,-4.3515,-4.3515,-4.3515,-4.3515,-4.3515,-4.3515,-4.3515,-4.3515,-4.3515,-2.0827,-2.1966,-2.3105,-2.3105,-2.5221,-2.7206,-2.6875,-2.7166,-2.7636,-2.8134,-2.8098,-2.7964,-2.7899,-2.9681,0.0,-3.5732,0.0,0.0,0.0,0.0,0.0,0.0,0.0,0.0,0.0,0.0,0.0,0.0,0.0,0.0,0.0,0.0,-4.3515,-4.3515,-4.3515,-4.3515,-4.3515,-4.3515,-4.3629,-4.3881,-4.3612,-4.3515,-4.3515,-4.3515,-4.3515,-4.3515,-4.3515,-4.3515,-4.3515,-4.3515,-4.3515,-4.3515,-4.3515,-4.3989,-4.4887,-4.6506,-4.7495,-4.8047,-4.8232,-4.8306,-4.8306,-4.8306,-4.8306,-4.8306,-4.8306,-4.8306,-4.8306,-4.8306,-4.7863,-4.7053,-4.5639,-4.5114,-4.4774,-4.397,-4.3642,-4.3515,-4.3515,-4.3515,-4.3515,-4.3515,-4.3515,-4.3515,-4.3515,-4.3515,-4.3515,-4.3515,-4.3515,-4.3515,-4.3515,-4.3515,-4.3515,-4.3515,-4.3515,-4.3515,-4.3515,-4.3515,-4.3515,-4.3515,-4.3515,-4.3515,-4.3515,-4.3515,-4.3515,-4.3515,-4.3515,-4.3515,-4.3515,-4.3515,-4.3515,-4.3515,-4.3515,-4.3515,-2.2393,-2.3297,-2.4014,-2.4014,-2.4755,-2.5819,-2.7134,-2.7461,-2.7828,-2.8951,-2.9326,-2.9551,-2.992,-3.2531,0.0,0.0,0.0,0.0,0.0,0.0,0.0,0.0,0.0,0.0,0.0,0.0,0.0,0.0,0.0,0.0,0.0,0.0,0.0,-4.3515,-4.3515,-4.3515,-4.3515,-4.3515,-4.3513,-4.3531,-4.3496,-4.3515,-4.3515,-4.3515,-4.3515,-4.3515,-4.3515,-4.3515,-4.3515,-4.3515,-4.3515,-4.3515,-4.3515,-4.3989,-4.4887,-4.6506,-4.7126,-4.7274,-4.8047,-4.8306,-4.8306,-4.8306,-4.8306,-4.8306,-4.8306,-4.8306,-4.8306,-4.8306,-4.825,-4.8029,-4.7145,-4.636,-4.5598,-4.4793,-4.4044,-4.3515,-4.3515,-4.3515,-4.3515,-4.3515,-4.3515,-4.3515,-4.3515,-4.3515,-4.3515,-4.3515,-4.3515,-4.3515,-4.3515,-4.3515,-4.3515,-4.3515,-4.3515,-4.3515,-4.3515,-4.3515,-4.3515,-4.3515,-4.3515,-4.3515,-4.3515,-4.3515,-4.3515,-4.3515,-4.3515,-4.3515,-4.3515,-4.3515,-4.3515,-4.3515,-4.3515,-4.3515,-2.1908,-2.3028,-2.3975,-2.3432,-2.5125,-2.7149,-2.8048,-2.8965,-3.0025,-3.1493,-3.2158,-3.2516,-3.2666,0.0,0.0,0.0,0.0,0.0,0.0,0.0,0.0,0.0,0.0,0.0,0.0,0.0,0.0,0.0,0.0,0.0,0.0,0.0,0.0,-4.3515,-4.3515,-4.3515,-4.3515,-4.3515,-4.3515,-4.3515,-4.3515,-4.3515,-4.3515,-4.3515,-4.3515,-4.3515,-4.3515,-4.3515,-4.3515,-4.3515,-4.3515,-4.3515,-4.3515,-4.3989,-4.4775,-4.5386,-4.625,-4.7126,-4.7439,-4.7882,-4.8306,-4.8306,-4.8306,-4.8306,-4.8306,-4.8306,-4.8306,-4.8306,-4.8306,-4.8102,-4.7311,-4.6505,-4.57,-4.4888,-4.4098,-4.3515,-4.3515,-4.3515,-4.3515,-4.3515,-4.3515,-4.3515,-4.3515,-4.3515,-4.3515,-4.3515,-4.3515,-4.3515,-4.3515,-4.3515,-4.3515,-4.3515,-4.3515,-4.3515,-4.3515,-4.3515,-4.3515,-4.3515,-4.3515,-4.3515,-4.3515,-4.3515,-4.3515,-4.3515,-4.3515,-4.3515,-4.3515,-4.3515,-4.3515,-4.3515,-4.3515,-4.3515,-2.1985,-2.299,-2.4014,-2.3678,-2.5755,-2.8155,-2.9167,-3.0373,-3.1806,-3.3612,-3.4237,-3.4531,-3.4808,0.0,0.0,0.0,0.0,0.0,0.0,0.0,0.0,0.0,0.0,0.0,0.0,0.0,0.0,0.0,0.0,0.0,0.0,0.0,0.0,0.0,-4.3515,-4.3515,-4.3515,-4.3515,-4.3515,-4.3515,-4.3515,-4.3515,-4.3515,-4.3515,-4.3515,-4.3515,-4.3515,-4.3515,-4.3515,-4.3515,-4.3515,-4.3515,-4.3515,-4.3843,-4.4354,-4.461,-4.5404,-4.6415,-4.6907,-4.7457,-4.7974,-4.8213,-4.8306,-4.8306,-4.8306,-4.8306,-4.8306,-4.8306,-4.8306,-4.8102,-4.7311,-4.6501,-4.5771,-4.5218,-4.4281,-4.3515,-4.3515,-4.3515,-4.3515,-4.3515,-4.3515,-4.3515,-4.3515,-4.3515,-4.3515,-4.3515,-4.3515,-4.3515,-4.3515,-4.3515,-4.3515,-4.3515,-4.3515,-4.3515,-4.3515,-4.3515,-4.3515,-4.3515,-4.3515,-4.3515,-4.3515,-4.3515,-4.3515,-4.3515,-4.3515,-4.3515,-4.3515,-4.3515,-4.3515,-4.3515,-4.3515,-4.3515,-2.3028,-2.3432,-2.4298,-2.5096,-2.6615,-2.8446,-3.0447,-3.1534,-3.2768,-3.5055,-3.5262,-3.5298,-3.6156,-3.6303,0.0,0.0,0.0,0.0,0.0,0.0,0.0,0.0,0.0,0.0,0.0,0.0,0.0,0.0,0.0,0.0,0.0,0.0,0.0,0.0,-4.3515,-4.3515,-4.3515,-4.3515,-4.3515,-4.3515,-4.3515,-4.3515,-4.3515,-4.3515,-4.3515,-4.3515,-4.3515,-4.3515,-4.3515,-4.3515,-4.3515,-4.3515,-4.3515,-4.3515,-4.3588,-4.439,-4.4683,-4.4924,-4.6525,-4.7071,-4.7219,-4.8011,-4.8288,-4.8288,-4.8288,-4.8288,-4.8306,-4.8288,-4.8288,-4.8084,-4.7292,-4.6483,-4.59,-4.5896,-4.4665,-4.3515,-4.3515,-4.3515,-4.3515,-4.3515,-4.3515,-4.3515,-4.3515,-4.3515,-4.3515,-4.3515,-4.3515,-4.3515,-4.3515,-4.3515,-4.3515,-4.3515,-4.3515,-4.3515,-4.3515,-4.3515,-4.3496,-4.3496,-4.3496,-4.3496,-4.3515,-4.3515,-4.3515,-4.3515,-4.3515,-4.3515,-4.3496,-4.3515,-4.3496,-4.3479,-4.3496,-4.3515,-2.2874,-2.3432,-2.4298,-2.5096,-2.7361,-2.9684,-3.0915,-3.2524,-3.4532,-3.7202,-3.722,-3.6835,-3.7107,0.0,0.0,0.0,0.0,0.0,0.0,0.0,0.0,0.0,0.0,0.0,0.0,0.0,0.0,0.0,0.0,0.0,0.0,0.0,0.0,0.0,-4.3515,-4.3515,-4.3515,-4.3515,-4.3515,-4.3515,-4.3515,-4.3515,-4.3515,-4.3515,-4.3515,-4.3515,-4.3515,-4.3515,-4.3515,-4.3515,-4.3515,-4.3515,-4.3515,-4.3515,-4.3533,-4.3771,-4.4208,-4.4775,-4.5257,-4.5789,-4.6303,-4.6541,-4.6617,-4.6617,-4.6617,-4.7002,-4.733,-4.6764,-4.702,-4.7274,-4.6464,-4.5663,-4.5056,-4.505,-4.4262,-4.3515,-4.3515,-4.3515,-4.3515,-4.3515,-4.3515,-4.3515,-4.3515,-4.3515,-4.3515,-4.3515,-4.3515,-4.3515,-4.3515,-4.3515,-4.3515,-4.3515,-4.3515,-4.3515,-4.3515,-4.3151,-4.295,-4.295,-4.295,-4.3114,-4.3479,-4.3515,-4.3515,-4.3515,-4.3515,-4.3297,-4.295,-4.3315,-4.3096,-4.2315,-4.3133,-4.3297,-2.322,-2.4182,-2.5375,-2.6524,-2.8765,-3.1107,-3.2741,-3.4295,-3.6018,-3.8243,-3.8046,-3.7603,-3.7933,0.0,0.0,0.0,0.0,0.0,0.0,0.0,0.0,0.0,0.0,0.0,0.0,0.0,0.0,0.0,0.0,0.0,0.0,0.0,0.0,0.0,-4.3515,-4.3515,-4.3515,-4.3515,-4.3515,-4.3515,-4.3515,-4.3515,-4.3515,-4.3515,-4.3515,-4.3515,-4.3515,-4.3515,-4.3515,-4.3515,-4.3515,-4.3515,-4.3515,-4.3515,-4.3515,-4.3515,-4.3806,-4.4281,-4.4591,-4.5032,-4.5474,-4.5804,-4.59,-4.5902,-4.5902,-4.625,-4.6525,-4.603,-4.625,-4.6432,-4.564,-4.5059,-4.4701,-4.4701,-4.4098,-4.3515,-4.3515,-4.3515,-4.3515,-4.3515,-4.3515,-4.3515,-4.3515,-4.3515,-4.3515,-4.3515,-4.3515,-4.3515,-4.3515,-4.3515,-4.3515,-4.3515,-4.3515,-4.3515,-4.3515,-4.3005,-4.2705,-4.2701,-4.2476,-4.249,-4.2807,-4.326,-4.3406,-4.3188,-4.3387,-4.3242,-4.2696,-4.3019,-4.2839,-4.2171,-4.2854,-4.3132,-2.3744,-2.5202,-2.6909,-2.8665,-3.0482,-3.2556,-3.5205,-3.6196,-3.6936,-3.8309,0.0,-3.7841,-3.8579,0.0,0.0,0.0,0.0,0.0,0.0,0.0,0.0,0.0,0.0,0.0,0.0,0.0,0.0,0.0,0.0,0.0,0.0,0.0,0.0,0.0,-4.3515,-4.3513,-4.3548,-4.3513,-4.3513,0.0,-4.3513,-4.3515,-4.3515,-4.3515,-4.3515,-4.3515,-4.3515,-4.3515,-4.3515,-4.3515,-4.3515,-4.3515,-4.3515,-4.3515,-4.3515,-4.3515,-4.3515,-4.3588,-4.4336,-4.4578,-4.4709,-4.5442,-4.568,-4.5681,-4.5681,-4.5736,-4.5773,-4.57,-4.5737,-4.5608,-4.48,-4.4583,-4.4591,-4.4591,-4.4026,-4.3515,-4.3515,-4.3515,-4.3515,-4.3515,-4.3515,-4.3515,-4.3515,-4.3515,-4.3515,-4.3515,-4.3515,-4.3515,-4.3515,-4.3515,-4.3515,-4.3515,-4.3515,-4.3479,-4.3424,-4.2932,-4.2578,-4.2538,-4.2013,-4.1713,-4.1651,-4.2777,-4.3194,-4.2714,-4.3242,-4.3223,-4.2606,-4.2668,-4.2622,-4.2468,-4.2567,-4.2886,-2.2836,-2.4293,-2.6154,-2.8511,-3.1073,-3.341,-3.4859,-3.5279,-3.5818,-3.7434,-3.812,0.0,0.0,0.0,0.0,0.0,0.0,0.0,0.0,0.0,0.0,0.0,0.0,0.0,0.0,0.0,0.0,0.0,0.0,0.0,0.0,0.0,0.0,-4.3515,-4.3515,-4.3631,-4.3896,-4.3629,-4.3629,0.0,-4.3631,-4.3515,-4.3515,-4.3515,-4.3515,-4.3515,-4.3515,-4.3515,-4.3515,-4.3515,-4.3515,-4.3515,-4.3515,-4.3515,-4.3515,-4.3515,-4.3515,-4.3533,-4.3697,-4.3753,-4.3791,-4.3955,-4.401,-4.4029,-4.4029,-4.4452,-4.482,-4.4196,-4.4455,-4.4764,-4.3979,-4.3755,-4.3752,-4.3752,-4.3625,-4.3515,-4.3515,-4.3515,-4.3515,-4.3515,-4.3515,-4.3515,-4.3515,-4.3515,-4.3515,-4.3515,-4.3515,-4.3515,-4.3515,-4.3515,-4.3515,-4.3515,-4.3515,-4.3315,-4.2914,-4.2332,-4.1778,-4.1321,-4.1163,-4.0903,-4.0468,-4.2015,-4.2817,-4.2715,-4.3242,-4.3005,-4.1988,-4.2464,-4.1997,-4.0682,-4.1584,-4.205,-2.2355,-2.4332,-2.6691,-2.9915,-3.2074,-3.3598,-3.442,-3.4815,-3.5261,-3.6119,0.0,0.0,0.0,0.0,0.0,0.0,0.0,0.0,0.0,0.0,0.0,0.0,0.0,0.0,0.0,0.0,0.0,0.0,0.0,0.0,0.0,-4.3277,-4.3515,-4.3515,-4.3515,-4.358,-4.3775,-4.358,-4.358,-4.3775,-4.358,-4.3515,-4.3515,-4.3515,-4.3515,-4.3515,-4.3515,-4.3515,-4.3515,-4.3515,-4.3515,-4.3515,-4.3515,-4.3515,-4.3515,-4.3515,-4.3515,-4.3515,-4.3515,-4.3515,-4.3515,-4.3515,-4.3515,-4.3515,-4.3515,-4.3791,-4.403,-4.3608,-4.3796,-4.4035,-4.3609,-4.3515,-4.3515,-4.3515,-4.3515,-4.3515,-4.3515,-4.3515,-4.3515,-4.3515,-4.3515,-4.3515,-4.3515,-4.3515,-4.3515,-4.3515,-4.3515,-4.3515,-4.3515,-4.3515,-4.3515,-4.3515,-4.3515,-4.3278,-4.2751,-4.2158,-4.1542,-4.0949,-4.0646,-4.0391,-4.0113,-4.1222,-4.196,-4.2262,-4.2532,-4.2387,-4.1806,-4.1843,-4.1366,-4.051,-4.1093,-4.1513,-2.1566,-2.4312,-2.747,-3.1097,-3.2721,0.0,-3.3834,-3.4373,-3.4784,-3.4784,0.0,0.0,0.0,0.0,0.0,0.0,0.0,0.0,0.0,0.0,0.0,0.0,0.0,0.0,0.0,0.0,0.0,0.0,0.0,0.0,-4.2084,-4.2855,-4.3277,-4.3277,-4.3441,-4.3531,-4.358,-4.3531,-4.3531,-4.358,-4.3531,-4.3515,-4.3515,-4.3515,-4.3515,-4.3515,-4.3515,-4.3515,-4.3515,-4.3515,-4.3515,-4.3515,-4.3515,-4.3515,-4.3515,-4.3515,-4.3515,-4.3515,-4.3515,-4.3515,-4.3515,-4.3515,-4.3515,-4.3515,-4.3515,-4.3515,-4.3515,-4.3515,-4.3515,-4.3515,-4.3515,-4.3515,-4.3515,-4.3515,-4.3515,-4.3515,-4.3515,-4.3515,-4.3515,-4.3515,-4.3515,-4.3515,-4.3515,-4.3515,-4.3515,-4.3515,-4.3424,-4.3369,-4.3369,-4.326,-4.326,-4.3351,-4.326,-4.3024,-4.2569,-4.1987,-4.1384,-4.0815,-4.0349,-4.0096,-4.0096,-4.0535,-4.1042,-4.163,-4.174,-4.1812,-4.1812,-4.1175,-4.0849,-4.0756,-4.0756,-4.1069,-1.9415,-2.299,-2.7154,-2.9428,-3.1704,-3.3306,0.0,0.0,-3.3972,0.0,0.0,0.0,0.0,0.0,0.0,0.0,0.0,0.0,0.0,0.0,0.0,0.0,0.0,0.0,0.0,0.0,0.0,0.0,0.0,0.0,-4.126,-4.2029,-4.2451,-4.2451,-4.313,-4.3629,-4.3924,-4.3646,-4.3646,-4.3924,-4.3629,-4.3515,-4.3515,-4.3515,-4.3515,-4.3515,-4.3515,-4.3515,-4.3515,-4.3515,-4.3515,-4.3515,-4.3515,-4.3515,-4.3515,-4.3515,-4.3515,-4.3515,-4.3515,-4.3515,-4.3515,-4.3515,-4.3515,-4.3515,-4.3515,-4.3515,-4.3515,-4.3515,-4.3515,-4.3515,-4.3515,-4.3515,-4.3515,-4.3515,-4.3515,-4.3515,-4.3515,-4.3515,-4.3515,-4.3515,-4.3515,-4.3515,-4.3515,-4.3515,-4.3515,-4.3515,-4.3096,-4.2805,-4.2805,-4.235,-4.2242,-4.2751,-4.235,-4.2006,-4.1933,-4.1367,-4.0798,-4.0239,-4.013,-4.0096,-4.0096,-4.0189,-4.0474,-4.1003,-4.154,-4.1796,-4.1816,-4.1193,-4.0646,-4.0206,-4.0206,-4.0501,-2.0489,-2.3447,-2.6471,-2.8982,-3.0443,-3.1399,-3.1832,0.0,0.0,0.0,0.0,0.0,0.0,0.0,0.0,0.0,0.0,0.0,0.0,0.0,0.0,0.0,0.0,0.0,0.0,0.0,0.0,0.0,0.0,-4.0432,-4.0432,-4.1203,-4.1627,-4.1627,-4.2415,-4.2901,-4.3045,-4.3343,-4.3563,-4.3726,-4.3563,-4.3515,-4.3515,-4.3515,-4.3515,-4.3515,-4.3515,-4.3515,-4.3515,-4.3515,-4.3515,-4.3515,-4.3515,-4.3515,-4.3515,-4.3515,-4.3515,-4.3515,-4.3515,-4.3515,-4.3515,-4.3515,-4.3515,-4.3515,-4.3515,-4.3515,-4.3515,-4.3515,-4.3515,-4.3515,-4.3515,-4.3515,-4.3515,-4.3515,-4.3515,-4.3515,-4.3515,-4.3515,-4.3515,-4.3515,-4.3515,-4.3406,-4.3096,-4.3297,-4.3406,-4.3096,-4.2842,-4.2705,-4.2704,-4.2167,-4.1911,-4.2167,-4.1971,-4.1669,-4.1325,-4.1037,-4.0849,-4.0722,-4.0722,-4.0908,-4.1332,-4.0942,-4.1001,-4.1553,-4.1092,-4.1004,-4.1273,-4.0722,-4.0332,-4.0096,-4.0096,-4.0442,-2.1062,-2.3235,-2.4982,-2.7733,-2.8877,-2.9561,0.0,0.0,0.0,0.0,0.0,0.0,0.0,0.0,0.0,0.0,0.0,0.0,0.0,0.0,0.0,0.0,0.0,0.0,0.0,0.0,0.0,0.0,0.0,-3.9588,-3.9588,-4.0359,-4.0799,-4.0799,-4.1589,-4.2084,-4.2304,-4.3094,-4.3515,-4.3515,-4.3515,-4.3515,-4.3515,-4.3515,-4.3515,-4.3515,-4.3515,-4.3515,-4.3515,-4.3515,-4.3515,-4.3515,-4.3515,-4.3515,-4.3515,-4.3515,-4.3515,-4.3515,-4.3515,-4.3515,-4.3515,-4.3515,-4.3515,-4.3515,-4.3515,-4.3515,-4.3515,-4.3515,-4.3515,-4.3515,-4.3515,-4.3515,-4.3515,-4.3515,-4.3515,-4.3515,-4.3515,-4.3515,-4.3515,-4.3515,-4.3515,-4.3315,-4.2787,-4.3142,-4.3375,-4.3045,-4.286,-4.2823,-4.3027,-4.2405,-4.1996,-4.2124,-4.2025,-4.1816,-4.1525,-4.1349,-4.1332,-4.146,-4.1469,-4.1749,-4.2287,-4.1766,-4.1707,-4.2141,-4.117,-4.074,-4.0908,-4.0349,-4.0096,-4.0096,-4.0096,-4.0501,-1.9481,-2.1058,0.0,-2.465,-2.6862,-2.8638,0.0,0.0,0.0,0.0,0.0,0.0,0.0,0.0,0.0,0.0,0.0,0.0,0.0,0.0,0.0,0.0,0.0,0.0,0.0,0.0,0.0,0.0,0.0,-3.8762,-3.8762,-3.9533,-3.9955,-3.9955,-4.0744,-4.1534,-4.2286,-4.3094,-4.3515,-4.3515,-4.3515,-4.3515,-4.3515,-4.3515,-4.3515,-4.3515,-4.3515,-4.3515,-4.3515,-4.3515,-4.3515,-4.3515,-4.3515,-4.3515,-4.3515,-4.3515,-4.3515,-4.3515,-4.3515,-4.3515,-4.3515,-4.3515,-4.3515,-4.3515,-4.3515,-4.3515,-4.3515,-4.3515,-4.3515,-4.3515,-4.3515,-4.3515,-4.3515,-4.3515,-4.3515,-4.3515,-4.3515,-4.3515,-4.3515,-4.3515,-4.3515,-4.3315,-4.2787,-4.3134,-4.3581,-4.3797,-4.3297,-4.317,-4.3934,-4.2995,-4.2499,-4.3072,-4.2624,-4.2479,-4.3037,-4.255,-4.2235,-4.2235,-4.2247,-4.2256,-4.23,-4.2256,-4.2277,-4.2286,-4.2215,-4.1755,-4.0908,-4.0349,-4.0096,-4.0096,-4.0096,-4.0501,-1.8292,0.0,0.0,-2.3075,-2.4716,-2.6177,0.0,0.0,0.0,0.0,0.0,0.0,0.0,0.0,0.0,0.0,0.0,0.0,0.0,0.0,0.0,0.0,0.0,0.0,0.0,0.0,0.0,0.0,0.0,0.0,-3.8707,-3.8964,-3.9129,-3.9129,-3.9918,-4.0965,-4.2286,-4.2598,-4.2983,-4.3515,-4.3515,-4.3515,-4.3515,-4.3515,-4.3515,-4.3515,-4.3515,-4.3515,-4.3515,-4.3515,-4.3515,-4.3515,-4.3515,-4.3515,-4.3515,-4.3515,-4.3515,-4.3515,-4.3515,-4.3515,-4.3515,-4.3515,-4.3515,-4.3515,-4.3515,-4.3515,-4.3515,-4.3515,-4.3515,-4.3515,-4.3515,-4.3515,-4.3625,-4.4153,-4.4281,-4.4408,-4.4939,-4.4227,-4.3515,-4.3515,-4.3223,-4.295,-4.2842,-4.2991,-4.3203,-4.3415,-4.325,-4.3199,-4.3475,-4.2801,-4.2372,-4.2594,-4.2449,-4.2389,-4.2594,-4.2405,-4.25,-4.299,-4.3014,-4.3222,-4.3749,-4.3284,-4.302,-4.3007,-4.2544,-4.1914,-4.1069,-4.0908,-4.0552,-4.0113,-4.0595,-4.1205,-1.7175,-1.8838,0.0,0.0,0.0,-2.3862,-2.5392,0.0,0.0,0.0,0.0,0.0,0.0,0.0,0.0,0.0,0.0,0.0,0.0,0.0,0.0,0.0,0.0,0.0,0.0,0.0,0.0,0.0,0.0,0.0,-3.8707,-3.8707,-3.8707,-3.8707,-3.9478,-4.0396,-4.1479,-4.2029,-4.2561,-4.3094,-4.3369,-4.3515,-4.3515,-4.3515,-4.3515,-4.3515,-4.3515,-4.3515,-4.3515,-4.3515,-4.3515,-4.3515,-4.3515,-4.3515,-4.3515,-4.3515,-4.3515,-4.3515,-4.3515,-4.3515,-4.3515,-4.3515,-4.3515,-4.3515,-4.3515,-4.3515,-4.3515,-4.3515,-4.3515,-4.3551,-4.3825,-4.4098,-4.4447,-4.4983,-4.5094,-4.5239,-4.5782,-4.4848,-4.3989,-4.4262,-4.3843,-4.345,-4.3325,-4.3296,-4.3343,-4.3558,-4.3582,-4.3681,-4.3931,-4.3446,-4.3077,-4.3077,-4.3077,-4.3077,-4.3077,-4.3077,-4.3284,-4.3766,-4.3811,-4.4052,-4.4598,-4.4086,-4.3811,-4.3811,-4.3317,-4.2694,-4.1935,-4.1691,-4.1332,-4.0849,-4.1349,-4.1946,0.0,0.0,0.0,0.0,0.0,0.0,0.0,0.0,0.0,0.0,0.0,0.0,0.0,0.0,0.0,0.0,0.0,0.0,0.0,0.0,0.0,0.0,0.0,0.0,0.0,0.0,0.0,0.0,0.0,-3.8707,-3.8707,-3.8707,-3.8707,-3.8707,-3.946,-3.9879,-3.99,-4.146,-4.2286,-4.2304,-4.3112,-4.3515,-4.3515,-4.3515,-4.3515,-4.3515,-4.3515,-4.3515,-4.3515,-4.3515,-4.3515,-4.3515,-4.3515,-4.3515,-4.3515,-4.3515,-4.3515,-4.3515,-4.3515,-4.3515,-4.3515,-4.3515,-4.3515,-4.3515,-4.3515,-4.3515,-4.3515,-4.3515,-4.3515,-4.3697,-4.4483,-4.5269,-4.5879,-4.5917,-4.5913,-4.5918,-4.597,-4.5324,-4.4958,-4.5727,-4.5379,-4.4762,-4.4188,-4.4026,-4.4069,-4.4373,-4.4356,-4.4598,-4.5388,-4.4953,-4.4615,-4.4615,-4.4615,-4.4615,-4.4615,-4.4615,-4.4615,-4.4615,-4.4615,-4.4615,-4.4615,-4.4615,-4.4615,-4.4615,-4.4615,-4.4215,-4.3429,-4.2669,-4.2338,-4.2295,-4.2338,-4.2737,-1.7129,0.0,0.0,0.0,0.0,0.0,0.0,0.0,0.0,0.0,0.0,0.0,0.0,0.0,0.0,0.0,0.0,0.0,0.0,0.0,0.0,0.0,0.0,0.0,0.0,0.0,0.0,0.0,-3.8377,-3.8707,-3.8707,-3.8707,-3.8707,-3.8707,-3.8927,-3.9313,-3.9882,-4.0928,-4.1735,-4.2304,-4.3112,-4.3515,-4.3515,-4.3515,-4.3515,-4.3515,-4.3515,-4.3515,-4.3515,-4.3515,-4.3515,-4.3515,-4.3515,-4.3515,-4.3515,-4.3515,-4.3515,-4.3515,-4.3515,-4.3515,-4.3515,-4.3515,-4.3515,-4.3515,-4.3515,-4.3515,-4.3515,-4.3515,-4.3515,-4.3683,-4.4492,-4.4966,-4.5515,-4.6539,-4.6428,-4.6392,-4.7426,-4.6654,-4.5681,-4.5314,-4.4418,-4.3807,-4.4189,-4.3866,-4.3783,-4.444,-4.4519,-4.4615,-4.4823,-4.471,-4.4615,-4.4615,-4.4615,-4.4615,-4.4615,-4.4615,-4.4615,-4.4615,-4.4615,-4.4615,-4.4615,-4.4615,-4.4615,-4.4615,-4.4615,-4.4502,-4.4277,-4.3483,-4.282,-4.2314,-4.2854,-4.3517,-1.8067,-1.8998,-1.9964,0.0,0.0,0.0,0.0,-2.1509,0.0,0.0,0.0,0.0,0.0,0.0,0.0,0.0,0.0,0.0,0.0,0.0,0.0,0.0,0.0,0.0,0.0,0.0,0.0,-3.6997,-3.7734,-3.834,-3.8689,-3.8707,-3.8707,-3.8707,-3.8707,-3.8927,-3.9386,-4.0194,-4.1001,-4.1809,-4.2598,-4.3167,-4.3515,-4.3515,-4.3515,-4.3515,-4.3515,-4.3515,-4.3515,-4.3515,-4.3515,-4.3515,-4.3515,-4.3515,-4.3515,-4.3515,-4.3515,-4.3515,-4.3515,-4.3515,-4.3515,-4.3515,-4.3515,-4.3515,-4.3515,-4.3515,-4.3515,-4.3515,-4.3579,-4.3722,-4.3944,-4.4325,-4.4872,-4.5686,-4.5858,-4.6042,-4.6869,-4.6446,-4.5934,-4.5994,-4.4997,-4.4305,-4.4712,-4.4294,-4.4069,-4.4519,-4.4615,-4.4615,-4.4615,-4.4615,-4.4615,-4.4615,-4.4615,-4.4615,-4.4615,-4.4615,-4.4615,-4.4615,-4.4615,-4.4615,-4.4615,-4.4615,-4.4615,-4.4615,-4.4615,-4.4615,-4.4615,-4.4148,-4.367,-4.3284,-4.3715,-4.4165,-1.9195,-1.9797,-2.0801,-2.0683,0.0,0.0,-2.2271,-2.2109,0.0,0.0,0.0,0.0,0.0,0.0,0.0,0.0,0.0,0.0,0.0,0.0,0.0,0.0,0.0,0.0,0.0,-3.5661,-3.6156,-3.6156,-3.6997,-3.7823,-3.8524,-3.8652,-3.8707,-3.8707,-3.8707,-3.8707,-3.8707,-3.9496,-4.0267,-4.0967,-4.1882,-4.2671,-4.3369,-4.346,-4.3515,-4.3515,-4.3515,-4.3515,-4.3515,-4.3515,-4.3515,-4.3515,-4.3515,-4.3515,-4.3515,-4.3515,-4.3515,-4.3515,-4.3515,-4.3515,-4.3515,-4.3515,-4.3444,-4.341,-4.341,-4.3356,-4.3303,-4.332,-4.3475,-4.3567,-4.3121,-4.3483,-4.401,-4.4152,-4.4647,-4.511,-4.5162,-4.5212,-4.5595,-4.6709,-4.6118,-4.5405,-4.5405,-4.4953,-4.4581,-4.4485,-4.4485,-4.4485,-4.4485,-4.4485,-4.4485,-4.4485,-4.4536,-4.4553,-4.4485,-4.4536,-4.4615,-4.4615,-4.4615,-4.4615,-4.4615,-4.4615,-4.4615,-4.4615,-4.4615,-4.4615,-4.4615,-4.4615,-4.4615,-4.4615,-4.4615,-4.4615,-2.1238,-2.1443,-2.1281,-2.0051,0.0,0.0,0.0,-1.9546,0.0,0.0,0.0,0.0,0.0,0.0,0.0,0.0,0.0,0.0,0.0,0.0,0.0,0.0,0.0,0.0,0.0,-3.4766,-3.5261,-3.5261,-3.6652,-3.7566,-3.7731,-3.834,-3.8707,-3.8707,-3.8707,-3.8707,-3.8707,-3.9496,-3.9974,-4.0139,-4.1607,-4.2378,-4.2561,-4.3185,-4.3515,-4.3515,-4.3515,-4.3515,-4.3515,-4.3515,-4.3515,-4.3515,-4.3515,-4.3515,-4.3515,-4.3515,-4.3515,-4.3515,-4.3515,-4.3515,-4.3515,-4.3515,-4.3214,-4.2864,-4.2864,-4.2521,-4.2132,-4.2121,-4.2163,-4.2324,-4.2847,-4.2769,-4.2809,-4.3923,-4.3942,-4.3833,-4.4297,-4.4053,-4.3814,-4.4051,-4.4485,-4.4761,-4.4761,-4.4666,-4.439,-4.3732,-4.3637,-4.3637,-4.3637,-4.3637,-4.3637,-4.3637,-4.4198,-4.4328,-4.3698,-4.4215,-4.4615,-4.4615,-4.4615,-4.4615,-4.4615,-4.4615,-4.4615,-4.4615,-4.4615,-4.4615,-4.4615,-4.4615,-4.4615,-4.4615,-4.4615,-4.4615,-2.2635,-2.2797,-2.273,-2.1547,0.0,0.0,0.0,0.0,0.0,0.0,0.0,0.0,0.0,0.0,0.0,0.0,0.0,0.0,0.0,0.0,0.0,0.0,0.0,0.0,0.0,-3.3573,-3.4142,-3.4949,-3.5775,-3.6431,-3.6886,-3.7661,-3.8102,-3.8102,-3.8487,-3.8707,-3.8707,-3.9093,-3.9496,-3.99,-4.113,-4.1919,-4.2323,-4.313,-4.3515,-4.3515,-4.3515,-4.3515,-4.3515,-4.3515,-4.3515,-4.3515,-4.3515,-4.3515,-4.3515,-4.3515,-4.3515,-4.3515,-4.3515,-4.3515,-4.3444,-4.3196,-4.292,-4.2635,-4.2342,-4.2041,-4.1754,-4.1427,-4.1375,-4.1412,-4.1532,-4.1332,-4.1273,-4.1996,-4.2218,-4.2329,-4.2655,-4.2771,-4.2792,-4.2792,-4.3144,-4.343,-4.3463,-4.3446,-4.3317,-4.2903,-4.2837,-4.2843,-4.2843,-4.284,-4.2853,-4.2853,-4.32,-4.3437,-4.3407,-4.3766,-4.4165,-4.4581,-4.4615,-4.4615,-4.4615,-4.4615,-4.4615,-4.4615,-4.4615,-4.4615,-4.4615,-4.4615,-4.4615,-4.4615,-4.4615,-4.4615,0.0,0.0,0.0,0.0,0.0,-2.3116,0.0,0.0,0.0,0.0,0.0,0.0,0.0,0.0,0.0,0.0,0.0,0.0,0.0,0.0,0.0,0.0,0.0,0.0,0.0,-3.2142,-3.2803,-3.4417,-3.4546,-3.4986,-3.6009,-3.6978,-3.7492,-3.7492,-3.8285,-3.8707,-3.8707,-3.8707,-3.9038,-3.968,-4.0487,-4.1295,-4.2103,-4.2892,-4.3349,-4.3515,-4.3515,-4.3515,-4.3515,-4.3515,-4.3515,-4.3515,-4.3515,-4.3515,-4.3515,-4.3515,-4.3515,-4.3515,-4.3515,-4.3515,-4.3427,-4.2995,-4.2713,-4.2382,-4.1682,-4.1486,-4.1375,-4.0874,-4.0791,-4.0707,-4.0221,-4.0096,-4.0096,-4.0096,-4.0535,-4.1001,-4.1001,-4.146,-4.1885,-4.1885,-4.1885,-4.1963,-4.2246,-4.2288,-4.2255,-4.2126,-4.2096,-4.209,-4.209,-4.21,-4.2082,-4.2082,-4.2217,-4.2484,-4.2928,-4.3222,-4.367,-4.4328,-4.4519,-4.4615,-4.4615,-4.4615,-4.4615,-4.4615,-4.4615,-4.4615,-4.4615,-4.4615,-4.4615,-4.4615,-4.4615,-4.4615,0.0,0.0,0.0,0.0,-2.3006,0.0,0.0,0.0,0.0,0.0,0.0,0.0,0.0,0.0,0.0,0.0,0.0,0.0,0.0,0.0,0.0,0.0,0.0,0.0,0.0,0.0,-3.1146,-3.2748,-3.2876,-3.3537,-3.5078,-3.6633,-3.7492,-3.7492,-3.8285,-3.8707,-3.8707,-3.8707,-3.8762,-3.8854,-3.9643,-4.0469,-4.126,-4.2066,-4.2818,-4.3515,-4.3515,-4.3515,-4.3515,-4.3515,-4.3515,-4.3515,-4.3515,-4.3515,-4.3515,-4.3515,-4.3515,-4.3515,-4.3515,-4.3515,-4.3479,-4.3427,-4.2734,-4.1703,-4.0618,-4.0286,-4.0279,-4.0204,-4.0196,-4.0196,-4.0121,-4.0096,-4.0096,-4.0096,-4.0146,-4.0222,-4.0222,-4.0299,-4.0349,-4.0349,-4.0349,-4.0764,-4.2065,-4.2304,-4.2083,-4.1435,-4.1308,-4.1332,-4.1332,-4.1325,-4.1325,-4.1325,-4.1903,-4.2056,-4.1512,-4.2645,-4.3429,-4.3525,-4.4198,-4.4615,-4.4615,-4.4615,-4.4615,-4.4615,-4.4615,-4.4615,-4.4615,-4.4615,-4.4615,-4.4615,-4.4615,-4.4615,0.0,0.0,0.0,0.0,0.0,0.0,-2.229,0.0,-2.2051,0.0,0.0,0.0,0.0,0.0,0.0,0.0,0.0,0.0,0.0,0.0,0.0,0.0,0.0,0.0,0.0,0.0,0.0,0.0,0.0,-3.1904,-3.3518,-3.4724,-3.5789,-3.6776,-3.7569,-3.823,-3.8707,-3.8707,-3.8707,-3.8707,-3.9515,-4.0065,-4.0451,-4.1717,-4.2488,-4.2818,-4.3313,-4.3515,-4.3515,-4.3515,-4.3515,-4.3515,-4.3515,-4.3515,-4.3515,-4.3515,-4.3515,-4.3515,-4.3515,-4.3515,-4.3387,-4.2733,-4.1741,-4.072,-4.0254,-4.0096,-4.0096,-4.0096,-4.0096,-4.0096,-4.0096,-4.0096,-4.0096,-4.0096,-4.0096,-4.0096,-4.0096,-4.0096,-4.0096,-4.0096,-4.0096,-4.0299,-4.0925,-4.1018,-4.0925,-4.0612,-4.0552,-4.0552,-4.0552,-4.0552,-4.0552,-4.0552,-4.0832,-4.1239,-4.1792,-4.2415,-4.3148,-4.4046,-4.4406,-4.4615,-4.4615,-4.4615,-4.4615,-4.4615,-4.4615,-4.4615,-4.4615,-4.4615,-4.4615,-4.4615,-4.4615,-4.4615,-2.4593,0.0,0.0,0.0,0.0,0.0,0.0,0.0,0.0,0.0,0.0,0.0,0.0,0.0,0.0,0.0,0.0,0.0,0.0,0.0,0.0,0.0,0.0,0.0,0.0,0.0,0.0,0.0,0.0,0.0,-3.2173,-3.3036,-3.4229,-3.5899,-3.696,-3.7786,-3.8377,-3.8597,-3.8707,-3.8707,-3.9294,-3.968,-3.9953,-4.1111,-4.1882,-4.2323,-4.291,-4.3313,-4.3515,-4.3515,-4.3515,-4.3515,-4.3515,-4.3515,-4.3515,-4.3515,-4.3515,-4.3515,-4.3515,-4.3515,-4.3299,-4.2159,-4.1244,-4.0514,-4.0179,-4.0096,-4.0096,-4.0096,-4.0096,-4.0096,-4.0096,-4.0096,-4.0096,-4.0096,-4.0096,-4.0096,-4.0096,-4.0096,-4.0096,-4.0096,-4.0096,-4.0096,-4.0096,-4.0096,-4.0096,-4.0096,-4.0096,-4.0096,-4.0096,-4.0096,-4.0096,-4.0096,-4.0282,-4.0832,-4.1902,-4.2373,-4.317,-4.4513,-4.4615,-4.4615,-4.4615,-4.4615,-4.4615,-4.4615,-4.4615,-4.4615,-4.4615,-4.4615,-4.4615,-4.4615,-4.4615,-4.4615,0.0,0.0,0.0,-2.2639,0.0,0.0,0.0,0.0,-2.3189,0.0,0.0,0.0,0.0,0.0,0.0,0.0,0.0,0.0,0.0,0.0,0.0,0.0,0.0,0.0,0.0,0.0,0.0,0.0,0.0,0.0,-3.1268,-3.221,-3.3371,-3.4986,-3.6633,-3.7511,-3.7547,-3.8303,-3.8707,-3.8707,-3.8726,-3.9148,-3.99,-3.9937,-4.0818,-4.2304,-4.2323,-4.2782,-4.3515,-4.3515,-4.3515,-4.3515,-4.3515,-4.3515,-4.3515,-4.3515,-4.3515,-4.3515,-4.3515,-4.3515,-4.3321,-4.217,-4.1775,-4.1552,-4.0417,-4.0096,-4.0096,-4.0096,-4.0096,-4.0096,-4.0096,-4.0096,-4.0096,-4.0096,-4.0096,-4.0096,-4.0096,-4.0096,-4.0096,-4.0096,-4.0096,-4.0096,-4.0096,-4.0096,-4.0096,-4.0096,-4.0096,-4.0096,-4.0096,-4.0096,-4.0096,-4.0096,-4.0739,-4.1163,-4.1239,-4.2547,-4.3726,-4.4536,-4.4615,-4.4615,-4.4615,-4.4615,-4.4615,-4.4615,-4.4615,-4.4615,-4.4615,-4.4615,-4.4615,-4.4615,-4.4615,-4.4615,0.0,0.0,-2.6741,-2.4071,0.0,0.0,0.0,0.0,0.0,0.0,0.0,0.0,0.0,0.0,0.0,0.0,0.0,0.0,0.0,0.0,0.0,0.0,0.0,0.0,0.0,0.0,0.0,0.0,-2.6153,0.0,0.0,-3.1072,-3.254,-3.4174,-3.5826,-3.696,-3.7492,-3.8303,-3.8707,-3.8707,-3.8707,-3.8836,-3.9129,-3.9662,-4.0194,-4.0763,-4.1846,-4.2451,-4.2745,-4.3277,-4.3515,-4.3515,-4.3515,-4.3515,-4.3515,-4.3515,-4.3515,-4.3515,-4.3515,-4.326,-4.283,-4.2076,-4.1529,-4.1079,-4.0326,-4.0096,-4.0096,-4.0096,-4.0096,-4.0096,-4.0096,-4.0096,-4.0096,-4.0096,-4.0096,-4.0096,-4.0096,-4.0096,-4.0096,-4.0096,-4.0096,-4.0096,-4.0096,-4.0501,-4.0832,-4.0832,-4.0832,-4.1001,-4.1477,-4.1553,-4.1553,-4.1553,-4.1775,-4.2125,-4.2605,-4.3591,-4.4311,-4.4598,-4.4615,-4.4615,-4.4615,-4.4615,-4.4615,-4.4615,-4.4615,-4.4615,-4.4615,-4.4615,-4.4615,-4.4615,-4.4615,-4.4615,-2.7108,-2.7402,0.0,-2.5154,-2.5026,0.0,-2.3731,0.0,0.0,0.0,0.0,0.0,0.0,0.0,0.0,0.0,0.0,0.0,0.0,0.0,0.0,0.0,0.0,0.0,0.0,0.0,-2.3584,-2.4153,-2.463,0.0,0.0,0.0,-3.1421,-3.3311,-3.5275,-3.6556,-3.707,-3.8157,-3.8707,-3.8707,-3.8707,-3.8707,-3.8726,-3.9239,-3.979,-4.0377,-4.1423,-4.2194,-4.2763,-4.3277,-4.3515,-4.3515,-4.3515,-4.3515,-4.3515,-4.3515,-4.3515,-4.3515,-4.3515,-4.3141,-4.2608,-4.2006,-4.1393,-4.0795,-4.0271,-4.0096,-4.0096,-4.0096,-4.0096,-4.0096,-4.0096,-4.0096,-4.0096,-4.0096,-4.0096,-4.0096,-4.0096,-4.0096,-4.0096,-4.0096,-4.0096,-4.0189,-4.0442,-4.0908,-4.1205,-4.1205,-4.1435,-4.1754,-4.2241,-4.2319,-4.2319,-4.2319,-4.2541,-4.3005,-4.3771,-4.4294,-4.4615,-4.4615,-4.4615,-4.4615,-4.4615,-4.4615,-4.4615,-4.4615,-4.4615,-4.4615,-4.4615,-4.4615,-4.4615,-4.4615,-4.4615,-4.4615]},{"header":{"parameterUnit":"m.s-1","parameterCategory":1,"la1":30.6,"la2":29.2853,"lo1":-89.7004,"lo2":-87.6739,"dy":0.0162,"dx":0.0183,"nx":112,"ny":82,"refTime":"2026-04-05T00:00:00:Z","depth":0,"parameterNumber":3,"parameterNumberName":"V-component_of_WINDS"},"data":[0.0,0.0,0.0,0.0,0.0,0.0,0.0,0.0,0.0,0.0,0.0,0.0,0.0,0.0,0.0,0.0,0.0,0.0,0.0,0.0,0.0,0.0,0.0,0.0,0.0,0.0,0.0,0.0,0.0,0.0,0.0,0.0,0.0,0.0,0.0,0.0,0.0,0.0,0.0,0.0,0.0,0.0,0.0,0.0,0.0,0.0,0.0,0.0,0.0,0.0,0.0,0.0,0.0,0.0,0.0,0.0,0.0,0.0,0.0,0.0,0.0,0.0,0.0,0.0,0.0,0.0,0.0,0.0,0.0,0.0,0.0,0.0,0.0,0.0,0.0,0.0,0.0,0.0,0.0,0.0,0.0,0.0,0.0,0.0,0.0,0.0,0.0,0.0,0.0,0.0,0.0,0.6409,0.7241,0.7729,0.7611,0.7397,0.6848,0.5864,0.0,0.0,0.0,0.0,0.0,0.0,0.0,0.0,0.0,0.0,0.0,0.0,0.0,0.0,0.0,0.0,0.0,0.0,0.0,0.0,0.0,0.0,0.0,0.0,0.0,0.0,0.0,0.0,0.0,0.0,0.0,0.0,0.0,0.0,0.0,0.0,0.0,0.0,0.0,0.0,0.0,0.0,0.0,0.0,0.0,0.0,0.0,0.0,0.0,0.0,0.0,0.0,0.0,0.0,0.0,0.0,0.0,0.0,0.0,0.0,0.0,0.0,0.0,0.0,0.0,0.0,0.0,0.0,0.0,0.0,0.0,0.0,0.0,0.0,0.0,0.0,0.0,0.0,0.0,0.0,0.0,0.0,0.0,0.0,0.0,0.0,0.0,0.0,0.0,0.0,0.0,0.0,0.0,0.0,0.0,0.0,0.0,0.0,0.0,0.0,0.0,0.0,0.0,0.0,0.5897,0.7119,0.7461,0.7624,0.76,0.7109,0.6515,0.5844,0.0,0.0,0.0,0.0,0.0,0.0,0.0,0.0,0.0,0.0,0.0,0.0,0.0,0.0,0.0,0.0,0.0,0.0,0.0,0.0,0.0,0.0,0.0,0.0,0.0,0.0,0.0,0.0,0.0,0.0,0.0,0.0,0.0,0.0,0.0,0.0,0.0,0.0,0.0,0.0,0.0,0.0,0.0,0.0,0.0,0.0,0.0,0.0,0.0,0.0,0.0,0.0,0.0,0.0,0.0,0.0,0.0,0.0,0.0,0.0,0.0,0.0,0.0,0.0,0.0,0.0,0.0,0.0,0.0,0.0,0.0,0.0,0.0,0.0,0.0,0.0,0.0,0.0,0.0,0.0,0.0,0.0,0.0,0.0,0.0,0.0,0.0,0.0,0.0,0.0,0.0,0.0,0.0,0.0,0.0,0.0,0.0,0.0,0.0,0.0,0.0,0.0,0.0,0.5781,0.6395,0.7383,0.7628,0.7682,0.7607,0.7122,0.6532,0.5844,0.5372,0.0,0.0,0.0,0.0,0.0,0.0,0.0,0.0,0.0,0.0,0.0,0.0,0.0,0.0,0.0,0.0,0.0,0.0,0.0,0.0,0.0,0.0,0.0,0.0,0.0,0.0,0.0,0.0,0.0,0.0,0.0,0.0,0.0,0.0,0.0,0.0,0.0,0.0,0.0,0.0,0.0,0.0,0.0,0.0,0.0,0.0,0.0,0.0,0.0,0.0,0.0,0.0,0.0,0.0,0.0,0.0,0.0,0.0,0.0,0.0,0.0,0.0,0.0,0.0,0.0,0.0,0.0,0.0,0.0,0.0,0.0,0.0,0.0,0.0,0.0,0.0,0.0,0.0,0.0,0.0,0.0,0.0,0.0,0.0,0.0,0.0,0.0,0.0,0.0,0.0,0.0,0.0,0.0,0.0,0.0,0.0,0.0,0.0,0.0,0.0,0.0,0.0,0.643,0.6865,0.7478,0.7675,0.7702,0.7556,0.7071,0.6495,0.584,0.5047,0.0,0.0,0.0,0.0,0.0,0.0,0.0,0.0,0.0,0.0,0.0,0.0,0.0,0.0,0.0,0.0,0.0,0.0,0.0,0.0,0.0,0.0,0.0,0.0,0.0,0.0,0.0,0.0,0.0,0.0,0.0,0.0,0.0,0.0,0.0,0.0,0.0,0.0,0.0,0.0,0.0,0.0,0.0,0.0,0.0,0.0,0.0,0.0,0.0,0.0,0.0,0.0,0.0,0.0,0.0,0.0,0.0,0.0,0.0,0.0,0.0,0.0,0.0,0.0,0.0,0.0,0.0,0.0,0.0,0.0,0.0,0.0,0.0,0.0,0.0,0.0,0.0,0.0,0.0,0.0,0.0,0.0,0.0,0.0,0.0,0.0,0.0,0.0,0.0,0.0,0.0,0.0,0.0,0.0,0.0,0.0,0.0,0.0,0.0,0.0,0.0,0.0,0.6569,0.717,0.7412,0.7522,0.7553,0.7446,0.6767,0.6201,0.5823,0.4479,0.0,0.0,0.0,0.0,0.0,0.0,0.0,0.0,0.0,0.0,0.0,0.0,0.0,0.0,0.0,0.0,0.0,0.0,0.0,0.0,0.0,0.0,0.0,0.0,0.0,0.0,0.0,0.0,0.0,0.0,0.0,0.0,0.0,0.0,0.0,0.0,0.0,0.0,0.0,0.0,0.0,0.0,0.0,0.0,0.0,0.0,0.0,0.0,0.0,0.0,0.0,0.0,0.0,0.0,0.0,0.0,0.0,0.0,0.0,0.0,0.0,0.0,0.0,0.0,0.0,0.0,0.0,0.0,0.0,0.0,0.0,0.0,0.0,0.0,0.0,0.0,0.0,0.0,0.0,0.0,0.0,0.0,0.0,0.0,0.0,0.0,0.0,0.0,0.0,0.0,0.0,0.0,0.0,0.0,0.0,0.0,0.0,0.0,0.0,0.0,0.0,0.0,0.6342,0.6888,0.0,0.7421,0.7434,0.7422,0.6858,0.6325,0.5833,0.0,0.0,0.0,0.0,0.0,0.0,0.0,0.0,0.0,0.0,0.0,0.0,0.0,0.0,0.0,0.0,0.0,0.0,0.0,0.0,0.0,0.0,0.0,0.0,0.0,0.0,0.0,0.0,0.0,0.0,0.0,0.0,0.0,0.0,0.0,0.0,0.0,0.0,0.0,0.0,0.0,0.0,0.0,0.0,0.0,0.0,0.0,0.0,0.0,0.0,0.0,0.0,0.0,0.0,0.0,0.0,0.0,0.0,0.0,0.0,0.0,0.0,0.0,0.0,0.0,0.0,0.0,0.0,0.0,0.0,0.0,0.0,0.0,0.0,0.0,0.0,0.0,0.0,0.0,0.0,0.0,0.0,0.0,0.0,0.0,0.0,0.0,0.0,0.0,0.0,0.0,0.0,0.0,0.0,0.0,0.0,0.0,0.0,0.0,0.0,0.0,0.0,0.5698,0.6278,0.6793,0.0,0.7343,0.7378,0.7238,0.6773,0.6271,0.5766,0.0,0.0,0.0,0.0,0.0,0.0,0.0,0.0,0.0,0.0,0.0,0.0,0.0,0.0,0.0,0.0,0.0,0.0,0.0,0.0,0.0,0.0,0.0,0.0,0.0,0.0,0.0,0.0,0.0,0.0,0.0,0.0,0.0,0.0,0.0,0.0,0.0,0.0,0.0,0.0,0.0,0.0,0.0,0.0,0.0,0.0,0.0,0.0,0.0,0.0,0.0,0.0,0.0,0.0,0.0,0.0,0.0,0.0,0.0,0.0,0.0,0.0,0.0,0.0,0.0,0.0,0.0,0.0,0.0,0.0,0.0,0.0,0.0,0.0,0.0,0.0,0.0,0.0,0.0,0.0,0.0,0.0,0.0,0.0,0.0,0.0,0.0,0.0,0.0,0.0,0.0,0.0,0.0,0.0,0.0,0.0,0.0,0.0,0.0,0.0,0.0,0.0,0.5725,0.6461,0.694,0.7082,0.7278,0.7248,0.691,0.634,0.5908,0.0,0.0,0.0,0.0,0.0,0.0,0.0,0.0,0.0,0.0,0.0,0.0,0.0,0.0,0.0,0.0,0.0,0.0,0.0,0.0,0.0,0.0,0.0,0.0,0.0,0.0,0.0,0.0,0.0,0.0,0.0,0.0,0.0,0.0,0.0,0.0,0.0,0.0,0.0,0.0,0.0,0.0,0.0,0.0,0.0,0.0,0.0,0.0,0.0,0.0,0.0,0.0,0.0,0.0,0.0,0.0,0.0,0.0,0.0,0.0,0.0,0.0,0.0,0.0,0.0,0.0,0.0,0.0,0.0,0.0,0.0,0.0,0.0,0.0,0.0,0.0,0.0,0.0,0.0,0.0,0.0,0.0,0.0,0.0,0.0,0.0,0.0,0.0,0.0,0.0,0.0,0.0,0.0,0.0,0.0,0.0,0.0,0.0,0.0,0.0,0.0,0.0,0.0,0.5725,0.6366,0.6865,0.7068,0.7136,0.7132,0.6903,0.6569,0.6125,0.5623,0.0,0.0,0.0,0.0,0.0,0.0,0.0,0.0,0.0,0.0,0.0,0.0,0.0,0.0,0.0,0.0,0.0,0.0,0.0,0.0,0.0,0.0,0.0,0.0,0.0,0.0,0.0,0.0,0.0,0.0,0.0,0.0,0.0,0.0,0.0,0.0,0.0,0.0,0.0,0.0,0.0,0.0,0.0,0.0,0.0,0.0,0.0,0.0,0.0,0.0,0.0,0.0,0.0,0.0,0.0,0.0,0.0,0.0,0.0,0.0,0.0,0.0,0.0,0.0,0.0,0.0,0.0,0.0,0.0,0.0,0.0,0.0,0.0,0.0,0.0,0.0,0.0,0.0,0.0,0.0,0.0,0.0,0.0,0.0,0.0,0.0,0.0,0.0,0.0,0.0,0.0,0.0,0.0,0.0,0.0,0.0,0.0,0.0,0.0,0.0,0.0,0.0,0.5725,0.6329,0.6814,0.7065,0.7095,0.7014,0.6854,0.6563,0.617,0.5569,0.0,0.0,0.0,0.0,0.0,0.0,0.0,0.0,0.0,0.0,0.0,0.0,0.0,0.0,0.0,0.0,0.0,0.0,0.0,0.0,0.0,0.0,0.0,0.0,0.0,0.0,0.0,0.0,0.0,0.0,0.0,0.0,0.0,0.0,0.0,0.0,0.0,0.0,0.0,0.0,0.0,0.0,0.0,0.0,0.0,0.0,0.0,0.0,0.0,0.0,0.0,0.0,0.0,0.0,0.0,0.0,0.0,0.0,0.0,0.0,0.0,0.0,0.0,0.0,0.0,0.0,0.0,0.0,0.0,0.0,0.0,0.0,0.0,0.0,0.0,0.0,0.0,0.0,0.0,0.0,0.0,0.0,0.0,0.0,0.0,0.0,0.0,0.0,0.0,0.0,0.0,0.0,0.0,0.0,0.0,0.0,0.0,0.0,0.0,0.0,0.0,0.0,0.5725,0.6329,0.6814,0.7065,0.7095,0.6977,0.6725,0.648,0.6061,0.5453,0.0,0.0,0.0,0.0,0.0,0.0,0.0,0.0,0.0,0.0,0.0,0.0,0.0,0.0,0.0,0.0,0.0,0.0,0.0,0.0,0.0,0.0,0.0,0.0,0.0,0.0,0.0,0.0,0.0,0.0,0.0,0.0,0.0,0.0,0.0,0.0,0.0,0.0,0.0,0.0,0.0,0.0,0.0,0.0,0.0,0.0,0.0,0.0,0.0,0.0,0.0,0.0,0.0,0.0,0.0,0.0,0.0,0.0,0.0,0.0,0.5055,0.0,0.0,0.0,0.0,0.0,0.0,0.0,0.0,0.0,0.0,0.0,0.0,0.0,0.0,0.0,0.0,0.0,0.0,0.0,0.0,0.0,0.0,0.0,0.0,0.0,0.0,0.0,0.0,0.0,0.0,0.0,0.0,0.0,0.0,0.0,0.0,0.0,0.0,0.0,0.0,0.0,0.5725,0.6329,0.6814,0.7065,0.7095,0.6977,0.6725,0.6532,0.6211,0.5579,0.5006,0.0,0.0,0.0,0.0,0.0,0.0,0.0,0.0,0.0,0.0,0.0,0.0,0.0,0.0,0.0,0.0,0.0,0.0,0.0,0.0,0.0,0.0,0.0,0.0,0.0,0.0,0.0,0.0,0.0,0.0,0.0,0.0,0.0,0.0,0.0,0.0,0.0,0.0,0.0,0.0,0.0,0.0,0.0,0.0,0.0,0.0,0.0,0.0,0.0,0.0,0.0,0.0,0.0,0.0,0.0,0.0,0.0,0.0,0.0,0.0,0.5609,0.0,0.0,0.0,0.0,0.0,0.0,0.0,0.0,0.0,0.0,0.0,0.0,0.0,0.0,0.0,0.0,0.0,0.0,0.0,0.0,0.0,0.0,0.0,0.0,0.0,0.0,0.0,0.0,0.0,0.0,0.0,0.0,0.0,0.0,0.0,0.0,0.0,0.0,0.0,0.0,0.5735,0.6368,0.6856,0.7065,0.7095,0.6977,0.6725,0.6559,0.6286,0.5725,0.5196,0.0,0.0,0.0,0.0,0.0,0.0,0.0,0.0,0.0,0.0,0.0,0.0,0.0,0.0,0.0,0.0,0.0,0.0,0.0,0.0,0.0,0.0,0.0,0.0,0.0,0.0,0.0,0.0,0.0,0.0,0.0,0.0,0.0,0.0,0.0,0.0,0.0,0.0,0.0,0.0,0.0,0.0,0.0,0.0,0.0,0.0,0.0,0.0,0.0,0.0,0.0,0.0,0.0,0.6793,0.7,0.7082,0.72,0.738,0.7531,0.6742,0.6485,0.6549,0.0,0.0,0.0,0.0,0.0,0.0,0.0,0.0,0.0,0.0,0.0,0.0,0.0,0.0,0.0,0.0,0.0,0.0,0.0,0.0,0.0,0.0,0.0,0.0,0.0,0.6322,0.6203,0.0,0.0,0.0,0.0,0.0,0.0,0.0,0.0,0.0,0.0,0.0,0.0,0.5711,0.6366,0.6844,0.7068,0.7095,0.6977,0.6725,0.6583,0.6318,0.5871,0.541,0.5033,0.0,0.0,0.0,0.0,0.0,0.0,0.0,0.0,0.0,0.0,0.0,0.0,0.0,0.0,0.0,0.0,0.0,0.0,0.0,0.0,0.0,0.0,0.0,0.0,0.0,0.0,0.0,0.0,0.0,0.0,0.0,0.0,0.4389,0.4426,0.0,0.0,0.0,0.0,0.0,0.0,0.0,0.0,0.0,0.0,0.0,0.0,0.0,0.6313,0.6549,0.698,0.7272,0.7428,0.7723,0.7826,0.7843,0.7864,0.8004,0.8197,0.8028,0.0,0.6984,0.6692,0.0,0.0,0.0,0.0,0.0,0.0,0.0,0.0,0.0,0.0,0.0,0.0,0.0,0.0,0.0,0.0,0.0,0.0,0.0,0.0,0.0,0.0,0.6927,0.6947,0.6967,0.6916,0.0,0.5979,0.5324,0.5029,0.484,0.0,0.0,0.0,0.0,0.0,0.0,0.0,0.5638,0.6317,0.6827,0.7078,0.7095,0.6977,0.6725,0.6681,0.6478,0.599,0.5705,0.5443,0.5283,0.4574,0.0,0.0,0.0,0.0,0.0,0.0,0.0,0.0,0.0,0.0,0.0,0.0,0.0,0.0,0.0,0.0,0.0,0.0,0.0,0.0,0.0,0.0,0.0,0.0,0.0,0.0,0.0,0.0,0.0,0.428,0.4631,0.4715,0.4842,0.4884,0.0,0.0,0.0,0.0,0.0,0.0,0.0,0.0,0.0,0.6424,0.6729,0.7027,0.7322,0.7692,0.7909,0.798,0.8275,0.8418,0.8418,0.8453,0.8528,0.8642,0.8557,0.833,0.798,0.7431,0.6987,0.6576,0.0,0.0,0.0,0.0,0.6213,0.6271,0.6671,0.6756,0.0,0.662,0.0,0.0,0.0,0.0,0.0,0.0,0.0,0.0,0.0,0.0,0.0,0.7412,0.7455,0.7358,0.7375,0.6843,0.6224,0.0,0.5587,0.5372,0.4705,0.0,0.0,0.0,0.0,0.0,0.5771,0.6484,0.6983,0.7082,0.7095,0.7021,0.6767,0.6698,0.6505,0.6183,0.5956,0.5732,0.5535,0.5094,0.4714,0.0,0.0,0.0,0.0,0.0,0.0,0.0,0.0,0.0,0.0,0.0,0.0,0.0,0.0,0.0,0.0,0.0,0.0,0.0,0.0,0.0,0.0,0.0,0.0,0.0,0.0,0.0,0.0,0.4602,0.489,0.495,0.5187,0.5257,0.0,0.0,0.0,0.0,0.0,0.0,0.6256,0.6461,0.6749,0.7152,0.7465,0.7743,0.8038,0.8269,0.8401,0.8445,0.8665,0.8767,0.8771,0.8831,0.8885,0.8875,0.8818,0.8767,0.8716,0.8048,0.7614,0.7287,0.6959,0.677,0.6675,0.6892,0.6983,0.7054,0.7543,0.7638,0.7529,0.7455,0.0,0.6852,0.6765,0.0,0.0,0.0,0.0,0.6967,0.7084,0.7186,0.7361,0.778,0.779,0.7692,0.7748,0.7519,0.7101,0.0,0.6341,0.6135,0.5286,0.0,0.0,0.0,0.0,0.4824,0.5747,0.6559,0.7114,0.7085,0.7095,0.7021,0.6895,0.6743,0.6532,0.632,0.6153,0.5951,0.5654,0.5494,0.5146,0.4617,0.0,0.0,0.0,0.0,0.0,0.0,0.0,0.0,0.0,0.0,0.0,0.0,0.0,0.0,0.0,0.0,0.0,0.0,0.0,0.0,0.0,0.0,0.0,0.0,0.0,0.0,0.0,0.0,0.0,0.5096,0.5592,0.0,0.0,0.0,0.0,0.6231,0.6262,0.6478,0.7011,0.7231,0.7519,0.7921,0.814,0.8367,0.8662,0.8679,0.876,0.8851,0.8865,0.8871,0.8871,0.8878,0.8885,0.8885,0.8875,0.8871,0.8838,0.8428,0.814,0.7928,0.7807,0.7658,0.755,0.7699,0.7753,0.778,0.7907,0.7965,0.7978,0.8167,0.7914,0.7612,0.7824,0.7471,0.0,0.0,0.7453,0.7893,0.7699,0.7722,0.7821,0.7938,0.7971,0.7971,0.7978,0.7955,0.7749,0.0,0.6825,0.6491,0.5851,0.0,0.5001,0.5322,0.4856,0.4733,0.535,0.6414,0.7088,0.7095,0.7095,0.7111,0.7069,0.683,0.6573,0.632,0.6311,0.6147,0.5796,0.5549,0.5248,0.4901,0.5113,0.0,0.0,0.0,0.0,0.0,0.0,0.0,0.0,0.0,0.0,0.0,0.0,0.0,0.0,0.0,0.0,0.0,0.0,0.0,0.0,0.0,0.0,0.0,0.0,0.0,0.0,0.0,0.0,0.5848,0.6276,0.0,0.6322,0.6424,0.6651,0.6996,0.7108,0.7339,0.7841,0.7919,0.8109,0.8459,0.8526,0.8652,0.8801,0.8804,0.8828,0.8885,0.8885,0.8885,0.8885,0.8885,0.8885,0.8878,0.8835,0.8849,0.8865,0.8659,0.8523,0.8455,0.8303,0.8211,0.8174,0.8225,0.8306,0.8397,0.8452,0.8472,0.8448,0.8419,0.8176,0.788,0.7983,0.7848,0.7679,0.7694,0.7969,0.828,0.8126,0.8123,0.8119,0.8174,0.8113,0.7988,0.7988,0.7997,0.7913,0.7702,0.759,0.7364,0.6736,0.6454,0.6347,0.6461,0.6307,0.6137,0.6014,0.6616,0.7095,0.7095,0.7095,0.7111,0.711,0.6702,0.6408,0.6294,0.6293,0.6262,0.6113,0.5776,0.5424,0.5023,0.4952,0.4756,0.0,0.0,0.0,0.0,0.0,0.0,0.0,0.0,0.0,0.0,0.0,0.0,0.0,0.0,0.0,0.0,0.0,0.0,0.0,0.0,0.0,0.0,0.0,0.0,0.0,0.0,0.6208,0.6343,0.6871,0.7135,0.6974,0.713,0.7407,0.7706,0.777,0.8001,0.8397,0.8418,0.8533,0.8777,0.8788,0.8835,0.8881,0.8885,0.8885,0.8885,0.8885,0.8885,0.8885,0.8885,0.8885,0.8878,0.8832,0.879,0.8875,0.8828,0.8788,0.8777,0.8676,0.8635,0.8635,0.8635,0.8699,0.8788,0.8788,0.8788,0.8747,0.866,0.8473,0.8284,0.8289,0.8292,0.8313,0.8313,0.8446,0.8629,0.8511,0.8429,0.8323,0.8217,0.8099,0.7988,0.7988,0.7988,0.7988,0.7988,0.8007,0.7851,0.7492,0.7213,0.7109,0.7105,0.7105,0.6957,0.66,0.6903,0.7095,0.7095,0.7095,0.7111,0.711,0.661,0.6311,0.6287,0.6125,0.6052,0.6141,0.5779,0.5427,0.5114,0.4926,0.4896,0.5,0.0,0.0,0.0,0.0,0.0,0.0,0.0,0.0,0.0,0.0,0.0,0.0,0.0,0.0,0.0,0.0,0.0,0.0,0.0,0.0,0.0,0.0,0.0,0.5437,0.6057,0.6528,0.6552,0.7292,0.7716,0.748,0.7794,0.8109,0.8316,0.8323,0.8397,0.8686,0.871,0.8777,0.8871,0.8881,0.8885,0.8885,0.8885,0.8885,0.8885,0.8885,0.8885,0.8885,0.8885,0.8885,0.8885,0.8885,0.8885,0.8885,0.8885,0.8885,0.8885,0.8885,0.8885,0.8885,0.8885,0.8885,0.8885,0.8885,0.8885,0.8913,0.8879,0.8885,0.8911,0.8924,0.8878,0.8878,0.8878,0.8878,0.8878,0.8878,0.8713,0.8439,0.8118,0.8002,0.7995,0.7992,0.7988,0.7988,0.7988,0.8021,0.8014,0.8011,0.7523,0.7099,0.709,0.7103,0.0,0.7095,0.7095,0.7095,0.7095,0.7095,0.7111,0.7117,0.6607,0.6291,0.6261,0.5741,0.5539,0.5786,0.5545,0.532,0.5141,0.5136,0.5497,0.6218,0.0,0.0,0.0,0.0,0.0,0.0,0.0,0.0,0.0,0.0,0.0,0.0,0.0,0.0,0.0,0.0,0.0,0.0,0.0,0.0,0.0,0.0,0.6037,0.6037,0.6577,0.7056,0.738,0.7885,0.8191,0.8177,0.8194,0.8265,0.8414,0.8381,0.835,0.8533,0.8652,0.873,0.8771,0.8824,0.8885,0.8885,0.8885,0.8885,0.8885,0.8885,0.8885,0.8885,0.8885,0.8885,0.8885,0.8885,0.8885,0.8885,0.8885,0.8885,0.8885,0.8885,0.8885,0.8885,0.8885,0.8885,0.8885,0.8885,0.8885,0.8878,0.8889,0.8876,0.8924,0.8883,0.8927,0.8927,0.8927,0.8927,0.8927,0.8927,0.8868,0.8779,0.8664,0.8313,0.8019,0.8012,0.7988,0.7988,0.7988,0.8007,0.7992,0.798,0.7842,0.7617,0.7165,0.7102,0.0,0.7109,0.7095,0.7095,0.7095,0.7095,0.7112,0.7101,0.6597,0.611,0.5689,0.5908,0.5888,0.5525,0.5436,0.551,0.5733,0.5743,0.6004,0.0,0.0,0.0,0.0,0.0,0.0,0.0,0.0,0.0,0.0,0.0,0.0,0.0,0.0,0.0,0.0,0.0,0.0,0.0,0.0,0.0,0.0,0.6128,0.662,0.6832,0.7154,0.7493,0.7848,0.8204,0.8492,0.8482,0.8465,0.8462,0.8479,0.8465,0.8489,0.8574,0.8723,0.8804,0.8804,0.8838,0.8885,0.8885,0.8885,0.8885,0.8885,0.8885,0.8885,0.8885,0.8885,0.8885,0.0,0.8885,0.8885,0.8885,0.8885,0.8885,0.0,0.0,0.0,0.0,0.0,0.8885,0.8885,0.8885,0.8885,0.8885,0.8885,0.8885,0.8885,0.8885,0.8885,0.8885,0.8885,0.8893,0.89,0.89,0.8908,0.8885,0.8897,0.8439,0.7995,0.8008,0.7988,0.7988,0.7988,0.7988,0.0,0.8024,0.8004,0.79,0.7533,0.726,0.7106,0.711,0.7091,0.7095,0.7095,0.7095,0.7085,0.7118,0.6816,0.0,0.0,0.0,0.6095,0.6478,0.6506,0.0,0.0,0.0,0.0,0.0,0.0,0.0,0.0,0.6385,0.5899,0.0,0.0,0.0,0.0,0.0,0.0,0.0,0.0,0.0,0.0,0.0,0.0,0.0,0.0,0.0,0.0,0.6695,0.7136,0.7556,0.7763,0.7913,0.7998,0.8431,0.8632,0.8496,0.8591,0.8604,0.8469,0.8584,0.8662,0.8662,0.0,0.0,0.0,0.0,0.8885,0.8885,0.8885,0.8885,0.8885,0.8885,0.8885,0.8885,0.8885,0.8885,0.8885,0.8885,0.8885,0.8885,0.8885,0.8885,0.8885,0.8885,0.8885,0.8885,0.8885,0.8885,0.8885,0.8885,0.0,0.0,0.8865,0.8858,0.8854,0.8838,0.8834,0.8831,0.8831,0.8845,0.885,0.885,0.8871,0.8874,0.8801,0.8376,0.8008,0.7992,0.7988,0.7988,0.7988,0.7988,0.7988,0.7988,0.7979,0.798,0.8011,0.754,0.7171,0.7093,0.711,0.7115,0.7098,0.0,0.0,0.7099,0.7116,0.6881,0.6348,0.5782,0.6351,0.8309,0.8142,0.755,0.6623,0.769,0.8169,0.8069,0.9405,1.0089,1.0085,0.7464,0.6588,0.0,0.0,0.0,0.0,0.0,0.0,0.0,0.0,0.0,0.0,0.0,0.0,0.0,0.0,0.0,0.6543,0.7112,0.7529,0.774,0.8007,0.8194,0.8221,0.8404,0.8516,0.8486,0.8408,0.8343,0.8364,0.834,0.8353,0.8353,0.8611,0.0,0.8754,0.8817,0.8885,0.8885,0.8885,0.8885,0.8885,0.0,0.0,0.8885,0.8885,0.8885,0.8885,0.8885,0.8885,0.8885,0.8885,0.8885,0.8885,0.8885,0.8885,0.8885,0.8885,0.8885,0.8885,0.8885,0.8885,0.8861,0.8685,0.8642,0.8564,0.8555,0.857,0.0,0.8461,0.8494,0.8579,0.8579,0.8755,0.8786,0.8296,0.8088,0.7985,0.8015,0.7988,0.7988,0.7988,0.7988,0.7988,0.7988,0.8014,0.8006,0.798,0.7911,0.7641,0.7165,0.7109,0.7095,0.7109,0.7095,0.7085,0.7102,0.7118,0.6864,0.6321,0.6204,0.7495,1.0604,0.8976,0.8317,0.9002,0.9472,0.991,1.0354,1.0861,1.1133,1.1094,1.0103,0.9219,0.0,0.0,0.0,0.0,0.0,0.0,0.0,0.0,0.0,0.0,0.0,0.5359,0.5717,0.0,0.6651,0.707,0.7479,0.7756,0.7902,0.8184,0.835,0.833,0.8394,0.8455,0.8384,0.8364,0.8323,0.8323,0.8388,0.8411,0.8486,0.8703,0.8825,0.8825,0.8844,0.8885,0.8885,0.8885,0.8885,0.8885,0.8885,0.8885,0.8885,0.8885,0.8885,0.8885,0.8885,0.8885,0.8885,0.8885,0.8885,0.8885,0.8885,0.8885,0.8885,0.8885,0.8885,0.8871,0.8797,0.8825,0.8801,0.8645,0.8488,0.8418,0.8397,0.8374,0.8374,0.8374,0.8431,0.8484,0.8484,0.8477,0.835,0.8066,0.7999,0.7979,0.8005,0.7988,0.7988,0.7988,0.7988,0.7988,0.7988,0.7988,0.8014,0.7989,0.8011,0.7907,0.7611,0.7273,0.7106,0.7082,0.7094,0.7095,0.7095,0.7101,0.6919,0.6515,0.6374,0.7627,1.0595,0.9521,0.9171,0.9877,1.0618,1.0937,1.0805,1.1506,1.1864,1.1822,1.1598,1.1137,0.0,0.0,0.0,0.0,0.0,0.0,0.0,0.0,0.5004,0.5262,0.557,0.5944,0.6465,0.6726,0.702,0.755,0.776,0.7899,0.7971,0.8245,0.8353,0.8238,0.8377,0.8425,0.8337,0.8245,0.8225,0.8225,0.8384,0.8537,0.8659,0.8838,0.8885,0.8885,0.8885,0.8885,0.8885,0.8885,0.8885,0.8885,0.8885,0.8885,0.8885,0.8885,0.8885,0.8885,0.8885,0.8885,0.8885,0.8885,0.8885,0.8885,0.8885,0.8885,0.8885,0.8885,0.8885,0.8865,0.8798,0.8754,0.8723,0.8596,0.8482,0.8308,0.8252,0.8235,0.8287,0.8394,0.8419,0.8384,0.8384,0.8187,0.7988,0.7988,0.7988,0.7988,0.7988,0.7988,0.7988,0.7988,0.7988,0.7988,0.7988,0.7988,0.7988,0.7988,0.7985,0.8143,0.8449,0.7804,0.7383,0.7762,0.7385,0.7474,0.8388,0.8053,0.7504,0.6822,0.7132,0.8172,1.0133,1.0152,1.0278,1.0694,1.1644,1.1797,1.1052,1.1981,1.2397,1.2309,1.2309,1.2287,0.1057,0.0673,0.0267,0.111,0.2008,0.3002,0.0,0.0,0.5759,0.6104,0.6273,0.6486,0.6778,0.7097,0.7405,0.7719,0.7867,0.7971,0.7988,0.8019,0.8032,0.8019,0.8313,0.8425,0.8337,0.8147,0.8015,0.8015,0.8323,0.8489,0.8506,0.8781,0.8885,0.8885,0.8885,0.8885,0.8885,0.8885,0.8885,0.8885,0.8885,0.8885,0.8885,0.8885,0.8885,0.8885,0.8885,0.8885,0.8885,0.8885,0.8885,0.8885,0.8885,0.8885,0.8885,0.8885,0.8885,0.8881,0.8865,0.8858,0.8811,0.8574,0.8482,0.8431,0.8116,0.8039,0.8039,0.8039,0.8075,0.8065,0.8065,0.8052,0.7988,0.7988,0.7988,0.7988,0.7988,0.7988,0.7988,0.7988,0.7988,0.7988,0.7988,0.7988,0.7988,0.7988,0.7975,0.8557,1.0106,0.891,0.8471,1.0041,0.836,0.8801,1.2947,1.1389,0.9289,0.7172,0.9493,1.0963,1.1043,1.134,1.1924,1.285,1.3007,1.2929,1.2635,1.2785,1.2667,1.2315,1.2315,1.2312,0.0459,0.0272,0.0091,0.0442,0.1704,0.2971,0.3563,0.4943,0.6157,0.6463,0.664,0.6849,0.7243,0.7426,0.7588,0.0,0.7948,0.7988,0.7988,0.8116,0.8174,0.8174,0.8286,0.8299,0.815,0.8025,0.8025,0.8167,0.8367,0.852,0.8611,0.8821,0.8885,0.8885,0.8885,0.8885,0.8885,0.8885,0.8885,0.8885,0.8885,0.8885,0.8885,0.8885,0.8885,0.8885,0.8885,0.8885,0.8885,0.8885,0.8885,0.8885,0.8885,0.8885,0.8885,0.8885,0.8885,0.8871,0.8835,0.8804,0.8771,0.8554,0.8425,0.8336,0.8211,0.8109,0.8187,0.892,0.9324,0.9517,0.9526,1.0288,1.0913,1.0395,0.9878,0.9669,1.0137,0.9858,0.9525,0.9525,0.8684,0.7988,0.7988,0.7988,0.7988,0.7988,0.7988,0.8612,1.036,1.0872,1.1429,1.2529,1.1778,1.1592,1.2677,1.1863,1.0665,0.9244,1.023,1.1084,1.1577,1.167,1.2108,1.2995,1.3035,1.3035,1.3074,1.3074,1.2811,1.2324,1.2672,1.3027,0.0064,0.0,0.0,0.0,0.1548,0.3085,0.32,0.4919,0.6516,0.6784,0.6868,0.7062,0.7449,0.755,0.7614,0.7891,0.7928,0.7941,0.7985,0.8136,0.8208,0.8208,0.8208,0.8163,0.8002,0.7988,0.8035,0.8197,0.8377,0.853,0.8642,0.8832,0.8885,0.8885,0.8885,0.8885,0.8885,0.8885,0.8885,0.8885,0.8885,0.8885,0.8885,0.8885,0.8885,0.8885,0.8885,0.8885,0.8885,0.8885,0.8885,0.8885,0.8885,0.8885,0.8885,0.8885,0.8885,0.8868,0.8811,0.8774,0.8747,0.8594,0.8445,0.8374,0.8333,0.8163,0.8283,0.9608,1.0207,1.0551,1.1142,1.2058,1.2737,1.2365,1.1585,1.1123,1.1745,1.1375,1.0949,1.0949,0.9961,0.9065,0.9065,0.9065,0.9065,0.9065,0.9065,0.9513,1.0801,1.2576,1.3831,1.4072,1.4102,1.3643,1.2545,1.241,1.2037,1.1128,1.1308,1.1592,1.201,1.2263,1.266,1.3226,1.3226,1.3313,1.3454,1.3454,1.3226,1.2817,1.3226,1.3682,0.0218,0.0,0.0,0.0,0.1709,0.3431,0.3548,0.5303,0.6926,0.7044,0.7095,0.7159,0.7365,0.7414,0.7478,0.777,0.7818,0.7868,0.7968,0.7992,0.7995,0.7995,0.7995,0.7995,0.0,0.7988,0.7992,0.7995,0.8316,0.8482,0.8489,0.8774,0.8885,0.8885,0.8885,0.8885,0.8885,0.8885,0.8885,0.8885,0.8885,0.8885,0.8885,0.8885,0.8885,0.8885,0.8885,0.8885,0.8885,0.8885,0.8885,0.8885,0.8885,0.8885,0.8885,0.8885,0.8885,0.8885,0.8878,0.8875,0.8851,0.8754,0.8601,0.8452,0.8364,0.8163,0.8283,0.9608,0.9998,1.0498,1.2602,1.2527,1.216,1.2948,1.2473,1.1848,1.1896,1.1901,1.1853,1.1853,1.1799,1.1799,1.1799,1.1799,1.1799,1.1799,1.1799,1.1804,1.1853,1.3793,1.487,1.4174,1.4078,1.4095,1.4046,1.4046,1.3519,1.2328,1.333,1.3499,1.2359,1.3402,1.4062,1.4062,1.4062,1.4062,1.4062,1.4062,1.4062,1.4062,1.4062,1.4062,0.0227,0.0,0.0183,0.1004,0.237,0.3746,0.4612,0.5952,0.7014,0.697,0.6973,0.6977,0.7045,0.7122,0.7316,0.7621,0.775,0.7865,0.7968,0.813,0.8153,0.8002,0.813,0.0,0.0,0.0,0.0,0.7988,0.8313,0.8482,0.8482,0.8771,0.8885,0.8885,0.8885,0.8885,0.8885,0.8885,0.8885,0.8885,0.8885,0.8885,0.8885,0.8885,0.8885,0.8885,0.8885,0.8885,0.8885,0.8885,0.8885,0.8885,0.8885,0.8885,0.8885,0.8885,0.8885,0.8885,0.8885,0.8885,0.8875,0.8824,0.8757,0.8604,0.8455,0.8911,0.97,1.0909,1.1891,1.2963,1.4496,1.4729,1.4573,1.4844,1.4682,1.4465,1.4465,1.383,1.3247,1.3247,1.2528,1.1896,1.1896,1.1896,1.1692,1.1118,1.2302,1.3091,1.278,1.444,1.5413,1.4857,1.4619,1.4475,1.4376,1.4202,1.3913,1.3512,1.3864,1.3913,1.3512,1.3864,1.4088,1.4088,1.4088,1.4088,1.4088,1.4088,1.4088,1.4088,1.4088,1.4088,0.0648,0.0658,0.0936,0.2156,0.3368,0.4437,0.5244,0.626,0.697,0.6873,0.678,0.6749,0.6702,0.6763,0.6959,0.737,0.7512,0.7699,0.8069,0.816,0.817,0.8126,0.816,0.815,0.0,0.0,0.0,0.7988,0.8313,0.8482,0.8482,0.8771,0.8885,0.8885,0.8885,0.8885,0.8885,0.8885,0.8885,0.8885,0.8885,0.8885,0.8885,0.8885,0.8885,0.8885,0.8885,0.8885,0.8885,0.8885,0.8885,0.8885,0.8885,0.8885,0.8885,0.8885,0.921,0.9592,0.9103,0.8885,0.8885,0.8885,0.8835,0.8682,0.8526,0.8991,0.9831,1.1467,1.2522,1.359,1.5337,1.5784,1.5784,1.5784,1.5784,1.5784,1.5784,1.5146,1.4561,1.4561,1.3884,1.3307,1.3307,1.3307,1.3097,1.2523,1.3663,1.425,1.3341,1.4703,1.5655,1.5292,1.5022,1.4781,1.4529,1.4349,1.4202,1.4095,1.4088,1.4088,1.4088,1.4088,1.4088,1.4088,1.4088,1.4088,1.4088,1.4088,1.4088,1.4088,1.4088,1.4088,0.1469,0.1791,0.2123,0.338,0.4558,0.5386,0.5481,0.621,0.6861,0.6709,0.6549,0.6436,0.0,0.0,0.6441,0.6991,0.7098,0.7414,0.8163,0.8143,0.8106,0.0,0.0,0.0,0.0,0.0,0.0,0.8002,0.0,0.8482,0.8482,0.8771,0.8885,0.8885,0.8885,0.8885,0.8885,0.8885,0.8885,0.8885,0.8885,0.8885,0.8885,0.8885,0.8885,0.8885,0.8885,0.8885,0.8885,0.8885,0.8885,0.8885,0.8885,0.8885,0.8885,0.8885,0.9809,1.0891,0.9482,0.8992,0.8992,0.8992,0.8893,0.8693,0.854,0.8446,0.8903,1.1241,1.1955,1.2576,1.5146,1.5784,1.5784,1.5784,1.5784,1.5784,1.5784,1.5784,1.5784,1.5784,1.5784,1.5784,1.5784,1.5784,1.5784,1.5784,1.5784,1.5181,1.3538,1.4763,1.5682,1.547,1.5307,1.5024,1.4589,1.4536,1.4402,1.4128,1.4095,1.4088,1.4088,1.4088,1.4088,1.4088,1.4088,1.4088,1.4088,1.4088,1.4088,1.4088,1.4088,1.4088,0.1478,0.1782,0.2319,0.4404,0.5082,0.5411,0.6313,0.6563,0.6549,0.6443,0.6159,0.5962,0.0,0.0,0.0,0.6842,0.7166,0.0,0.8231,0.8238,0.0,0.8316,0.0,0.8167,0.8002,0.7988,0.0,0.0,0.8381,0.8482,0.8482,0.8771,0.8885,0.8885,0.8885,0.8885,0.8885,0.8885,0.8885,0.8885,0.8885,0.8885,0.8885,0.8885,0.8885,0.8885,0.8885,0.8885,0.8885,0.8885,0.8885,0.8885,0.8885,0.8885,0.8885,0.8885,0.9809,1.1051,1.0676,1.0566,1.0566,1.0566,0.9779,0.8797,0.8699,0.9226,1.0184,1.1699,1.2753,1.3782,1.5391,1.5784,1.5784,1.5784,1.5784,1.5784,1.5784,1.5784,1.5784,1.5784,1.5784,1.5784,1.5784,1.5784,1.5784,1.5784,1.5784,1.5629,1.5181,1.5522,1.5772,1.5718,1.5511,1.5303,1.5184,1.477,1.4489,1.4416,1.4208,1.4088,1.4088,1.4088,1.4088,1.4088,1.4088,1.4088,1.4088,1.4088,1.4088,1.4088,1.4088,1.4088,0.2119,0.2575,0.3174,0.5559,0.601,0.6025,0.6589,0.6495,0.62,0.5962,0.5674,0.5488,0.5426,0.5593,0.0,0.0,0.0,0.0,0.8075,0.8228,0.8323,0.0,0.8323,0.0,0.8005,0.8531,0.8696,0.0,0.8404,0.8513,0.8577,0.8808,0.8885,0.8885,0.8885,0.8885,0.8885,0.8885,0.8885,0.8885,0.8885,0.8885,0.8885,0.8885,0.8885,0.8885,0.0,0.8885,0.8885,0.8885,0.8885,0.8885,0.8885,0.8885,0.8992,0.9644,1.0781,1.2132,1.2778,1.2994,1.2886,1.2295,1.1483,1.0694,0.9927,1.0538,1.1638,1.2052,1.3117,1.4358,1.5519,1.5784,1.5784,1.5784,1.5784,1.5784,1.5784,1.5784,1.5784,1.5784,1.5784,1.5784,1.5784,1.5784,1.5784,1.5784,1.5784,1.5784,1.5784,1.5784,1.5784,1.5784,1.5685,1.5531,1.5404,1.509,1.485,1.4723,1.4563,1.4469,1.4469,1.4342,1.4282,1.4282,1.4155,1.4088,1.4088,1.4088,1.4088,1.4088,1.4088,1.4088,0.2926,0.3601,0.4178,0.648,0.694,0.6787,0.6481,0.6169,0.5827,0.545,0.5192,0.5015,0.4931,0.5159,0.5576,0.6224,0.0,0.7122,0.7884,0.8136,0.8225,0.8316,0.8252,0.8187,0.8002,0.9217,0.9594,0.8688,0.8872,0.9015,0.9019,0.9286,0.9372,0.921,0.8992,0.8885,0.8885,0.8885,0.8885,0.8885,0.8885,0.8885,0.8885,0.8885,0.8885,0.8885,0.0,0.0,0.8885,0.8885,0.8885,0.8885,0.8885,0.8992,0.9375,1.0621,1.2132,1.375,1.4984,1.5524,1.547,1.4019,1.3426,1.3014,1.1657,1.2053,1.2939,1.2577,1.3386,1.4545,1.5565,1.5784,1.5784,1.5784,1.5784,1.5784,1.5784,1.5784,1.5784,1.5784,1.5784,1.5784,1.5784,1.5784,1.5784,1.5784,1.5784,1.5784,1.5784,1.5784,1.5784,1.5784,1.5784,1.5732,1.5478,1.5418,1.5291,1.5082,1.5028,1.5008,1.5008,1.4716,1.4583,1.4583,1.4329,1.4202,1.4202,1.4202,1.4202,1.4202,1.4202,1.4153,0.2934,0.3613,0.4146,0.6362,0.6764,0.6474,0.6176,0.5779,0.0,0.5213,0.4955,0.4833,0.5022,0.5103,0.5447,0.6337,0.6607,0.7044,0.7867,0.7953,0.7987,0.0,0.8157,0.8019,0.7992,0.0,0.0,0.0,0.0,1.1505,1.0547,1.1805,1.1969,1.0781,0.9537,0.8885,0.8885,0.8885,0.8885,0.8885,0.8885,0.8885,0.8885,0.8885,0.8885,0.8885,0.8885,0.0,0.8885,0.8885,0.8885,0.8885,0.8885,0.9644,1.0731,1.1,1.2778,1.5091,1.531,1.6227,1.6988,1.5524,1.4234,1.3259,1.295,1.2913,1.3132,1.3897,1.4225,1.4545,1.5565,1.5784,1.5784,1.5784,1.5784,1.5784,1.5784,1.5784,1.5784,1.5784,1.5784,1.5784,1.5784,1.5784,1.5784,1.5784,1.5784,1.5784,1.5784,1.5784,1.5784,1.5784,1.5784,1.5758,1.5711,1.5531,1.5378,1.5324,1.5142,1.5008,1.5008,1.4961,1.4928,1.4928,1.4881,1.4854,1.4854,1.4854,1.4759,1.4606,1.4606,1.4408,0.3736,0.402,0.4132,0.6353,0.6702,0.6392,0.5905,0.0,0.0,0.4847,0.4699,0.4644,0.4755,0.4911,0.0,0.5835,0.6149,0.6637,0.7409,0.7648,0.0,0.8116,0.8747,0.8864,0.0,0.0,0.0,0.0,0.0,1.2848,1.1115,1.1004,1.1055,1.1105,0.9644,0.8885,0.8885,0.8885,0.8885,0.8885,0.8885,0.8885,0.8937,0.9699,0.9644,0.8937,0.9699,0.0,0.8885,0.8885,0.8885,0.8885,0.8885,0.9805,1.1214,1.1969,1.3588,1.5524,1.628,1.6988,1.747,1.677,1.6068,1.5364,1.4609,1.4845,1.5334,1.4872,1.5121,1.5611,1.5987,1.5945,1.5784,1.5784,1.5784,1.5784,1.5784,1.5784,1.5784,1.5784,1.5784,1.5784,1.5784,1.5784,1.5784,1.5784,1.5784,1.5784,1.5784,1.5784,1.5784,1.5784,1.5784,1.5784,1.5784,1.5705,1.5618,1.5618,1.5491,1.5418,1.5418,1.5218,1.5184,1.5393,1.514,1.5015,1.5111,1.5015,1.4905,1.4706,1.4809,1.4757,0.418,0.42,0.4122,0.6319,0.6671,0.631,0.5713,0.5304,0.4935,0.4576,0.4491,0.4501,0.4532,0.4707,0.4989,0.0,0.5732,0.6202,0.6947,0.7356,0.7658,0.0,0.9007,0.0,0.0,0.0,0.0,0.0,0.0,0.0,1.1683,1.0457,1.0241,1.1051,0.997,0.921,0.8885,0.8885,0.8885,0.8885,0.8885,0.8885,0.8937,1.0457,1.0457,0.9427,1.0621,0.0,0.0,0.9372,0.921,0.8937,0.9588,1.0566,1.1755,1.321,1.4663,1.6068,1.7199,1.7582,1.7582,1.7582,1.7582,1.7364,1.6227,1.6658,1.7305,1.5848,1.6043,1.664,1.6346,1.6052,1.5784,1.5784,1.5784,1.5784,1.5784,1.5784,1.5784,1.5784,1.5784,1.5784,1.5784,1.5784,1.5784,1.5784,1.5784,1.5784,1.5784,1.5784,1.5784,1.5784,1.5784,1.5784,1.5784,1.5784,1.5784,1.5784,1.5784,1.5784,1.5784,1.5504,1.5491,1.5803,1.5369,1.5196,1.5345,1.5196,1.5092,1.4942,1.5092,1.515,0.3278,0.3652,0.4114,0.6201,0.6507,0.616,0.5556,0.0,0.4847,0.4556,0.4491,0.4532,0.4672,0.4694,0.0,0.0,0.5711,0.6088,0.6798,0.7204,0.7502,0.7797,0.0,0.0,0.0,0.0,0.0,0.0,0.0,0.0,1.3092,1.2994,1.2349,1.116,1.0945,1.0241,0.894,0.8885,0.8885,0.8885,0.8885,0.8885,0.8937,1.0457,1.1055,1.0891,1.1055,0.0,0.0,1.0891,1.0131,0.9154,1.1864,1.2999,1.3264,1.4716,1.6121,1.7417,1.7529,1.7582,1.7582,1.7582,1.7582,1.7582,1.7417,1.7477,1.7522,1.7125,1.6832,1.664,1.6346,1.6052,1.5784,1.5784,1.5784,1.5784,1.5784,1.5784,1.5784,1.5784,1.5784,1.5784,1.5784,1.5784,1.5784,1.5784,1.5784,1.5784,1.5784,1.5784,1.5784,1.5784,1.5784,1.5784,1.5784,1.5784,1.5784,1.5784,1.5784,1.5784,1.5784,1.5751,1.5744,1.5792,1.5765,1.5752,1.5752,1.5752,1.5704,1.5698,1.5704,1.5752,0.3982,0.3923,0.393,0.6039,0.6328,0.5989,0.5511,0.5131,0.4833,0.4552,0.4491,0.4508,0.4569,0.4583,0.4689,0.4992,0.5098,0.5393,0.6146,0.643,0.6807,0.7468,0.0,0.0,0.0,0.0,0.0,0.0,0.0,0.0,1.1844,1.1046,1.0781,1.1105,1.0241,0.9482,0.8885,0.8885,0.8885,0.8885,0.8885,0.9372,1.0296,1.1755,1.2403,1.2403,1.2403,0.0,0.0,1.1105,1.0726,1.0457,1.2512,1.3804,1.4609,1.5204,1.6333,1.7582,1.7582,1.7582,1.7582,1.7582,1.7582,1.7582,1.7582,1.7582,1.7555,1.7494,1.7068,1.668,1.6567,1.6186,1.5784,1.5784,1.5784,1.5784,1.5784,1.5784,1.5784,1.5784,1.5784,1.5784,1.5784,1.5784,1.5784,1.5784,1.5784,1.5784,1.5784,1.5784,1.5784,1.5784,1.5784,1.5784,1.5784,1.5784,1.5784,1.5784,1.5784,1.5784,1.5784,1.5784,1.5784,1.5784,1.5784,1.5784,1.5784,1.5784,1.5784,1.5784,1.5784,1.5784,0.4456,0.425,0.4166,0.5977,0.6187,0.5844,0.5396,0.5064,0.4775,0.4545,0.4491,0.4491,0.4491,0.4491,0.4542,0.4667,0.4765,0.505,0.5708,0.601,0.6427,0.0,0.0,0.0,0.0,0.0,0.0,0.0,0.0,0.0,0.0,1.0023,0.9708,1.0457,0.986,0.9316,0.8885,0.8885,0.8885,0.8885,0.9316,1.0076,1.116,1.3048,1.3911,1.3911,0.0,0.0,0.0,1.2186,1.1864,1.1324,1.3642,1.4931,1.547,1.5902,1.6711,1.7582,1.7582,1.7582,1.7582,1.7582,1.7582,1.7582,1.7582,1.7582,1.7582,1.7582,1.7221,1.68,1.6627,1.6273,1.5939,1.5804,1.5784,1.5784,1.5784,1.5784,1.5784,1.5784,1.5784,1.5784,1.5784,1.5784,1.5784,1.5784,1.5784,1.5784,1.5784,1.5784,1.5784,1.5784,1.5784,1.5784,1.5784,1.5784,1.5784,1.5784,1.5784,1.5784,1.5784,1.5784,1.5784,1.5784,1.5784,1.5784,1.5784,1.5784,1.5784,1.5784,1.5784,1.5784,0.4357,0.4596,0.4952,0.6022,0.6067,0.5688,0.5201,0.4904,0.4679,0.4522,0.4491,0.4491,0.4491,0.4491,0.4542,0.4667,0.4935,0.5251,0.5739,0.6186,0.0,0.0,0.0,0.0,0.0,0.0,0.0,0.0,0.0,0.0,0.0,1.1165,0.9936,0.8927,1.0296,1.0406,0.894,0.8885,0.8885,0.894,1.0406,1.1105,1.1214,1.4067,1.5364,0.0,0.0,0.0,0.0,1.477,1.3691,1.1538,1.5849,1.6658,1.5577,1.7041,1.7582,1.7582,1.7582,1.7582,1.7582,1.7582,1.7582,1.7582,1.7582,1.7582,1.7582,1.7582,1.742,1.7065,1.6482,1.6321,1.6192,1.5899,1.5784,1.5784,1.5784,1.5784,1.5784,1.5784,1.5784,1.5784,1.5784,1.5784,1.5784,1.5784,1.5784,1.5784,1.5784,1.5784,1.5784,1.5784,1.5784,1.5784,1.5784,1.5784,1.5784,1.5784,1.5784,1.5784,1.5784,1.5784,1.5784,1.5784,1.5784,1.5784,1.5784,1.5784,1.5784,1.5784,1.5784,1.5784,0.3908,0.4069,0.4329,0.5431,0.5494,0.5248,0.5009,0.4833,0.4675,0.4522,0.4491,0.4491,0.4491,0.4491,0.4576,0.4806,0.4894,0.511,0.0,0.0,0.0,0.0,0.0,0.0,0.0,0.0,0.0,0.0,0.0,0.0,0.0,1.2516,1.0919,0.8832,0.9211,0.9261,0.8881,0.8885,0.9427,1.0402,1.0891,1.2132,1.4067,1.4984,0.0,0.0,0.0,0.0,0.0,1.5204,1.4877,1.4282,1.6664,1.7312,1.6982,1.7417,1.7582,1.7582,1.7582,1.7582,1.7582,1.7582,1.7582,1.7582,1.7582,1.7582,1.7542,1.7393,1.7273,1.7065,1.6476,1.6321,1.6199,1.5899,1.5784,1.5784,1.5784,1.5784,1.5784,1.5784,1.5784,1.5784,1.5784,1.5784,1.5784,1.5784,1.5784,1.5784,1.5784,1.5784,1.5784,1.5784,1.5784,1.5784,1.5784,1.5784,1.5784,1.5784,1.5784,1.5784,1.5784,1.5784,1.5784,1.5784,1.5784,1.5784,1.5784,1.5784,1.5784,1.5784,1.5784,1.5784,0.4117,0.4252,0.4445,0.5107,0.5162,0.4982,0.4867,0.4714,0.4607,0.4508,0.4491,0.4491,0.4491,0.4491,0.4552,0.4714,0.4843,0.0,0.0,0.0,0.0,0.0,0.0,0.0,0.0,0.0,0.0,0.0,0.0,0.0,0.0,1.2977,1.1388,0.9313,0.8856,0.8669,0.8764,0.9359,1.0058,1.0844,1.2033,1.3465,1.5077,1.5658,0.0,0.0,0.0,0.0,0.0,1.6015,1.5902,1.5524,1.7041,1.7582,1.7582,1.7582,1.7582,1.7582,1.7582,1.7582,1.7582,1.7582,1.7582,1.7582,1.7582,1.7582,1.7549,1.7414,1.7367,1.7226,1.6587,1.6433,1.6333,1.5878,1.5784,1.5784,1.5784,1.5784,1.5784,1.5784,1.5784,1.5784,1.5784,1.5784,1.5784,1.5784,1.5784,1.5784,1.5784,1.5784,1.5784,1.5784,1.5784,1.5784,1.5784,1.5784,1.5784,1.5784,1.5784,1.5784,1.5784,1.5784,1.5784,1.5784,1.5784,1.5784,1.5784,1.5784,1.5784,1.5784,1.5784,1.5784,0.0,0.4935,0.5052,0.5052,0.4955,0.485,0.4707,0.4593,0.0,0.4491,0.4491,0.4494,0.4505,0.4498,0.4501,0.4532,0.4758,0.0,0.0,0.0,0.0,0.0,0.0,0.0,0.0,0.0,0.0,0.0,0.0,0.0,0.0,1.2764,1.1496,1.0335,0.9194,0.8563,0.8482,1.0091,1.0769,1.0599,1.3538,1.4883,1.4698,1.6085,0.0,0.0,0.0,0.0,0.0,1.7009,1.6804,1.5689,1.7041,1.7582,1.7582,1.7582,1.7582,1.7582,1.7582,1.7582,1.7582,1.7582,1.7582,1.7582,1.7582,1.7582,1.7582,1.7582,1.7621,1.7481,1.6911,1.6744,1.6533,1.5917,1.5784,1.5784,1.5784,1.5784,1.5784,1.5784,1.5784,1.5784,1.5784,1.5784,1.5784,1.5784,1.5784,1.5784,1.5784,1.5784,1.5784,1.5784,1.5784,1.5784,1.5784,1.5784,1.5784,1.5784,1.5784,1.5784,1.5784,1.5784,1.5784,1.5784,1.5784,1.5784,1.5784,1.5784,1.5784,1.5784,1.5784,1.5784,0.4186,0.0,0.4648,0.4648,0.4624,0.459,0.0,0.4515,0.4491,0.4491,0.4491,0.4525,0.4644,0.4569,0.4604,0.4918,0.0,0.0,0.0,0.0,0.0,0.0,0.0,0.0,0.0,0.0,0.0,0.0,0.0,0.0,0.0,1.4124,1.2834,1.1531,1.0302,0.9259,0.8531,0.9867,1.1049,1.2084,1.3833,1.517,1.6192,1.655,0.0,0.0,0.0,0.0,1.6827,1.7145,1.7219,1.7094,1.7477,1.7582,1.7582,1.7582,1.7582,1.7582,1.7582,1.7582,1.7582,1.7582,1.7582,1.7582,1.7582,1.7582,1.7582,1.7582,1.7598,1.7568,1.7429,1.7047,1.6557,1.5925,1.5784,1.5784,1.5784,1.5784,1.5784,1.5784,1.5784,1.5784,1.5784,1.5784,1.5784,1.5784,1.5784,1.5784,1.5784,1.5784,1.5784,1.5784,1.5784,1.5784,1.5784,1.5784,1.5784,1.5784,1.5784,1.5784,1.5784,1.5784,1.5784,1.5784,1.5784,1.5784,1.5784,1.5784,1.5784,1.5784,1.5784,1.5784,0.3994,0.4189,0.4365,0.4365,0.444,0.4491,0.4491,0.4491,0.4491,0.4491,0.4491,0.4626,0.4988,0.4798,0.4782,0.0,0.5438,0.0,0.0,0.0,0.0,0.0,0.0,0.0,0.0,0.0,0.0,0.0,0.0,0.0,0.0,1.4609,1.3584,1.2861,1.1556,1.0045,0.8279,1.0276,1.1641,1.2299,1.4369,1.5673,1.6306,1.6306,1.638,0.0,0.0,0.0,1.7113,1.7113,1.7207,1.7356,1.7531,1.7495,1.7323,1.7551,1.7586,1.7582,1.7582,1.7582,1.7582,1.7582,1.7582,1.7582,1.7582,1.7582,1.7608,1.7592,1.7619,1.7561,1.7243,1.6945,1.6531,1.5953,1.5784,1.5784,1.5784,1.5784,1.5784,1.5784,1.5784,1.5784,1.5784,1.5784,1.5784,1.5784,1.5784,1.5784,1.5784,1.5784,1.5784,1.5784,1.5784,1.5784,1.5784,1.5784,1.5784,1.5784,1.5784,1.5784,1.5784,1.5784,1.5784,1.5784,1.5784,1.5784,1.5784,1.5784,1.5784,1.5784,1.5784,1.5784,0.3954,0.4089,0.4197,0.4197,0.4355,0.4491,0.4491,0.4491,0.4515,0.4625,0.457,0.475,0.5614,0.5201,0.0,0.0,0.0,0.0,0.0,0.0,0.0,0.0,0.0,0.0,0.0,0.0,0.0,0.0,0.0,0.0,0.0,1.48,1.4118,1.3926,1.2813,1.1019,0.8627,1.129,1.2477,1.2242,1.4947,1.6072,1.5784,1.5784,1.5965,0.0,0.0,0.0,1.6923,1.6866,1.6887,1.6991,1.7332,1.7231,1.7025,1.7438,1.7621,1.7582,1.7582,1.7582,1.7582,1.7582,1.7582,1.7582,1.7582,1.7582,1.7581,1.7578,1.749,1.7194,1.6704,1.6577,1.642,1.5905,1.5784,1.5784,1.5784,1.5784,1.5784,1.5784,1.5784,1.5784,1.5784,1.5784,1.5784,1.5784,1.5784,1.5784,1.5784,1.5784,1.5784,1.5784,1.5784,1.5784,1.5784,1.5784,1.5784,1.5784,1.5784,1.5784,1.5784,1.5784,1.5784,1.5784,1.5784,1.5784,1.5784,1.5784,1.5784,1.5784,1.5784,1.5784,0.3792,0.4008,0.4197,0.4197,0.4355,0.4491,0.4491,0.4491,0.4653,0.5218,0.4893,0.5011,0.6711,0.5837,0.5597,0.0,0.0,0.0,0.0,0.0,0.0,0.0,0.0,0.0,0.0,0.0,0.0,0.0,0.0,0.0,0.0,0.0,1.4997,1.3926,1.368,1.2861,1.1312,1.2899,1.3624,1.359,1.5137,1.5872,1.5784,1.5784,1.5804,0.0,0.0,1.612,1.6451,1.6117,1.6312,1.6764,1.682,1.6823,1.68,1.738,1.7621,1.7582,1.7582,1.7582,1.7582,1.7582,1.7582,1.7582,1.7582,1.7582,1.7581,1.7578,1.6851,1.6036,1.594,1.595,1.5923,1.5797,1.5784,1.5784,1.5784,1.5784,1.5784,1.5784,1.5784,1.5784,1.5784,1.5784,1.5784,1.5784,1.5784,1.5784,1.5784,1.5784,1.5784,1.5784,1.5784,1.5784,1.5784,1.5784,1.5784,1.5784,1.5784,1.5784,1.5784,1.5784,1.5784,1.5784,1.5784,1.5784,1.5784,1.5784,1.5784,1.5784,1.5784,1.5784,0.3682,0.3897,0.4099,0.4099,0.4419,0.4687,0.4634,0.5012,0.536,0.5223,0.5306,0.581,0.7072,0.0,0.6724,0.8934,0.0,0.0,0.0,0.0,0.0,0.0,0.0,0.0,0.0,0.0,0.0,0.0,0.0,0.0,0.0,0.0,1.5534,1.4949,1.4949,1.4609,1.4028,1.4609,1.4561,1.3926,1.5194,1.5784,1.5784,1.5784,1.5784,1.5784,0.0,1.5905,1.6039,1.5868,1.5948,1.6233,1.6233,1.619,1.6317,1.7258,1.7621,1.7582,1.7582,1.7582,1.7582,1.7582,1.7582,1.7582,1.7582,1.7582,1.7608,1.7592,1.721,1.6752,1.6756,1.631,1.5813,1.5797,1.5784,1.5784,1.5784,1.5784,1.5784,1.5784,1.5784,1.5784,1.5784,1.5784,1.5784,1.5784,1.5784,1.5784,1.5784,1.5784,1.5784,1.5784,1.5784,1.5784,1.5784,1.5784,1.5784,1.5784,1.5784,1.5784,1.5784,1.5784,1.5784,1.5784,1.5784,1.5784,1.5784,1.5784,1.5784,1.5784,1.5784,1.5784,0.3696,0.3873,0.4048,0.4048,0.4419,0.4858,0.5042,0.5681,0.619,0.6012,0.6358,0.7005,0.8,0.8231,0.0,1.0162,0.0,0.0,0.0,0.0,0.0,0.0,0.0,0.0,0.0,0.0,0.0,0.0,0.0,0.0,0.0,0.0,1.5784,1.5784,1.5784,1.5784,1.5784,1.5784,1.5289,1.4364,1.5337,1.5784,1.5784,1.5784,1.5784,1.5784,1.5784,1.5784,1.5784,1.5784,1.5784,1.5784,1.5784,1.5794,1.595,1.7157,1.7581,1.7607,1.7615,1.7582,1.7582,1.7582,1.7582,1.7582,1.7582,1.7582,1.7582,1.7582,1.7598,1.7592,1.7576,1.6699,1.58,1.5787,1.5777,1.5784,1.5784,1.5784,1.5784,1.5784,1.5784,1.5784,1.5784,1.5784,1.5784,1.5784,1.5784,1.5784,1.5784,1.5784,1.5784,1.5784,1.5784,1.5784,1.5784,1.5784,1.5784,1.5784,1.5784,1.5784,1.5784,1.5784,1.5784,1.5784,1.5784,1.5784,1.5784,1.5784,1.5784,1.5784,1.5784,1.5784,0.3923,0.4082,0.418,0.418,0.4365,0.4844,0.6015,0.634,0.6906,0.8782,0.8687,0.8753,1.0412,1.164,0.0,0.0,0.0,0.0,0.0,0.0,0.0,0.0,0.0,0.0,0.0,0.0,0.0,0.0,0.0,0.0,0.0,0.0,0.0,1.5784,1.5784,1.5784,1.5784,1.5784,1.573,1.5683,1.5778,1.5784,1.5784,1.5784,1.5784,1.5784,1.5784,1.5784,1.5784,1.5784,1.5784,1.5784,1.5784,1.5794,1.595,1.7157,1.762,1.7616,1.7607,1.7582,1.7582,1.7582,1.7582,1.7582,1.7582,1.7582,1.7582,1.7582,1.7621,1.76,1.7627,1.6702,1.5812,1.5807,1.5813,1.5784,1.5784,1.5784,1.5784,1.5784,1.5784,1.5784,1.5784,1.5784,1.5784,1.5784,1.5784,1.5784,1.5784,1.5784,1.5784,1.5784,1.5784,1.5784,1.5784,1.5784,1.5784,1.5784,1.5784,1.5784,1.5784,1.5784,1.5784,1.5784,1.5784,1.5784,1.5784,1.5784,1.5784,1.5784,1.5784,1.5784,0.3863,0.4035,0.4174,0.4105,0.4402,0.5062,0.6314,0.7188,0.808,0.9142,0.9717,1.0213,1.089,0.0,0.0,0.0,0.0,0.0,0.0,0.0,0.0,0.0,0.0,0.0,0.0,0.0,0.0,0.0,0.0,0.0,0.0,0.0,0.0,1.5784,1.5784,1.5784,1.5784,1.5784,1.5784,1.5784,1.5784,1.5784,1.5784,1.5784,1.5784,1.5784,1.5784,1.5784,1.5784,1.5784,1.5784,1.5784,1.5784,1.5794,1.5856,1.6295,1.6948,1.762,1.7619,1.7605,1.7582,1.7582,1.7582,1.7582,1.7582,1.7582,1.7582,1.7582,1.7582,1.7627,1.7571,1.7272,1.6746,1.6006,1.5779,1.5784,1.5784,1.5784,1.5784,1.5784,1.5784,1.5784,1.5784,1.5784,1.5784,1.5784,1.5784,1.5784,1.5784,1.5784,1.5784,1.5784,1.5784,1.5784,1.5784,1.5784,1.5784,1.5784,1.5784,1.5784,1.5784,1.5784,1.5784,1.5784,1.5784,1.5784,1.5784,1.5784,1.5784,1.5784,1.5784,1.5784,0.3877,0.4028,0.418,0.4175,0.4541,0.5314,0.6935,0.8067,0.897,0.9757,1.0795,1.1596,1.1689,0.0,0.0,0.0,0.0,0.0,0.0,0.0,0.0,0.0,0.0,0.0,0.0,0.0,0.0,0.0,0.0,0.0,0.0,0.0,0.0,0.0,1.5784,1.5784,1.5784,1.5784,1.5784,1.5784,1.5784,1.5784,1.5784,1.5784,1.5784,1.5784,1.5784,1.5784,1.5784,1.5784,1.5784,1.5784,1.5784,1.5795,1.5816,1.5797,1.6302,1.7066,1.748,1.7626,1.758,1.7608,1.7582,1.7582,1.7582,1.7582,1.7582,1.7582,1.7582,1.7627,1.7571,1.7618,1.7284,1.6068,1.5789,1.5784,1.5784,1.5784,1.5784,1.5784,1.5784,1.5784,1.5784,1.5784,1.5784,1.5784,1.5784,1.5784,1.5784,1.5784,1.5784,1.5784,1.5784,1.5784,1.5784,1.5784,1.5784,1.5784,1.5784,1.5784,1.5784,1.5784,1.5784,1.5784,1.5784,1.5784,1.5784,1.5784,1.5784,1.5784,1.5784,1.5784,0.4035,0.4105,0.4257,0.4453,0.4723,0.5561,0.8016,0.8856,0.9512,1.0927,1.2056,1.2891,1.316,1.3213,0.0,0.0,0.0,0.0,0.0,0.0,0.0,0.0,0.0,0.0,0.0,0.0,0.0,0.0,0.0,0.0,0.0,0.0,0.0,0.0,1.5784,1.5784,1.5784,1.5784,1.5784,1.5784,1.5784,1.5784,1.5784,1.5784,1.5784,1.5784,1.5784,1.5784,1.5784,1.5784,1.5784,1.5784,1.5784,1.5784,1.5811,1.5774,1.5823,1.5963,1.7164,1.7599,1.7596,1.7593,1.7575,1.7575,1.7575,1.7575,1.7582,1.7575,1.7575,1.762,1.7623,1.7611,1.7275,1.6084,1.5817,1.5784,1.5784,1.5784,1.5784,1.5784,1.5784,1.5784,1.5784,1.5784,1.5784,1.5784,1.5784,1.5784,1.5784,1.5784,1.5784,1.5784,1.5784,1.5784,1.5784,1.5784,1.5778,1.5778,1.5778,1.5778,1.5784,1.5784,1.5784,1.5784,1.5784,1.5784,1.5778,1.5784,1.5778,1.5825,1.5778,1.5784,0.4008,0.4105,0.4257,0.4453,0.5411,0.6513,0.7351,0.8563,1.0229,1.2719,1.3318,1.3407,1.346,0.0,0.0,0.0,0.0,0.0,0.0,0.0,0.0,0.0,0.0,0.0,0.0,0.0,0.0,0.0,0.0,0.0,0.0,0.0,0.0,0.0,1.5784,1.5784,1.5784,1.5784,1.5784,1.5784,1.5784,1.5784,1.5784,1.5784,1.5784,1.5784,1.5784,1.5784,1.5784,1.5784,1.5784,1.5784,1.5784,1.5784,1.5791,1.5823,1.5818,1.5856,1.6193,1.6327,1.634,1.631,1.6623,1.6967,1.6967,1.7282,1.752,1.7079,1.7288,1.7616,1.7604,1.6959,1.6232,1.5898,1.5783,1.5784,1.5784,1.5784,1.5784,1.5784,1.5784,1.5784,1.5784,1.5784,1.5784,1.5784,1.5784,1.5784,1.5784,1.5784,1.5784,1.5784,1.5784,1.5784,1.5784,1.5812,1.5792,1.5792,1.5792,1.5799,1.5825,1.5784,1.5784,1.5784,1.5784,1.5812,1.5792,1.5819,1.5792,1.5821,1.5806,1.5812,0.4068,0.4237,0.4446,0.4677,0.5559,0.6683,0.7861,0.935,1.1184,1.359,1.3848,1.364,1.376,0.0,0.0,0.0,0.0,0.0,0.0,0.0,0.0,0.0,0.0,0.0,0.0,0.0,0.0,0.0,0.0,0.0,0.0,0.0,0.0,0.0,1.5784,1.5784,1.5784,1.5784,1.5784,1.5784,1.5784,1.5784,1.5784,1.5784,1.5784,1.5784,1.5784,1.5784,1.5784,1.5784,1.5784,1.5784,1.5784,1.5784,1.5784,1.5784,1.5782,1.5789,1.5791,1.5891,1.6047,1.6052,1.6367,1.6707,1.6707,1.6948,1.7164,1.6924,1.7005,1.7302,1.7519,1.6679,1.5774,1.5774,1.5779,1.5784,1.5784,1.5784,1.5784,1.5784,1.5784,1.5784,1.5784,1.5784,1.5784,1.5784,1.5784,1.5784,1.5784,1.5784,1.5784,1.5784,1.5784,1.5784,1.5784,1.5812,1.6607,1.8567,1.869,1.7817,1.5899,1.5799,1.5798,1.5826,1.5792,1.5792,1.5804,1.7764,1.769,1.5872,1.7806,1.7646,0.4133,0.4415,0.4745,0.5022,0.5512,0.6624,0.9351,1.0937,1.2224,1.3754,0.0,1.3726,1.4041,0.0,0.0,0.0,0.0,0.0,0.0,0.0,0.0,0.0,0.0,0.0,0.0,0.0,0.0,0.0,0.0,0.0,0.0,0.0,0.0,0.0,1.5784,1.573,1.5635,1.573,1.573,0.0,1.573,1.5784,1.5784,1.5784,1.5784,1.5784,1.5784,1.5784,1.5784,1.5784,1.5784,1.5784,1.5784,1.5784,1.5784,1.5784,1.5784,1.5811,1.5809,1.606,1.6328,1.6371,1.6457,1.6627,1.6627,1.6647,1.6717,1.686,1.6817,1.6882,1.7309,1.6614,1.5791,1.5791,1.5807,1.5784,1.5784,1.5784,1.5784,1.5784,1.5784,1.5784,1.5784,1.5784,1.5784,1.5784,1.5784,1.5784,1.5784,1.5784,1.5784,1.5784,1.5784,1.5825,1.5805,1.5785,1.7909,2.2797,2.3109,2.1082,1.667,1.6474,1.6257,1.5811,1.5792,1.5785,1.5824,2.0695,2.0788,1.6568,2.0589,2.0055,0.4001,0.4284,0.4641,0.4995,0.6747,0.903,1.1537,1.2363,1.2772,1.3532,1.3874,0.0,0.0,0.0,0.0,0.0,0.0,0.0,0.0,0.0,0.0,0.0,0.0,0.0,0.0,0.0,0.0,0.0,0.0,0.0,0.0,0.0,0.0,1.5784,1.5784,1.5343,1.4316,1.5289,1.5289,0.0,1.5343,1.5784,1.5784,1.5784,1.5784,1.5784,1.5784,1.5784,1.5784,1.5784,1.5784,1.5784,1.5784,1.5784,1.5784,1.5784,1.5784,1.5791,1.5797,1.5871,1.5939,1.5944,1.5964,1.5971,1.5971,1.6234,1.6424,1.614,1.6732,1.7239,1.6388,1.598,1.5817,1.5817,1.5824,1.5784,1.5784,1.5784,1.5784,1.5784,1.5784,1.5784,1.5784,1.5784,1.5784,1.5784,1.5784,1.5784,1.5784,1.5784,1.5784,1.5784,1.5784,1.5819,1.5779,1.5775,1.7895,2.2787,2.3111,2.2615,2.1574,2.1523,1.9739,1.5865,1.5792,1.5812,1.5803,2.0711,2.2566,2.1461,1.8678,1.6829,0.3917,0.429,0.4857,0.5883,0.7626,0.9594,1.1433,1.2329,1.2878,1.3146,0.0,0.0,0.0,0.0,0.0,0.0,0.0,0.0,0.0,0.0,0.0,0.0,0.0,0.0,0.0,0.0,0.0,0.0,0.0,0.0,0.0,1.5752,1.5784,1.5784,1.5784,1.5486,1.4806,1.5486,1.5486,1.4806,1.5486,1.5784,1.5784,1.5784,1.5784,1.5784,1.5784,1.5784,1.5784,1.5784,1.5784,1.5784,1.5784,1.5784,1.5784,1.5784,1.5784,1.5784,1.5784,1.5784,1.5784,1.5784,1.5784,1.5784,1.5784,1.5939,1.608,1.5872,1.6266,1.6574,1.598,1.5784,1.5784,1.5784,1.5784,1.5784,1.5784,1.5784,1.5784,1.5784,1.5784,1.5784,1.5784,1.5784,1.5784,1.5784,1.5784,1.5784,1.5784,1.5784,1.5784,1.5784,1.5784,1.5805,1.5825,1.7949,2.0374,2.2933,2.3113,2.3086,2.3101,2.3085,2.0807,1.5906,1.5797,1.5795,1.5787,2.0692,2.3107,2.3036,2.0488,1.9303,0.3778,0.4287,0.5153,0.7001,0.8272,0.0,1.0708,1.1877,1.2703,1.2703,0.0,0.0,0.0,0.0,0.0,0.0,0.0,0.0,0.0,0.0,0.0,0.0,0.0,0.0,0.0,0.0,0.0,0.0,0.0,0.0,1.5317,1.5598,1.5752,1.5752,1.5758,1.5683,1.5486,1.5683,1.5683,1.5486,1.5683,1.5784,1.5784,1.5784,1.5784,1.5784,1.5784,1.5784,1.5784,1.5784,1.5784,1.5784,1.5784,1.5784,1.5784,1.5784,1.5784,1.5784,1.5784,1.5784,1.5784,1.5784,1.5784,1.5784,1.5784,1.5784,1.5784,1.5784,1.5784,1.5784,1.5784,1.5784,1.5784,1.5784,1.5784,1.5784,1.5784,1.5784,1.5784,1.5784,1.5784,1.5784,1.5784,1.5784,1.5784,1.5784,1.5805,1.5785,1.5785,1.5799,1.5799,1.5778,1.5799,1.5819,1.581,2.0309,2.3117,2.3092,2.312,2.3091,2.3091,2.3109,2.1195,1.7137,1.6232,1.6207,1.7053,2.115,2.3111,2.3117,2.3117,2.3118,0.338,0.4028,0.5247,0.7508,0.8606,0.955,0.0,0.0,1.2365,0.0,0.0,0.0,0.0,0.0,0.0,0.0,0.0,0.0,0.0,0.0,0.0,0.0,0.0,0.0,0.0,0.0,0.0,0.0,0.0,0.0,1.5068,1.5297,1.5451,1.5451,1.5698,1.5289,1.4166,1.5242,1.5242,1.4166,1.5289,1.5784,1.5784,1.5784,1.5784,1.5784,1.5784,1.5784,1.5784,1.5784,1.5784,1.5784,1.5784,1.5784,1.5784,1.5784,1.5784,1.5784,1.5784,1.5784,1.5784,1.5784,1.5784,1.5784,1.5784,1.5784,1.5784,1.5784,1.5784,1.5784,1.5784,1.5784,1.5784,1.5784,1.5784,1.5784,1.5784,1.5784,1.5784,1.5784,1.5784,1.5784,1.5784,1.5784,1.5784,1.5784,1.5792,1.5792,1.5792,1.5782,1.5793,1.5825,1.5782,1.581,1.5782,2.0288,2.3082,2.3115,2.311,2.3091,2.3091,2.3086,2.2782,2.2147,1.7954,1.7903,2.2117,2.2775,2.3113,2.3096,2.3096,2.309,0.359,0.4134,0.5175,0.7596,0.8407,0.9115,1.1155,0.0,0.0,0.0,0.0,0.0,0.0,0.0,0.0,0.0,0.0,0.0,0.0,0.0,0.0,0.0,0.0,0.0,0.0,0.0,0.0,0.0,0.0,1.4716,1.4716,1.4997,1.5202,1.5202,1.5438,1.5297,1.4769,1.5455,1.5534,1.4949,1.5534,1.5784,1.5784,1.5784,1.5784,1.5784,1.5784,1.5784,1.5784,1.5784,1.5784,1.5784,1.5784,1.5784,1.5784,1.5784,1.5784,1.5784,1.5784,1.5784,1.5784,1.5784,1.5784,1.5784,1.5784,1.5784,1.5784,1.5784,1.5784,1.5784,1.5784,1.5784,1.5784,1.5784,1.5784,1.5784,1.5784,1.5784,1.5784,1.5784,1.5784,1.5798,1.5792,1.5812,1.5798,1.5792,1.5805,1.6768,1.9518,1.9887,1.9879,1.9887,1.7438,1.6888,1.9656,2.1877,2.3111,2.3098,2.3098,2.3086,2.3088,2.3105,2.3079,2.3093,1.8295,1.8203,2.3114,2.3098,2.311,2.3091,2.3091,2.3115,0.3714,0.4097,0.4856,0.7043,0.7839,0.8581,0.0,0.0,0.0,0.0,0.0,0.0,0.0,0.0,0.0,0.0,0.0,0.0,0.0,0.0,0.0,0.0,0.0,0.0,0.0,0.0,0.0,0.0,0.0,1.4409,1.4409,1.4689,1.485,1.485,1.5137,1.5317,1.5398,1.5685,1.5784,1.5784,1.5784,1.5784,1.5784,1.5784,1.5784,1.5784,1.5784,1.5784,1.5784,1.5784,1.5784,1.5784,1.5784,1.5784,1.5784,1.5784,1.5784,1.5784,1.5784,1.5784,1.5784,1.5784,1.5784,1.5784,1.5784,1.5784,1.5784,1.5784,1.5784,1.5784,1.5784,1.5784,1.5784,1.5784,1.5784,1.5784,1.5784,1.5784,1.5784,1.5784,1.5784,1.5819,1.5785,1.6831,1.725,1.5987,1.5812,1.7574,2.2458,2.3084,2.3099,2.311,1.982,1.9112,2.2781,2.3098,2.3088,2.31,2.3522,2.3741,2.3742,2.3751,2.3537,2.3119,1.9527,1.9432,2.3086,2.312,2.3091,2.3091,2.3091,2.309,0.3457,0.3737,0.0,0.5578,0.6822,0.8043,0.0,0.0,0.0,0.0,0.0,0.0,0.0,0.0,0.0,0.0,0.0,0.0,0.0,0.0,0.0,0.0,0.0,0.0,0.0,0.0,0.0,0.0,0.0,1.4108,1.4108,1.4389,1.4543,1.4543,1.483,1.5117,1.5391,1.5685,1.5784,1.5784,1.5784,1.5784,1.5784,1.5784,1.5784,1.5784,1.5784,1.5784,1.5784,1.5784,1.5784,1.5784,1.5784,1.5784,1.5784,1.5784,1.5784,1.5784,1.5784,1.5784,1.5784,1.5784,1.5784,1.5784,1.5784,1.5784,1.5784,1.5784,1.5784,1.5784,1.5784,1.5784,1.5784,1.5784,1.5784,1.5784,1.5784,1.5784,1.5784,1.5784,1.5784,1.5819,1.5785,1.9657,2.1139,1.6484,1.5812,1.7551,2.2446,2.3102,2.3075,2.3083,2.2843,2.2825,2.3064,2.3103,2.3111,2.3111,2.4638,2.5578,2.5542,2.5578,2.4779,2.3139,2.2861,2.2848,2.3086,2.312,2.3091,2.3091,2.3091,2.309,0.3225,0.0,0.0,0.5195,0.6306,0.7414,0.0,0.0,0.0,0.0,0.0,0.0,0.0,0.0,0.0,0.0,0.0,0.0,0.0,0.0,0.0,0.0,0.0,0.0,0.0,0.0,0.0,0.0,0.0,0.0,1.4088,1.4182,1.4242,1.4242,1.4529,1.491,1.5391,1.5504,1.5645,1.5784,1.5784,1.5784,1.5784,1.5784,1.5784,1.5784,1.5784,1.5784,1.5784,1.5784,1.5784,1.5784,1.5784,1.5784,1.5784,1.5784,1.5784,1.5784,1.5784,1.5784,1.5784,1.5784,1.5784,1.5784,1.5784,1.5784,1.5784,1.5784,1.5784,1.5784,1.5784,1.5784,1.5824,1.5798,1.5789,1.578,1.5803,1.5825,1.5784,1.5784,1.5785,1.5792,1.5805,1.9876,2.1423,1.6557,1.644,1.884,2.4098,2.4773,2.4772,2.4778,2.4756,2.4782,2.4778,2.4792,2.4785,2.4758,2.5337,2.5714,2.5706,2.5687,2.5404,2.4767,2.4749,2.4199,2.3118,2.3086,2.3119,2.3101,2.3084,2.3076,0.3455,0.3704,0.0,0.0,0.0,0.6702,0.7733,0.0,0.0,0.0,0.0,0.0,0.0,0.0,0.0,0.0,0.0,0.0,0.0,0.0,0.0,0.0,0.0,0.0,0.0,0.0,0.0,0.0,0.0,0.0,1.4088,1.4088,1.4088,1.4088,1.4369,1.4703,1.5097,1.5297,1.5491,1.5685,1.5785,1.5784,1.5784,1.5784,1.5784,1.5784,1.5784,1.5784,1.5784,1.5784,1.5784,1.5784,1.5784,1.5784,1.5784,1.5784,1.5784,1.5784,1.5784,1.5784,1.5784,1.5784,1.5784,1.5784,1.5784,1.5784,1.5784,1.5784,1.5784,1.5798,1.5789,1.5779,1.5904,1.6317,1.6413,1.6298,1.5876,1.5826,1.5794,1.5783,1.5795,1.6299,1.7946,2.141,2.2864,1.9621,1.9804,2.1601,2.5236,2.572,2.5691,2.5691,2.5691,2.5691,2.5691,2.5691,2.5687,2.5716,2.5678,2.569,2.5684,2.571,2.5678,2.5678,2.5707,2.5149,2.3968,2.3408,2.3088,2.3111,2.3098,2.3431,0.0,0.0,0.0,0.0,0.0,0.0,0.0,0.0,0.0,0.0,0.0,0.0,0.0,0.0,0.0,0.0,0.0,0.0,0.0,0.0,0.0,0.0,0.0,0.0,0.0,0.0,0.0,0.0,0.0,1.4088,1.4088,1.4088,1.4088,1.4088,1.4362,1.4466,1.4522,1.509,1.5391,1.5398,1.5691,1.5784,1.5784,1.5784,1.5784,1.5784,1.5784,1.5784,1.5784,1.5784,1.5784,1.5784,1.5784,1.5784,1.5784,1.5784,1.5784,1.5784,1.5784,1.5784,1.5784,1.5784,1.5784,1.5784,1.5784,1.5784,1.5784,1.5784,1.5784,1.5797,1.5862,1.5864,1.6134,1.7339,1.7624,1.7282,1.611,1.5828,1.5865,1.5857,1.5847,1.7407,2.2333,2.4593,2.57,2.5683,2.5673,2.5684,2.5679,2.5693,2.5693,2.5693,2.5693,2.5693,2.5693,2.5693,2.5693,2.5693,2.5693,2.5693,2.5693,2.5693,2.5693,2.5693,2.5693,2.5721,2.571,2.4018,2.3167,2.3204,2.3167,2.4057,0.4033,0.0,0.0,0.0,0.0,0.0,0.0,0.0,0.0,0.0,0.0,0.0,0.0,0.0,0.0,0.0,0.0,0.0,0.0,0.0,0.0,0.0,0.0,0.0,0.0,0.0,0.0,0.0,1.3968,1.4088,1.4088,1.4088,1.4088,1.4088,1.4168,1.4309,1.4516,1.4897,1.519,1.5398,1.5691,1.5784,1.5784,1.5784,1.5784,1.5784,1.5784,1.5784,1.5784,1.5784,1.5784,1.5784,1.5784,1.5784,1.5784,1.5784,1.5784,1.5784,1.5784,1.5784,1.5784,1.5784,1.5784,1.5784,1.5784,1.5784,1.5784,1.5784,1.5784,1.6007,1.6856,1.7092,1.7187,1.7516,1.759,1.7519,1.7145,1.7096,1.7079,1.7112,1.7106,1.8764,2.4055,2.539,2.5726,2.5722,2.5703,2.5693,2.5683,2.5684,2.5693,2.5693,2.5693,2.5693,2.5693,2.5693,2.5693,2.5693,2.5693,2.5693,2.5693,2.5693,2.5693,2.5693,2.5693,2.5693,2.5692,2.5232,2.4972,2.4987,2.4992,2.5251,0.4714,0.5313,0.5772,0.0,0.0,0.0,0.0,0.7119,0.0,0.0,0.0,0.0,0.0,0.0,0.0,0.0,0.0,0.0,0.0,0.0,0.0,0.0,0.0,0.0,0.0,0.0,0.0,1.342,1.3734,1.3955,1.4082,1.4088,1.4088,1.4088,1.4088,1.4168,1.4335,1.4629,1.4923,1.5217,1.5504,1.5712,1.5784,1.5784,1.5784,1.5784,1.5784,1.5784,1.5784,1.5784,1.5784,1.5784,1.5784,1.5784,1.5784,1.5784,1.5784,1.5784,1.5784,1.5784,1.5784,1.5784,1.5784,1.5784,1.5784,1.5784,1.5784,1.5784,1.6565,1.7278,1.6923,1.7237,1.8187,2.046,1.923,1.7616,1.7582,1.7597,1.8268,2.0538,2.0982,2.1969,2.5168,2.5702,2.57,2.5703,2.5693,2.5693,2.5693,2.5693,2.5693,2.5693,2.5693,2.5693,2.5693,2.5693,2.5693,2.5693,2.5693,2.5693,2.5693,2.5693,2.5693,2.5693,2.5693,2.5693,2.5693,2.5682,2.5724,2.5687,2.5686,2.5691,0.5823,0.6385,0.6834,0.6497,0.0,0.0,0.7049,0.7478,0.0,0.0,0.0,0.0,0.0,0.0,0.0,0.0,0.0,0.0,0.0,0.0,0.0,0.0,0.0,0.0,0.0,1.2979,1.316,1.316,1.342,1.372,1.4021,1.4068,1.4088,1.4088,1.4088,1.4088,1.4088,1.4376,1.4656,1.4961,1.5244,1.5531,1.5785,1.5764,1.5784,1.5784,1.5784,1.5784,1.5784,1.5784,1.5784,1.5784,1.5784,1.5784,1.5784,1.5784,1.5784,1.5784,1.5784,1.5784,1.5784,1.5784,1.592,1.6015,1.6015,1.6103,1.619,1.6089,1.7786,1.917,1.7149,1.7403,1.9422,2.4285,2.1716,1.8225,1.8304,1.8439,1.9943,2.477,2.5695,2.5689,2.5689,2.5693,2.5674,2.5684,2.5684,2.5684,2.5684,2.5684,2.5684,2.5684,2.5713,2.5723,2.5684,2.5713,2.5693,2.5693,2.5693,2.5693,2.5693,2.5693,2.5693,2.5693,2.5693,2.5693,2.5693,2.5693,2.5693,2.5693,2.5693,2.5693,0.662,0.7253,0.7484,0.6612,0.0,0.0,0.0,0.6706,0.0,0.0,0.0,0.0,0.0,0.0,0.0,0.0,0.0,0.0,0.0,0.0,0.0,0.0,0.0,0.0,0.0,1.2697,1.2878,1.2878,1.334,1.3626,1.3686,1.3955,1.4088,1.4088,1.4088,1.4088,1.4088,1.4376,1.4549,1.4609,1.5144,1.5424,1.5491,1.5718,1.5784,1.5784,1.5784,1.5784,1.5784,1.5784,1.5784,1.5784,1.5784,1.5784,1.5784,1.5784,1.5784,1.5784,1.5784,1.5784,1.5784,1.5784,1.648,1.7318,1.7318,1.7994,1.8648,1.7988,1.9104,2.0643,2.148,2.1851,2.2285,2.3354,2.2814,2.2214,2.2937,2.3609,2.4412,2.5497,2.5684,2.5713,2.5713,2.5723,2.5693,2.5696,2.5704,2.5704,2.5704,2.5704,2.5704,2.5704,2.5711,2.5722,2.5676,2.5721,2.5693,2.5693,2.5693,2.5693,2.5693,2.5693,2.5693,2.5693,2.5693,2.5693,2.5693,2.5693,2.5693,2.5693,2.5693,2.5693,0.7191,0.7822,0.8189,0.7551,0.0,0.0,0.0,0.0,0.0,0.0,0.0,0.0,0.0,0.0,0.0,0.0,0.0,0.0,0.0,0.0,0.0,0.0,0.0,0.0,0.0,1.2261,1.2469,1.2764,1.3065,1.326,1.338,1.3707,1.3868,1.3868,1.4008,1.4088,1.4088,1.4229,1.4376,1.4522,1.497,1.5257,1.5404,1.5698,1.5784,1.5784,1.5784,1.5784,1.5784,1.5784,1.5784,1.5784,1.5784,1.5784,1.5784,1.5784,1.5784,1.5784,1.5784,1.5784,1.592,1.6527,1.7178,1.7824,1.8411,1.8993,1.9526,1.976,2.0404,2.1329,2.2726,2.3088,2.3114,2.3099,2.3101,2.3223,2.3644,2.4076,2.4396,2.4396,2.441,2.4697,2.5538,2.572,2.5707,2.5715,2.4982,2.4425,2.4425,2.5172,2.5685,2.5685,2.4941,2.4763,2.5632,2.5716,2.5691,2.5674,2.5693,2.5693,2.5693,2.5693,2.5693,2.5693,2.5693,2.5693,2.5693,2.5693,2.5693,2.5693,2.5693,2.5693,0.0,0.0,0.0,0.0,0.0,0.8442,0.0,0.0,0.0,0.0,0.0,0.0,0.0,0.0,0.0,0.0,0.0,0.0,0.0,0.0,0.0,0.0,0.0,0.0,0.0,1.1739,1.198,1.2569,1.2616,1.2777,1.3106,1.3413,1.36,1.36,1.3935,1.4088,1.4088,1.4088,1.4208,1.4442,1.4736,1.503,1.5324,1.5611,1.5724,1.5784,1.5784,1.5784,1.5784,1.5784,1.5784,1.5784,1.5784,1.5784,1.5784,1.5784,1.5784,1.5784,1.5784,1.5784,1.5967,1.699,1.7638,1.8319,1.977,2.0178,2.0404,2.1391,2.1632,2.1872,2.2872,2.3091,2.3091,2.3091,2.3109,2.3079,2.3079,2.31,2.3098,2.3098,2.3098,2.3561,2.4947,2.5221,2.5201,2.5187,2.3999,2.3091,2.3091,2.4307,2.5223,2.5223,2.3946,2.367,2.5098,2.5523,2.5724,2.5722,2.5703,2.5693,2.5693,2.5693,2.5693,2.5693,2.5693,2.5693,2.5693,2.5693,2.5693,2.5693,2.5693,2.5693,0.0,0.0,0.0,0.0,0.8345,0.0,0.0,0.0,0.0,0.0,0.0,0.0,0.0,0.0,0.0,0.0,0.0,0.0,0.0,0.0,0.0,0.0,0.0,0.0,0.0,0.0,1.1336,1.196,1.2007,1.2248,1.2811,1.3333,1.36,1.36,1.3935,1.4088,1.4088,1.4088,1.4108,1.4142,1.4429,1.473,1.5068,1.5311,1.5585,1.5784,1.5784,1.5784,1.5784,1.5784,1.5784,1.5784,1.5784,1.5784,1.5784,1.5784,1.5784,1.5784,1.5784,1.5784,1.5825,1.5967,1.7483,1.9724,2.1996,2.2677,2.2731,2.2862,2.2916,2.2916,2.3047,2.3091,2.3091,2.3091,2.312,2.3106,2.3106,2.3091,2.312,2.312,2.312,2.3181,2.3377,2.3389,2.3387,2.3383,2.3252,2.3088,2.3088,2.3261,2.338,2.338,2.3227,2.3192,2.3367,2.4808,2.571,2.5702,2.5711,2.5693,2.5693,2.5693,2.5693,2.5693,2.5693,2.5693,2.5693,2.5693,2.5693,2.5693,2.5693,2.5693,0.0,0.0,0.0,0.0,0.0,0.0,0.8141,0.0,0.7999,0.0,0.0,0.0,0.0,0.0,0.0,0.0,0.0,0.0,0.0,0.0,0.0,0.0,0.0,0.0,0.0,0.0,0.0,0.0,0.0,1.1651,1.2241,1.2639,1.3026,1.334,1.3674,1.3915,1.4088,1.4088,1.4088,1.4088,1.4382,1.4583,1.4723,1.5184,1.5464,1.5585,1.5711,1.5784,1.5784,1.5784,1.5784,1.5784,1.5784,1.5784,1.5784,1.5784,1.5784,1.5784,1.5784,1.5784,1.5792,1.5818,1.8421,2.1765,2.2775,2.3091,2.3091,2.3091,2.3091,2.3091,2.3091,2.3091,2.3091,2.3091,2.3091,2.3091,2.3091,2.3091,2.3091,2.3091,2.3091,2.3091,2.3095,2.3089,2.3095,2.3094,2.3119,2.3119,2.3119,2.3119,2.3119,2.3119,2.3102,2.3095,2.3106,2.3753,2.4599,2.5623,2.5703,2.5693,2.5693,2.5693,2.5693,2.5693,2.5693,2.5693,2.5693,2.5693,2.5693,2.5693,2.5693,2.5693,0.8951,0.0,0.0,0.0,0.0,0.0,0.0,0.0,0.0,0.0,0.0,0.0,0.0,0.0,0.0,0.0,0.0,0.0,0.0,0.0,0.0,0.0,0.0,0.0,0.0,0.0,0.0,0.0,0.0,0.0,1.171,1.2024,1.2458,1.3066,1.3407,1.3706,1.3968,1.4048,1.4088,1.4088,1.4302,1.4442,1.4492,1.4963,1.5244,1.5404,1.5618,1.5711,1.5784,1.5784,1.5784,1.5784,1.5784,1.5784,1.5784,1.5784,1.5784,1.5784,1.5784,1.5784,1.592,1.6607,1.9232,2.2227,2.2906,2.3091,2.3091,2.3091,2.3091,2.3091,2.3091,2.3091,2.3091,2.3091,2.3091,2.3091,2.3091,2.3091,2.3091,2.3091,2.3091,2.3091,2.3091,2.3091,2.3091,2.3091,2.3091,2.3091,2.3091,2.3091,2.3091,2.3091,2.3081,2.3102,2.3107,2.3548,2.4362,2.5635,2.5693,2.5693,2.5693,2.5693,2.5693,2.5693,2.5693,2.5693,2.5693,2.5693,2.5693,2.5693,2.5693,2.5693,0.0,0.0,0.0,0.8212,0.0,0.0,0.0,0.0,0.8469,0.0,0.0,0.0,0.0,0.0,0.0,0.0,0.0,0.0,0.0,0.0,0.0,0.0,0.0,0.0,0.0,0.0,0.0,0.0,0.0,0.0,1.1342,1.1724,1.2187,1.2777,1.3333,1.3606,1.362,1.3941,1.4088,1.4088,1.4095,1.4249,1.4522,1.4536,1.4856,1.5398,1.5404,1.5571,1.5784,1.5784,1.5784,1.5784,1.5784,1.5784,1.5784,1.5784,1.5784,1.5784,1.5784,1.5784,1.6197,1.861,1.948,2.0042,2.2403,2.3091,2.3091,2.3091,2.3091,2.3091,2.3091,2.3091,2.3091,2.3091,2.3091,2.3091,2.3091,2.3091,2.3091,2.3091,2.3091,2.3091,2.3091,2.3091,2.3091,2.3091,2.3091,2.3091,2.3091,2.3091,2.3091,2.3091,2.3108,2.3111,2.3095,2.4626,2.5628,2.5713,2.5693,2.5693,2.5693,2.5693,2.5693,2.5693,2.5693,2.5693,2.5693,2.5693,2.5693,2.5693,2.5693,2.5693,0.0,0.0,0.9733,0.8731,0.0,0.0,0.0,0.0,0.0,0.0,0.0,0.0,0.0,0.0,0.0,0.0,0.0,0.0,0.0,0.0,0.0,0.0,0.0,0.0,0.0,0.0,0.0,0.0,0.9519,0.0,0.0,1.1309,1.1844,1.2438,1.3039,1.3407,1.36,1.3941,1.4088,1.4088,1.4088,1.4135,1.4242,1.4436,1.4629,1.4836,1.5231,1.5451,1.5558,1.5752,1.5784,1.5784,1.5784,1.5784,1.5784,1.5784,1.5784,1.5784,1.5784,1.5799,1.6227,1.8678,1.9864,2.0649,2.2526,2.3091,2.3091,2.3091,2.3091,2.3091,2.3091,2.3091,2.3091,2.3091,2.3091,2.3091,2.3091,2.3091,2.3091,2.3091,2.3091,2.3091,2.3091,2.309,2.3102,2.3102,2.3102,2.3079,2.3109,2.3093,2.3093,2.3093,2.3096,2.3591,2.4722,2.5358,2.5712,2.5684,2.5693,2.5693,2.5693,2.5693,2.5693,2.5693,2.5693,2.5693,2.5693,2.5693,2.5693,2.5693,2.5693,2.5693,0.9866,0.9973,0.0,0.9124,0.9078,0.0,0.8637,0.0,0.0,0.0,0.0,0.0,0.0,0.0,0.0,0.0,0.0,0.0,0.0,0.0,0.0,0.0,0.0,0.0,0.0,0.0,0.8584,0.8791,0.8965,0.0,0.0,0.0,1.1436,1.2124,1.2839,1.326,1.3447,1.3888,1.4088,1.4088,1.4088,1.4088,1.4095,1.4282,1.4482,1.4696,1.5077,1.5357,1.5565,1.5752,1.5784,1.5784,1.5784,1.5784,1.5784,1.5784,1.5784,1.5784,1.5784,1.6398,1.7377,1.8977,2.0413,2.1748,2.2784,2.3091,2.3091,2.3091,2.3091,2.3091,2.3091,2.3091,2.3091,2.3091,2.3091,2.3091,2.3091,2.3091,2.3091,2.3091,2.3091,2.3086,2.3115,2.3086,2.3076,2.3076,2.3622,2.4046,2.4021,2.4004,2.4004,2.4004,2.4007,2.4455,2.5591,2.5702,2.5693,2.5693,2.5693,2.5693,2.5693,2.5693,2.5693,2.5693,2.5693,2.5693,2.5693,2.5693,2.5693,2.5693,2.5693,2.5693]}]]